     2              OBSERVATION DATA    GPS                 RINEX VERSION / TYPE
teqc 1998Mar9 19981006 18:29:08UTC                          PGM / RUN BY / DATE
                                                            COMMENT
Original Marker Name: INDE                                  COMMENT
Campaign Name: HPGN 1998                                    COMMENT
4-Character Station Name: INDE                              COMMENT
6-Character Antenna Code: TRMCMP                            COMMENT
Vertical Measurement Point: BPA                             COMMENT
Vertical Offset to Rinex Ref. Point: 0.0000                 COMMENT
Radial Measurement Point: RRP                               COMMENT
Radial Offset to Rinex Ref. Point: 0.0000                   COMMENT
Antenna Height from Field Measurement: 2.0000 m             COMMENT
Original XYZ: -2416155.8449 -4508990.9639 3798657.6421      COMMENT
New XYZ position is based on association with SCEC monument COMMENT
E1F7L9H6+0011. Position of that monument is believed to be  COMMENT
valid to within 1 m horizontally; vertical accuracy         COMMENT
should be no worse than 3-times this value.                 COMMENT
                                                            COMMENT
Revised Rinex header created by UCSD GPS archive for        COMMENT
GSAC on 31-Aug-1999 (1999:243) 17:16:00 GMT                 COMMENT
For assistance contact dagnew@ucsd.edu or hjohnson@ucsd.edu COMMENT
                                                            COMMENT
INDEPENDENCE NW BASE 2                                      MARKER NAME
unknown CALIF DEPT TRANSPORTATION                           OBSERVER / AGENCY
4888 TRIMBLE 4000 SSE NP 7.25; SP 3.07                      REC # / TYPE / VERS
76727 TR GEOD L1/L2 GP                                      ANT # / TYPE
 -2416152.0000 -4508990.0000  3798652.0000                  APPROX POSITION XYZ
        2.0000        0.0000        0.0000                  ANTENNA: DELTA H/E/N
     1     1     0                                          WAVELENGTH FACT L1/2
     7    L1    L2    C1    P2    P1    D1    D2            # / TYPES OF OBSERV
     0                                                      INTERVAL
  1998     7    10    15    19   15.000000                  TIME OF FIRST OBS
  1998     7    10    20    49   15.000000                  TIME OF LAST OBS
                                                            END OF HEADER
 98  7 10 15 19 15.0000000  0  7G 4G 5G30G 8G 9G10G24
   1387163.30356   1080906.57456  21766861.3754   21766865.5234
     -2289.0164      -1783.6494
   -792951.55757   -594127.90657  20890097.9224   20890102.0704
      1452.2504       1131.6234
  -1599808.68955  -1152425.32255  23034661.8204   23034666.5664
      3068.6254       2391.1364
    236198.48156    184049.97756  21752367.3364   21752372.6094
      -393.3444       -306.5024
   1461081.74356   1081207.71056  22488318.1414   22488323.8954
     -2406.9694      -1875.5604
  -1758015.78353  -1244237.28453  24299164.5634   24299171.6564
      3278.8284       2554.9314
      9200.72957      6348.78957  20430671.2734   20430676.2304
        25.0004         19.4814
 98  7 10 15 19 30.0000000  0  7G 4G 5G30G 8G 9G10G24
   1421491.37646   1107655.72246  21773393.9774   21773398.1374
     -2288.0004      -1782.8574
   -814747.71747   -611111.91947  20885950.2974   20885954.4694
      1453.9224       1132.9264
  -1645876.69945  -1188322.45145  23025895.5634   23025900.4964
      3073.9064       2395.2524
    242122.43046    188666.03746  21753494.3984   21753499.5664
      -396.4534       -308.9254
   1497171.23046   1109329.35546  22495185.9534   22495191.3554
     -2404.9224      -1873.9654
  -1807252.20244  -1282603.23043  24289795.3984   24289802.4694
      3286.1414       2560.6294
      8832.66347      6061.98947  20430601.3134   20430606.1644
        24.1564         18.8234
 98  7 10 15 19 45.0000000  0  7G 4G 5G30G 8G 9G10G24
   1455804.66646   1134393.35146  21779923.5004   21779927.7894
     -2287.0784      -1782.1394
   -836565.28347   -628112.61247  20881798.5944   20881802.7074
      1455.1094       1133.8514
  -1692022.68646  -1224280.33745  23017114.7194   23017119.3834
      3078.9384       2399.1724
    248093.85846    193319.09246  21754630.8834   21754635.7344
      -399.7194       -311.4694
   1533232.37346   1137428.92046  22502047.9694   22502053.5704
     -2403.2034      -1872.6264
  -1856598.38443  -1321054.69243  24280405.0784   24280412.3484
      3293.3444       2566.2424
      8476.91047      5784.78947  20430533.2114   20430537.9694
        23.3134         18.1664
 98  7 10 15 20  0.0000000  0  7G 4G 5G30G 8G 9G10G24
   1490103.42346   1161119.66346  21786450.2664   21786454.2854
     -2286.0004      -1781.2994
   -858399.52147   -645126.29947  20877643.5944   20877647.6024
      1456.2344       1134.7284
  -1738243.34946  -1260296.42045  23008318.9694   23008323.6914
      3083.8754       2403.0194
    254115.57446    198011.32346  21755776.7974   21755781.8014
      -403.0784       -314.0874
   1569268.25746   1165508.79746  22508905.3984   22508911.0004
     -2401.5004      -1871.2994
  -1906051.55743  -1359589.49743  24270993.9774   24271001.0474
      3300.5164       2571.8304
      8133.80647      5517.44347  20430468.4924   20430473.1334
        22.5314         17.5574
 98  7 10 15 20 15.0000000  0  7G 4G 5G30G 8G 9G10G24
   1524386.16846   1187833.50046  21792974.1414   21792978.1484
     -2285.0944      -1780.5934
   -880251.94847   -662154.15747  20873485.3524   20873489.5124
      1457.3134       1135.5684
  -1784538.25146  -1296370.35545  22999509.1564   22999513.7384
      3088.7034       2406.7824
    260187.54846    202742.71846  21756932.3054   21756937.1094
      -406.6094       -316.8384
   1605277.98546   1193568.29046  22515758.2274   22515763.6764
     -2399.9064      -1870.0574
  -1955614.13443  -1398209.60243  24261562.9064   24261570.5514
      3307.7504       2577.4684
      7801.21247      5258.28947  20430405.0084   20430409.9774
        21.7034         16.9124
 98  7 10 15 20 30.0000000  0  7G 4G 5G30G 8G 9G10G24
   1558654.30546   1214535.94346  21799495.0004   21799499.1374
     -2284.0314      -1779.7654
   -902119.64047   -679193.91047  20869323.9454   20869328.1054
      1458.3444       1136.3724
  -1830906.91446  -1332501.76245  22990685.7504   22990690.7664
      3093.7504       2410.7144
    266312.07146    207515.06246  21758097.9064   21758102.5004
      -410.0164       -319.4934
   1641262.86946   1221608.42646  22522605.6954   22522610.9574
     -2398.0784      -1868.6324
  -2005285.61843  -1436914.52143  24252110.4924   24252120.0124
      3314.9694       2583.0934
      7480.02247      5008.02347  20430343.8284   20430348.6804
        21.0784         16.4254
 98  7 10 15 20 45.0000000  0  7G 4G 5G30G 8G 9G10G24
   1592910.09646   1241228.77446  21806013.7344   21806017.7664
     -2283.2504      -1779.1564
   -923997.51047   -696241.59147  20865160.7344   20865164.6954
      1458.8444       1136.7614
  -1877347.11446  -1368688.91245  22981848.2034   22981853.5824
      3098.3594       2414.3064
    272491.91946    212330.51846  21759273.5784   21759278.5234
      -413.7344       -322.3904
   1677224.32746   1249630.31146  22529448.9144   22529454.2584
     -2396.6564      -1867.5244
  -2055059.25944  -1475699.05543  24242638.6804   24242646.2074
      3321.6414       2588.2914
      7172.74947      4768.59847  20430285.4694   20430290.3204
        20.0634         15.6334
 98  7 10 15 21  0.0000000  0  7G 4G 5G30G 8G 9G10G24
   1627152.36746   1267911.06546  21812529.8754   21812533.9184
     -2282.2664      -1778.3894
   -945884.16547   -713296.12547  20860995.8364   20860999.7034
      1459.5004       1137.2734
  -1923856.07946  -1404929.63745  22972998.2114   22973003.1094
      3102.9064       2417.8494
    278724.96646    217187.42346  21760459.9454   21760465.2774
      -417.1874       -325.0814
   1713163.56146   1277634.87146  22536288.0164   22536293.3244
     -2395.1254      -1866.3314
  -2104933.01843  -1514561.64543  24233147.7274   24233155.8874
      3328.2504       2593.4424
      6878.91247      4539.64247  20430229.1804   20430234.1374
        19.1564         14.9274
 98  7 10 15 21 15.0000000  0  7G 4G 5G30G 8G 9G10G24
   1661379.57446   1294581.61746  21819043.1414   21819047.2664
     -2281.4224      -1777.7314
   -967778.58747   -730356.70747  20856829.3914   20856833.4804
      1459.6414       1137.3824
  -1970431.63546  -1441222.26745  22964135.0234   22964139.7814
      3107.0634       2421.0884
    285008.76346    222083.88146  21761655.6804   21761660.7424
      -420.6874       -327.8084
   1749081.25046   1305622.64846  22543122.8594   22543128.4964
     -2393.9844      -1865.4424
  -2154903.92443  -1553499.89643  24223638.5784   24223644.7074
      3334.4694       2598.2874
      6602.10747      4323.95647  20430176.7664   20430181.6174
        17.6724         13.7704
 98  7 10 15 21 30.0000000  0  7G 4G 5G30G 8G 9G10G24
   1695595.37046   1321243.28546  21825554.1484   21825558.2854
     -2280.5784      -1777.0744
   -989673.42647   -747417.61547  20852662.8984   20852667.0944
      1459.7974       1137.5044
  -2017066.95046  -1477561.43745  22955260.2194   22955264.8954
      3111.1094       2424.2414
    291345.74346    227021.77746  21762861.6644   21762866.4694
      -424.0314       -330.4144
   1784982.57846   1333597.67446  22549954.8754   22549960.3364
     -2392.6874      -1864.4324
  -2204965.79244  -1592509.00343  24214111.7034   24214120.2274
      3340.5004       2602.9874
      6348.08447      4126.02947  20430128.0704   20430132.9104
        16.2814         12.6874
 98  7 10 15 21 45.0000000  0  7G 4G 5G30G 8G 9G10G24
   1729799.31946   1347895.71846  21832062.8984   21832066.7774
     -2279.9064      -1776.5504
  -1011570.30047   -764480.10747  20848496.1724   20848500.3554
      1459.8284       1137.5284
  -2063764.16946  -1513948.86945  22946374.2584   22946379.0274
      3115.2664       2427.4804
    297730.47646    231996.87946  21764076.5864   21764081.5554
      -427.2034       -332.8864
   1820863.28846   1361556.63146  22556782.7584   22556788.1024
     -2391.3124      -1863.3604
  -2255117.92444  -1631588.49543  24204568.2194   24204574.3244
      3346.5004       2607.6624
      6116.92047      3945.91247  20430084.3754   20430089.1454
        14.5164         11.3114
 98  7 10 15 22  0.0000000  0  7G 4G 5G30G 8G 9G10G24
   1763990.75546   1374538.39546  21838569.1484   21838573.2624
     -2278.9374      -1775.7954
  -1033469.66747   -781544.54447  20844328.8754   20844332.8364
      1460.1094       1137.7484
  -2110524.30046  -1550385.31845  22937476.2114   22937480.9344
      3119.4384       2430.7314
    304162.96946    237009.20046  21765300.7114   21765305.6804
      -430.4534       -335.4184
   1856721.24846   1389497.86646  22563606.5164   22563611.9304
     -2389.7194      -1862.1194
  -2305359.34944  -1670737.53443  24195007.4534   24195014.5124
      3352.3134       2612.1924
      5913.53847      3787.43947  20430045.6564   20430050.4734
        12.6094          9.8254
 98  7 10 15 22 15.0000000  0  7G 4G 5G30G 8G 9G10G24
   1798171.29646   1401172.59046  21845073.5314   21845077.4344
     -2278.5164      -1775.4674
  -1055369.71647   -798609.51347  20840161.6024   20840165.8444
      1459.9064       1137.5894
  -2157342.71546  -1586867.18645  22928566.6254   22928571.3834
      3122.9844       2433.4944
    310647.45346    242062.02946  21766534.6644   21766539.7034
      -434.1874       -338.3284
   1892558.85146   1417423.24146  22570426.1094   22570431.7814
     -2388.6874      -1861.3154
  -2355684.27744  -1709951.71043  24185431.4304   24185438.9804
      3357.6724       2616.3684
      5743.34947      3654.83547  20430013.3524   20430018.1564
        10.0164          7.8044
 98  7 10 15 22 30.0000000  0  7G 4G 5G30G 8G 9G10G24
   1832345.97846   1427802.21346  21851576.8754   21851581.1294
     -2278.1254      -1775.1624
  -1077267.16747   -815672.45247  20835994.6484   20835998.7274
      1459.6884       1137.4194
  -2204215.52246  -1623391.42945  22919647.1414   22919652.1454
      3126.6414       2436.3434
    317186.16146    247157.11346  21767778.8984   21767784.0434
      -437.7504       -341.1044
   1928379.95746   1445335.76046  22577242.8054   22577248.3714
     -2387.5314      -1860.4144
  -2406089.14844  -1749228.14543  24175838.9454   24175846.5204
      3362.8914       2620.4344
      5613.79847      3553.89347  20429988.6644   20429993.6214
         7.1414          5.5644
 98  7 10 15 22 45.0000000  0  7G 4G 5G30G 8G 9G10G24
   1866516.10946   1454428.28746  21858079.3204   21858083.3754
     -2277.8284      -1774.9314
  -1099159.36547   -832731.30247  20831828.6174   20831832.5904
      1459.3754       1137.1754
  -2251140.74346  -1659956.51045  22910717.6884   22910722.5394
      3130.1254       2439.0584
    323781.79446    252296.55046  21769034.1724   21769039.3634
      -441.5944       -344.0994
   1964186.28646   1473236.76146  22584056.5004   22584062.2074
     -2386.5784      -1859.6714
  -2456569.37444  -1788563.30843  24166233.3204   24166240.3094
      3367.8134       2624.2694
      5530.86447      3489.27547  20429972.7344   20429977.4574
         3.9694          3.0934
 98  7 10 15 23  0.0000000  0  7G 4G 5G30G 8G 9G10G24
   1900681.30746   1481050.52346  21864580.7974   21864584.9804
     -2277.5164      -1774.6874
  -1121047.41347   -849786.91247  20827663.2584   20827667.0434
      1459.0784       1136.9444
  -2298116.71946  -1696561.15345  22901778.4694   22901782.8754
      3133.2814       2441.5184
    330434.95146    257480.81846  21770300.3524   21770305.5204
      -445.4534       -347.1064
   1999979.28646   1501127.38346  22590867.7814   22590873.2774
     -2385.8284      -1859.0874
  -2507123.70344  -1827956.20243  24156612.3134   24156619.2194
      3372.8284       2628.1784
      5496.23447      3462.30247  20429966.6174   20429971.2344
         0.6254          0.4874
 98  7 10 15 23 15.0000000  0  7G 4G 5G30G 8G 9G10G24
   1934839.99046   1507667.67646  21871080.8204   21871085.0864
     -2277.1414      -1774.3954
  -1142932.36347   -866840.11347  20823499.1334   20823503.1414
      1458.7344       1136.6764
  -2345138.98846  -1733201.85645  22892830.3134   22892835.1994
      3136.2034       2443.7954
    337146.29946    262710.42546  21771577.5634   21771582.5084
      -449.5474       -350.2964
   2035759.79646   1529008.27346  22597676.3204   22597681.9924
     -2385.0944      -1858.5154
  -2557754.85944  -1867408.91343  24146977.9144   24146985.7344
      3377.8594       2632.0984
      5511.16447      3473.94247  20429969.0234   20429973.6884
        -2.7814         -2.1674
 98  7 10 15 23 30.0000000  0  7G 4G 5G30G 8G 9G10G24
   1968993.78946   1534281.02346  21877580.3444   21877584.5744
     -2276.7974      -1774.1274
  -1164810.46747   -883887.97947  20819335.6954   20819339.7624
      1458.2664       1136.3114
  -2392204.03046  -1769875.88945  22883873.6334   22883878.5434
      3139.0474       2446.0114
    343920.12246    267988.71546  21772866.4694   21772871.4144
      -453.7194       -353.5474
   2071531.44646   1556882.25246  22604483.7194   22604489.3554
     -2384.4844      -1858.0404
  -2608461.85444  -1906920.77143  24137328.5164   24137335.6914
      3383.0314       2636.1284
      5577.63147      3525.74147  20429981.7734   20429986.4144
        -6.0474         -4.7124
 98  7 10 15 23 45.0000000  0  7G 4G 5G30G 8G 9G10G24
   2003145.91346   1560893.07246  21884079.3204   21884083.5634
     -2276.7974      -1774.1274
  -1186678.75947   -900928.19647  20815174.2664   20815178.3794
      1457.4844       1135.7024
  -2439308.75046  -1806580.85645  22874910.2734   22874915.1604
      3141.5944       2447.9954
    350759.90146    273318.39946  21774167.6884   21774172.8204
      -458.1874       -357.0294
   2107295.59246   1584750.39546  22611289.3914   22611294.8284
     -2384.0624      -1857.7114
  -2659243.22344  -1946490.56243  24127665.3984   24127672.6564
      3387.7974       2639.8424
      5694.03347      3616.45147  20430003.8444   20430008.6954
        -9.4844         -7.3904
 98  7 10 15 24  0.0000000  0  7G 4G 5G30G 8G 9G10G24
   2037299.06946   1587505.91746  21890578.3834   21890582.6484
     -2276.9844      -1774.2744
  -1208532.22947   -917956.87047  20811015.8594   20811020.0554
      1456.2034       1134.7044
  -2486448.39246  -1843313.02045  22865939.8054   22865944.5744
      3143.5784       2449.5414
    357668.97346    278702.08146  21775482.6954   21775487.5704
      -463.1724       -360.9134
   2143056.81046   1612616.24946  22618094.2114   22618099.9534
     -2384.2194      -1857.8334
  -2710094.18145  -1986114.61643  24117988.6954   24117994.8364
      3392.2664       2643.3244
      5864.88947      3749.59147  20430036.7584   20430041.6214
       -13.2974        -10.3614
 98  7 10 15 24 15.0000000  0  7G 4G 5G30G 8G 9G10G24
   2071452.84546   1614119.24746  21897077.2424   21897081.5314
     -2276.9064      -1774.2134
  -1230366.63247   -934970.68647  20806860.5394   20806864.7464
      1455.0004       1133.7664
  -2533618.89146  -1880069.23545  22856963.8594   22856968.5944
      3145.7974       2451.2704
    364651.82246    284143.24646  21776811.2894   21776816.3054
      -467.8594       -364.5664
   2178820.23246   1640483.82846  22624900.0474   22624905.6954
     -2384.2194      -1857.8334
  -2761013.37545  -2025791.77544  24108298.9144   24108305.3244
      3396.9694       2646.9894
      6087.74547      3923.25647  20430078.5784   20430083.3714
       -16.4064        -12.7844
 98  7 10 15 24 30.0000000  0  7G 4G 5G30G 8G 9G10G24
   2105608.68146   1640734.18246  21903577.1254   21903581.2624
     -2277.2034      -1774.4444
  -1252181.16447   -951969.01347  20802709.3754   20802713.4884
      1453.6414       1132.7074
  -2580819.89046  -1916849.21745  22847981.8054   22847986.6214
      3147.6884       2452.7444
    371705.00946    289639.22146  21778153.5864   21778158.7074
      -472.5164       -368.1944
   2214584.05646   1668351.71246  22631705.6024   22631710.9694
     -2384.2814      -1857.8814
  -2812002.96844  -2065523.85243  24098595.3284   24098601.3754
      3401.5944       2650.5934
      6358.73347      4134.42447  20430130.4064   20430135.1294
       -19.7344        -15.3774
 98  7 10 15 24 45.0000000  0  7G 4G 5G30G 8G 9G10G24
   2139769.03246   1667352.63846  21910077.6644   21910081.9534
     -2277.5474      -1774.7124
  -1273974.56547   -968950.87647  20798562.2894   20798566.1334
      1452.1414       1131.5384
  -2628050.06846  -1953651.93945  22838993.6954   22838998.5944
      3149.6254       2454.2534
    378826.20146    295188.19546  21779508.8134   21779513.9454
      -477.0944       -371.7614
   2250348.52046   1696220.10546  22638511.2424   22638517.0664
     -2384.3754      -1857.9554
  -2863060.78944  -2105309.06144  24088880.0554   24088888.9884
      3406.0634       2654.0754
      6678.31747      4383.45447  20430191.1804   20430196.1374
       -22.8754        -17.8254
 98  7 10 15 25  0.0000000  0  7G 4G 5G30G 8G 9G10G24
   2173936.05546   1693976.29046  21916579.4224   21916583.6414
     -2278.1254      -1775.1624
  -1295745.50147   -985915.23347  20794419.5634   20794423.8284
      1450.6094       1130.3454
  -2675308.79246  -1990476.89845  22830000.8984   22830005.6454
      3151.4844       2455.7024
    386017.50746    300791.79346  21780877.5084   21780882.8524
      -481.7034       -375.3534
   2286115.11046   1724090.13746  22645317.5944   22645323.3244
     -2384.5004      -1858.0524
  -2914184.39744  -2145145.53544  24079151.3594   24079159.2154
      3410.4384       2657.4844
      7043.30147      4667.86747  20430260.7504   20430265.4264
       -25.8124        -20.1144
 98  7 10 15 25 15.0000000  0  7G 4G 5G30G 8G 9G10G24
   2208112.65146   1720607.40046  21923083.2734   21923087.4454
     -2278.7034      -1775.6134
  -1317491.86647  -1002860.44847  20790281.1334   20790285.3984
      1448.9384       1129.0424
  -2722593.82146  -2027322.35845  22821003.2114   22821008.1334
      3153.2814       2457.1024
    393277.62146    306449.01546  21782258.5864   21782263.9064
      -486.2974       -378.9334
   2321884.12546   1751962.06946  22652124.1564   22652129.7584
     -2384.6414      -1858.1624
  -2965374.70144  -2185034.00244  24069409.9064   24069417.9494
      3415.0164       2661.0514
      7452.88647      4987.03347  20430338.6564   20430343.4494
       -28.7504        -22.4034
 98  7 10 15 25 30.0000000  0  7G 4G 5G30G 8G 9G10G24
   2242302.22346   1747248.62146  21929588.9304   21929593.0664
     -2279.9224      -1776.5624
  -1339209.26947  -1019783.09347  20786148.6484   20786152.7624
      1446.7504       1127.3384
  -2769905.06446  -2064188.24545  22812000.1644   22812004.9694
      3154.9534       2458.4054
    400610.49946    312162.93046  21783654.4774   21783659.6914
      -491.3914       -382.9024
   2357657.66146   1779837.51646  22658931.7194   22658937.3444
     -2385.1724      -1858.5754
  -3016629.11044  -2224972.38544  24059656.7584   24059664.4614
      3418.9224       2664.0954
      7908.58147      5342.12747  20430425.1804   20430429.8444
       -32.0164        -24.9474
 98  7 10 15 25 45.0000000  0  7G 4G 5G30G 8G 9G10G24
   2276509.66446   1773903.76946  21936098.5394   21936102.6644
     -2280.8594      -1777.2934
  -1360895.03647  -1036681.08647  20782021.8524   20782026.1294
      1444.8914       1125.8894
  -2817244.00146  -2101075.70945  22802991.3594   22802996.3634
      3157.1094       2460.0854
    408018.44146    317935.33646  21785063.9844   21785069.4224
      -496.1254       -386.5914
   2393437.58846   1807717.96546  22665740.4614   22665745.7814
     -2385.2194      -1858.6124
  -3067943.37444  -2264957.47544  24049891.8134   24049899.2114
      3423.1724       2667.4074
      8412.15147      5734.52447  20430521.3204   20430525.9494
       -34.9224        -27.2124
 98  7 10 15 26  0.0000000  0  7G 4G 5G30G 8G 9G10G24
   2310730.40346   1800569.27146  21942610.5394   21942614.5824
     -2281.7504      -1777.9874
  -1382552.98147  -1053557.40447  20777900.6024   20777904.7734
      1443.0004       1124.4164
  -2864615.25946  -2137988.36145  22793977.0864   22793981.9844
      3159.1564       2461.6804
    415496.78146    323762.60346  21786487.2504   21786492.3244
      -500.8914       -390.3044
   2429217.47546   1835598.36946  22672549.1564   22672555.1094
     -2385.3594      -1858.7224
  -3119319.86044  -2304990.99744  24040114.9844   24040122.1134
      3427.1724       2670.5244
      8960.71647      6161.98847  20430625.5784   20430630.1844
       -38.1254        -29.7084
 98  7 10 15 26 15.0000000  0  8G 4G 5G30G 6G 8G 9G10G24
   2344963.42246   1827244.35246  21949125.0084   21949129.2384
     -2282.6564      -1778.6934
  -1404184.47547  -1070413.10547  20773784.0314   20773788.2624
      1441.1884       1123.0034
  -2912017.12646  -2174924.85945  22784957.0164   22784961.4224
      3161.1254       2463.2144
    -34805.34652                  25094458.3054
      2679.6724
    423047.04646    329645.91346  21787923.9924   21787929.3484
      -505.7814       -394.1154
   2465000.57946   1863481.26646  22679358.4304   22679364.1484
     -2385.7194      -1859.0024
  -3170758.33244  -2345072.81444  24030326.1804   24030334.8094
      3431.3134       2673.7504
      9556.57347      6626.30047  20430738.7274   20430743.3794
       -41.2664        -32.1554
 98  7 10 15 26 30.0000000  0  8G 4G 5G30G 6G 8G 9G10G24
   2379211.58046   1853931.21846  21955642.1334   21955646.4454
     -2283.8914      -1779.6554
  -1425789.19947  -1087247.95147  20769672.8284   20769677.3054
      1439.3914       1121.6034
  -2959449.02246  -2211884.75845  22775931.0554   22775935.2034
      3163.0164       2464.6884
    -75037.28542                  25086801.5234
      2684.4064
    430669.02746    335585.09846  21789374.2114   21789379.5084
      -510.5784       -397.8534
   2500787.88446   1891367.45146  22686168.7344   22686174.3134
     -2386.0314      -1859.2454
  -3222258.57644  -2385202.79044  24020526.5314   24020534.6684
      3435.2814       2676.8434
     10199.30047      7127.13647  20430860.9924   20430865.6214
       -44.6254        -34.7734
 98  7 10 15 26 45.0000000  0  8G 4G 5G30G 6G 8G 9G10G24
   2413476.12546   1880630.86446  21962162.3204   21962166.3164
     -2284.7034      -1780.2884
  -1447369.60347  -1104063.84747  20765566.2344   20765570.5234
      1437.9694       1120.4954
  -3006910.77946  -2248867.93845  22766899.2194   22766903.4964
      3165.2194       2466.4044
   -115338.75343                  25079132.4844
      2689.0944
    438362.48046    341579.98246  21790838.5474   21790843.7974
      -515.3124       -401.5424
   2536580.03646   1919257.42246  22692979.5314   22692985.1454
     -2386.3444      -1859.4894
  -3273819.48244  -2425380.00344  24010714.6254   24010721.8014
      3439.4694       2680.1064
     10893.67547      7668.21347  20430993.2814   20430997.9694
       -47.9374        -37.3544
 98  7 10 15 27  0.0000000  0  8G 4G 5G30G 6G 8G 9G10G24
   2447753.13046   1907340.21046  21968685.1724   21968689.6134
     -2285.5164      -1780.9214
  -1468926.97347  -1120861.78947  20761464.1564   20761468.3284
      1436.4694       1119.3264
  -3054406.03046  -2285877.20846  22757861.2034   22757865.5164
      3167.4534       2468.1454
   -155709.89243                  25071449.4694
      2693.7814
    446130.62546    347633.06946  21792316.7034   21792321.8244
      -520.5164       -405.5974
   2572378.67346   1947152.42146  22699791.9694   22699797.5944
     -2386.7344      -1859.7934
  -3325441.87944  -2465605.21344  24000890.9614   24000897.6524
      3443.5944       2683.3204
     11637.27147      8247.64947  20431134.6724   20431139.3244
       -51.1874        -39.8864
 98  7 10 15 27 15.0000000  0  8G 4G 5G30G 6G 8G 9G10G24
   2482041.90246   1934058.72646  21975209.9774   21975214.2664
     -2286.3444      -1781.5674
  -1490462.84447  -1137642.98347  20757365.8674   20757370.0744
      1434.9224       1118.1214
  -3101933.25146  -2322911.39446  22748817.2344   22748821.5354
      3169.4844       2469.7284
   -196152.36443                  25063754.4304
      2698.4844
    453977.71146    353747.66546  21793809.4694   21793814.8714
      -525.7974       -409.7124
   2608182.52046   1975051.49746  22706605.1094   22706610.4414
     -2387.1874      -1860.1464
  -3377126.56944  -2505878.87443  23991055.9774   23991061.5784
      3447.6884       2686.5104
     12430.24247      8865.55347  20431285.8594   20431290.5474
       -54.6414        -42.5774
 98  7 10 15 27 30.0000000  0  8G 4G 5G30G 6G 8G 9G10G24
   2516342.94746   1960786.80746  21981737.4064   21981741.6024
     -2287.1564      -1782.2004
  -1511973.77947  -1154404.74847  20753272.4144   20753276.7854
      1433.1884       1116.7694
  -3149489.96546  -2359968.55846  22739767.3134   22739771.4384
      3171.4064       2471.2264
   -236663.32743    -27359.36053  25056044.8984   25056051.6254
      2702.8594       2106.1244
    461905.44946    359925.11246  21795318.4224   21795323.8014
      -531.2664       -413.9734
   2643994.54146   2002956.93746  22713420.2734   22713426.1094
     -2387.7504      -1860.5844
  -3428870.98345  -2546199.12044  23981209.3204   23981216.3324
      3451.4694       2689.4564
     13276.97747      9525.35547  20431447.1024   20431451.6954
       -58.2814        -45.4144
 98  7 10 15 27 45.0000000  0  8G 4G 5G30G 6G 8G 9G10G24
   2550653.52346   1987522.31746  21988266.3054   21988270.3484
     -2287.7034      -1782.6264
  -1533463.60647  -1171150.06247  20749183.2194   20749187.5904
      1431.9534       1115.8084
  -3197079.17746  -2397051.04346  22730711.3594   22730716.1884
      3173.6094       2472.9424
   -277239.40543    -58977.06743  25048323.8284   25048333.3484
      2707.0474       2109.3874
    469910.18546    366162.55746  21796841.6954   21796847.2974
      -536.2034       -417.8214
   2679810.27046   2030865.26446  22720235.6564   22720241.0824
     -2387.8284      -1860.6454
  -3480672.47445  -2586563.84144  23971351.7974   23971359.2894
      3455.2504       2692.4034
     14175.22347     10225.29747  20431617.7814   20431622.5274
       -61.7344        -48.1054
 98  7 10 15 28  0.0000000  0  8G 4G 5G30G 6G 8G 9G10G24
   2584973.43846   2014265.10246  21994797.1564   21994801.2234
     -2288.2344      -1783.0404
  -1554930.82547  -1187877.75847  20745098.1954   20745102.5784
      1430.4224       1114.6144
  -3244696.80946  -2434155.67946  22721649.6024   22721654.1844
      3175.4224       2474.3554
   -317874.59344    -90640.75943  25040591.5394   25040598.7504
      2710.9844       2112.4554
    477992.34546    372460.33746  21798380.0554   21798385.5044
      -541.3444       -421.8264
   2715628.00446   2058775.16246  22727051.6334   22727057.3524
     -2387.8284      -1860.6454
  -3532528.42545  -2626971.01343  23961483.3284   23961489.6914
      3458.8444       2695.2034
     15129.48547     10968.88347  20431799.4694   20431804.1214
       -65.4374        -50.9904
 98  7 10 15 28 15.0000000  0  8G 4G 5G30G 6G 8G 9G10G24
   2619303.66946   2041015.92846  22001330.0864   22001334.1524
     -2289.0004      -1783.6364
  -1576373.16947  -1204586.07147  20741017.6724   20741022.0434
      1428.6724       1113.2514
  -3292339.41046  -2471279.77146  22712583.8674   22712588.1214
      3177.0634       2475.6334
   -358566.37344   -122348.58143  25032847.2344   25032856.3324
      2714.6884       2115.3414
    486154.06346    378820.10446  21799932.7344   21799938.0554
      -546.7664       -426.0514
   2751449.12346   2086687.68546  22733867.9454   22733873.5354
     -2388.1874      -1860.9254
  -3584434.83945  -2667417.49344  23951605.9454   23951612.0164
      3462.1564       2697.7844
     16141.26747     11757.28747  20431991.9064   20431996.5824
       -69.2664        -53.9734
 98  7 10 15 28 30.0000000  0  8G 4G 5G30G 6G 8G 9G10G24
   2653642.34446   2067773.33746  22007864.4384   22007868.4804
     -2289.4374      -1783.9774
  -1597791.50547  -1221275.68447  20736942.0634   20736946.3754
      1427.0944       1112.0214
  -3340011.43446  -2508426.78546  22703512.3754   22703516.6054
      3179.2814       2477.3624
   -399316.60044   -154101.97443  25025093.0784   25025100.9454
      2718.7344       2118.4944
    494393.60646    385240.51546  21801500.9774   21801506.4144
      -551.7664       -429.9474
   2787270.63146   2114600.51946  22740684.7344   22740690.4884
     -2387.9224      -1860.7184
  -3636393.94745  -2707904.99844  23941718.6174   23941725.7584
      3465.7344       2700.5724
     17205.49647     12586.56847  20432194.5084   20432199.3014
       -72.6094        -56.5794
 98  7 10 15 28 45.0000000  0  8G 4G 5G30G 6G 8G 9G10G24
   2687986.17046   2094534.75546  22014400.0944   22014404.2664
     -2289.8124      -1784.2694
  -1619185.95947  -1237946.69147  20732870.6094   20732875.0634
      1425.4064       1110.7064
  -3387717.48546  -2545600.31646  22694434.1094   22694438.4344
      3181.4224       2479.0304
   -440126.98944   -185902.25544  25017327.6564   25017335.0314
      2722.5314       2121.4534
    502708.05246    391719.28346  21803082.8834   21803088.1334
      -556.9534       -433.9894
   2823086.07946   2142508.62746  22747500.2114   22747505.6484
     -2387.5624      -1860.4384
  -3688406.38545  -2748434.10344  23931820.5314   23931828.0944
      3469.1254       2703.2144
     18320.33547     13455.28047  20432406.6174   20432411.2464
       -76.1564        -59.3434
 98  7 10 15 29  0.0000000  0  8G 4G 5G30G 6G 8G 9G10G24
   2722337.49546   2121302.01146  22020936.5864   22020940.9924
     -2290.4844      -1784.7934
  -1640551.34647  -1254595.03347  20728805.0004   20728809.4884
      1423.1884       1108.9774
  -3435452.85446  -2582796.69646  22685349.8524   22685354.2464
      3183.1884       2480.4064
   -480990.36044   -217743.76044  25009551.7194   25009559.3754
      2725.8914       2124.0714
    511104.24046    398261.76346  21804680.8444   21804685.9774
      -562.6414       -438.4214
   2858899.32846   2170415.01846  22754315.1094   22754321.0394
     -2387.5784      -1860.4504
  -3740465.71745  -2788999.74945  23921914.6094   23921920.5044
      3472.0004       2705.4554
     19491.28847     14367.71647  20432629.3054   20432633.9104
       -80.0314        -62.3624
 98  7 10 15 29 15.0000000  0  8G 4G 5G30G 6G 8G 9G10G24
   2756700.52446   2148078.39646  22027475.8594   22027480.3594
     -2291.2664      -1785.4024
  -1661883.02947  -1271217.12047  20724745.7274   20724750.1684
      1421.0004       1107.2734
  -3483213.92846  -2620013.10146  22676261.7504   22676266.2274
      3184.8914       2481.7334
   -521904.28644   -249624.73043  25001765.1174   25001773.8164
      2729.2664       2126.7004
    519583.84846    404869.23546  21806294.1334   21806299.1604
      -567.9694       -442.5734
   2894711.07346   2198320.23946  22761129.9774   22761135.4734
     -2387.3444      -1860.2684
  -3792567.66145  -2829598.59644  23911999.8834   23912006.1524
      3474.8754       2707.6954
     20720.76647     15325.76147  20432863.3914   20432868.2074
       -83.9844        -65.4424
 98  7 10 15 29 30.0000000  0  8G 4G 5G30G 6G 8G 9G10G24
   2791075.19546   2174863.84246  22034017.1334   22034021.2464
     -2291.9844      -1785.9624
  -1683179.22147  -1287811.54747  20720693.3444   20720697.7504
      1418.4844       1105.3134
  -3530999.29246  -2657248.44046  22667168.3834   22667172.6724
      3186.5164       2482.9994
   -562868.21844   -281544.65243  24993970.3204   24993977.7894
      2732.6094       2129.3064
    528142.75546    411538.50046  21807923.0864   21807928.3594
      -573.2034       -446.6524
   2930520.25946   2226223.46646  22767944.3284   22767950.2464
     -2387.1564      -1860.1224
  -3844711.47945  -2870230.07044  23902076.9534   23902083.8594
      3477.6724       2709.8744
     22011.06347     16331.19147  20433108.8834   20433113.6414
       -88.0624        -68.6204
 98  7 10 15 29 45.0000000  0  8G 4G 5G30G 6G 8G 9G10G24
   2825460.49046   2201657.57646  22040560.6024   22040564.7854
     -2292.8124      -1786.6074
  -1704436.87447  -1304375.94247  20716648.0554   20716652.5314
      1415.7504       1103.1824
  -3578808.58046  -2694502.41946  22658070.6564   22658074.8524
      3187.9224       2484.0954
   -603882.33543   -313503.63343  24986164.9144   24986172.5474
      2735.8914       2131.8634
    536781.84646    418270.24946  21809567.2894   21809572.5634
      -578.7344       -450.9624
   2966325.07346   2254123.28746  22774757.7194   22774763.3674
     -2386.9064      -1859.9274
  -3896896.05845  -2910893.30444  23892146.5314   23892152.5204
      3480.2034       2711.8474
     23363.02147     17384.67247  20433366.0784   20433371.0004
       -92.2664        -71.8954
 98  7 10 15 30  0.0000000  0  8G 4G 5G30G 6G 8G 9G10G24
   2859859.77146   2228462.20446  22047106.5164   22047110.4304
     -2293.8124      -1787.3864
  -1725651.92847  -1320907.15147  20712610.9614   20712615.3324
      1412.7504       1100.8444
  -3626636.33946  -2731770.79446  22648969.4924   22648973.6644
      3188.9694       2484.9114
   -644946.52643   -345501.64643  24978351.7814   24978359.3794
      2739.3284       2134.5414
    545505.38846    425067.79546  21811227.4774   21811232.7504
      -584.5474       -455.4914
   3002127.32346   2282021.10446  22781570.6954   22781576.6844
     -2386.8124      -1859.8544
  -3949118.93045  -2951586.37044  23882208.7274   23882215.2074
      3482.8284       2713.8924
     24778.87947     18487.94747  20433635.6414   20433640.4804
       -96.5784        -75.2564
 98  7 10 15 30 15.0000000  0  8G 4G 5G30G 6G 8G 9G10G24
   2894274.88846   2255279.17146  22053655.5474   22053659.6844
     -2294.6094      -1788.0074
  -1746819.20247  -1337401.12547  20708583.0554   20708587.2624
      1409.8914       1098.6164
  -3674478.74746  -2769050.58746  22639865.2034   22639869.6454
      3190.2974       2485.9464
   -686062.64844   -377540.14543  24970527.4614   24970535.6564
      2743.0944       2137.4764
    554318.00046    431934.74946  21812904.3674   21812909.2304
      -590.2344       -459.9234
   3037930.50446   2309919.64046  22788383.7814   22788389.5354
     -2386.7194      -1859.7814
  -4001382.27545  -2992310.96944  23872263.0864   23872270.9654
      3485.8914       2716.2784
     26257.58447     19640.19047  20433917.0864   20433921.7384
      -100.2504        -78.1174
 98  7 10 15 30 30.0000000  0  8G 4G 5G30G 6G 8G 9G10G24
   2928701.82046   2282105.35346  22060206.7424   22060210.9964
     -2295.5944      -1788.7744
  -1767943.45947  -1353861.58047  20704562.8444   20704567.0394
      1406.7034       1096.1324
  -3722340.75746  -2806345.64046  22630757.4304   22630761.7774
      3191.3134       2486.7374
   -727233.85043   -409621.58343  24962692.5394   24962700.0204
      2746.4224       2140.0694
    563216.95346    438868.98446  21814597.6254   21814602.6884
      -596.1564       -464.5374
   3073733.32546   2337817.91146  22795196.7274   22795202.5864
     -2386.8914      -1859.9154
  -4053691.51145  -3033071.36344  23862309.3914   23862315.1564
      3488.7504       2718.5064
     27790.95247     20835.02747  20434208.6884   20434213.2584
      -104.2034        -81.1974
 98  7 10 15 30 45.0000000  0  8G 4G 5G30G 6G 8G 9G10G24
   2963142.98846   2308942.62146  22066760.7584   22066764.7304
     -2296.4064      -1789.4074
  -1789019.61947  -1370284.56047  20700552.4534   20700556.8134
      1403.6094       1093.7224
  -3770215.60746  -2843650.69846  22621647.2504   22621651.5164
      3192.1094       2487.3584
   -768454.26143   -441741.33242  24954848.1024   24954855.5354
      2749.7034       2142.6264
    572203.06246    445871.13246  21816307.3674   21816312.3014
      -601.8284       -468.9574
   3109538.81546   2365718.25646  22802010.8054   22802016.4774
     -2387.0474      -1860.0374
  -4106044.27845  -3073865.65444  23852346.4844   23852354.1644
      3491.7504       2720.8444
     29385.82447     22077.78947  20434512.4454   20434517.1684
      -108.2974        -84.3874
 98  7 10 15 31  0.0000000  0  8G 4G 5G30G 6G 8G 9G10G24
   2997600.42646   2335792.56446  22073318.0704   22073321.9844
     -2297.7814      -1790.4794
  -1810047.65947  -1386670.04447  20696550.7734   20696555.2034
      1400.2974       1091.1404
  -3818097.35746  -2880961.14846  22612535.2194   22612539.9774
      3192.2814       2487.4924
   -809720.05642   -473896.41942  24946996.2734   24947004.9024
      2752.5474       2144.8424
    581277.46546    452942.07446  21818034.2814   21818039.5554
      -607.9374       -473.7184
   3145350.10946   2393623.12946  22808825.2504   22808831.0634
     -2387.6254      -1860.4874
  -4158438.88945  -3114692.52344  23842376.2504   23842382.9414
      3494.3754       2722.8904
     31044.90647     23370.58647  20434828.0554   20434832.8364
      -112.7814        -87.8814
 98  7 10 15 31 15.0000000  0  8G 4G 5G30G 6G 8G 9G10G24
   3032076.06446   2362656.69246  22079878.4064   22079882.5434
     -2298.9844      -1791.4164
  -1831028.10947  -1403018.43947  20692558.4064   20692562.8014
      1397.0944       1088.6444
  -3865983.74646  -2918275.20046  22603422.8754   22603427.5164
      3192.5004       2487.6624
   -851032.63042   -506088.04541  24939133.7814   24939138.8324
      2755.8284       2147.3994
    590440.15446    460081.81946  21819778.3444   21819783.5124
      -613.7814       -478.2714
   3181167.27346   2421532.57546  22815641.0634   22815646.7814
     -2388.0004      -1860.7794
  -4210875.48845  -3155552.15944  23832397.8754   23832404.3324
      3497.1724       2725.0694
     32768.78347     24713.87447  20435156.2274   20435161.0314
      -117.0624        -91.2184
 98  7 10 15 31 30.0000000  0  8G 4G 5G30G 6G 8G 9G10G24
   3066568.48446   2389533.89746  22086442.2344   22086446.5234
     -2300.0474      -1792.2444
  -1851961.50447  -1419330.17947  20688575.1954   20688579.5904
      1393.9694       1086.2094
  -3913873.33046  -2955591.74146  22594310.0784   22594314.7074
      3192.7034       2487.8214
   -892395.30642   -538318.65542  24931263.2194   24931268.7624
      2759.1884       2150.0164
    599690.18946    467289.62346  21821538.2814   21821543.5784
      -619.6564       -482.8494
   3216988.87046   2449445.45646  22822457.6024   22822463.4494
     -2388.2664      -1860.9864
  -4263355.55245  -3196445.66444  23822411.1954   23822417.2424
      3500.0634       2727.3214
     34554.71747     26105.51847  20435495.9924   20435500.7974
      -121.1254        -94.3834
 98  7 10 15 31 45.0000000  0  8G 4G 5G30G 6G 8G 9G10G24
   3101077.85846   2416424.31146  22093009.2734   22093013.4574
     -2301.2034      -1793.1454
  -1872846.50247  -1435604.19847  20684600.9144   20684605.2154
      1390.7504       1083.7014
  -3961763.89346  -2992909.05046  22585196.5084   22585200.9264
      3192.7344       2487.8454
   -933808.20242   -570588.36742  24923383.1024   24923391.6254
      2762.6094       2152.6834
    609031.34646    474568.42546  21823315.8204   21823321.1294
      -625.7974       -487.6344
   3252815.63946   2477362.38746  22829275.2894   22829281.2074
     -2388.5944      -1861.2424
  -4315876.89445  -3237371.30544  23812416.5164   23812422.0354
      3502.7664       2729.4284
     36401.77647     27544.78947  20435847.2504   20435852.0204
      -125.1414        -97.5124
 98  7 10 15 32  0.0000000  0  8G 4G 5G30G 6G 8G 9G10G24
   3135603.85146   2443327.67446  22099579.0634   22099583.2234
     -2302.3444      -1794.0344
  -1893684.97447  -1451841.96747  20680635.3754   20680639.7584
      1387.6884       1081.3154
  -4009655.76446  -3030227.38746  22576083.2424   22576087.9534
      3192.7974       2487.8944
   -975273.09442   -602898.62841  24915491.9614   24915497.8324
      2765.9844       2155.3134
    618462.95946    481917.71746  21825110.7814   21825116.1844
      -631.6874       -492.2244
   3288647.22846   2505283.07446  22836094.3594   22836100.1024
     -2389.0624      -1861.6074
  -4368438.64745  -3278328.47844  23802414.2734   23802420.7194
      3505.4694       2731.5344
     38307.29447     29029.61347  20436209.8444   20436214.5314
      -128.9374       -100.4714
 98  7 10 15 32 15.0000000  0  8G 4G 5G30G 6G 8G 9G10G24
   3170152.56146   2470248.74746  22106153.5314   22106157.6564
     -2303.9064      -1795.2524
  -1914472.33647  -1468039.91447  20676679.6804   20676683.9924
      1384.0944       1078.5154
  -4057543.14046  -3067542.20446  22566970.5084   22566975.2194
      3192.3914       2487.5774
  -1016782.49142   -635243.52141  24907592.9304   24907598.2384
      2768.7504       2157.4684
    627987.52646    489339.44346  21826923.2734   21826928.5594
      -638.0784       -497.2044
   3324493.64346   2533215.30346  22842915.3134   22842921.2544
     -2390.3124      -1862.5814
  -4421035.11445  -3319312.65844  23792405.6884   23792411.6994
      3507.5784       2733.1784
     40274.95547     30562.86547  20436584.2114   20436589.0984
      -133.2504       -103.8314
 98  7 10 15 32 30.0000000  0  8G 4G 5G30G 6G 8G 9G10G24
   3204718.21846   2497183.01446  22112731.0634   22112735.2234
     -2304.8444      -1795.9824
  -1935211.49847  -1484200.29847  20672732.9774   20672737.2664
      1381.1414       1076.2134
  -4105431.08646  -3104857.47346  22557857.6484   22557862.1254
      3192.6884       2487.8084
  -1058337.43442   -667623.95542  24899684.3984   24899694.7624
      2771.9844       2159.9884
    637600.88746    496830.36346  21828752.6644   21828758.1024
      -643.7034       -501.5874
   3360354.69246   2561158.93746  22849739.5944   22849745.2664
     -2391.1414      -1863.2264
  -4473666.96445  -3360324.44244  23782390.4774   23782397.3094
      3509.9694       2735.0414
     42302.96747     32143.13647  20436970.4924   20436975.3914
      -137.2194       -106.9244
 98  7 10 15 32 45.0000000  0  8G 4G 5G30G 6G 8G 9G10G24
   3239300.38946   2524130.15246  22119311.8364   22119316.2894
     -2306.0004      -1796.8834
  -1955903.68147  -1500324.07947  20668795.6024   20668800.0784
      1377.9384       1073.7184
  -4153320.83046  -3142174.14346  22548744.6024   22548748.9964
      3192.7344       2487.8454
  -1099941.59842   -700042.79742  24891768.5944   24891775.5234
      2775.3914       2162.6424
    647299.14246    504387.43146  21830597.9384   21830603.3984
      -649.2974       -505.9464
   3396229.70846   2589113.46446  22856566.2034   22856572.2154
     -2392.0784      -1863.9574
  -4526331.21445  -3401361.42844  23772368.4614   23772375.4964
      3511.9844       2736.6114
     44395.95447     33774.03547  20437368.8524   20437373.6914
      -141.7194       -110.4304
 98  7 10 15 33  0.0000000  0  8G 4G 5G30G 6G 8G 9G10G24
   3273902.39846   2551092.74846  22125896.5164   22125900.8984
     -2307.4844      -1798.0404
  -1976547.46947  -1516410.14647  20664867.1884   20664871.5354
      1374.6884       1071.1854
  -4201211.86346  -3179491.81646  22539631.3444   22539636.1374
      3192.8914       2487.9674
  -1141597.44642   -732501.79142  24883840.9064   24883849.7814
      2778.8914       2165.3694
    657082.81546    512011.05646  21832460.0084   21832465.3164
      -655.0944       -510.4634
   3432119.48346   2617079.48445  22863396.0474   22863402.0474
     -2393.0624      -1864.7244
  -4579023.94345  -3442420.66744  23762341.1094   23762347.1094
      3513.8594       2738.0724
     46555.40147     35456.72747  20437779.6564   20437784.5554
      -146.0474       -113.8034
 98  7 10 15 33 15.0000000  0  8G 4G 5G30G 6G 8G 9G10G24
   3308526.32846   2578072.42946  22132485.1564   22132489.3874
     -2308.8914      -1799.1364
  -1997142.61047  -1532458.30647  20660947.9694   20660952.3054
      1371.4064       1068.6284
  -4249107.40746  -3216812.99646  22530516.9454   22530521.6804
      3193.3134       2488.2954
  -1183308.80042   -765004.05042  24875904.0234   24875909.5554
      2782.7504       2168.3774
    666953.99746    519702.86946  21834337.9844   21834343.2344
      -660.9374       -515.0164
   3468022.49746   2645055.82146  22870228.2734   22870234.0514
     -2393.8914      -1865.3694
  -4631744.43445  -3483501.48845  23752308.4844   23752315.0124
      3515.6414       2739.4604
     48780.07947     37190.24447  20438202.7664   20438207.7114
      -150.4694       -117.2484
 98  7 10 15 33 30.0000000  0  8G 4G 5G30G 6G 8G 9G10G24
   3343166.65346   2605064.87946  22139077.2814   22139081.3954
     -2310.1564      -1800.1224
  -2017691.40147  -1548470.34947  20657037.8134   20657042.1604
      1368.0944       1066.0474
  -4297013.27846  -3254142.23546  22521400.9844   22521405.5434
      3193.8444       2488.7094
  -1225082.87642   -797555.33242  24867952.9454   24867960.4144
      2786.7814       2171.5184
    676908.69346    527459.75846  21836232.4534   21836237.6804
      -666.7034       -519.5094
   3503934.91246   2673039.48345  22877062.1174   22877068.0824
     -2394.7664      -1866.0514
  -4684495.09245  -3524605.82644  23742270.1334   23742276.7544
      3517.4384       2740.8604
     51065.81647     38971.34347  20438637.9844   20438642.9184
      -154.5624       -120.4384
 98  7 10 15 33 45.0000000  0  8G 4G 5G30G 6G 8G 9G10G24
   3377828.69546   2632074.25646  22145672.9924   22145677.1644
     -2311.2504      -1800.9744
  -2038187.58847  -1564441.40547  20653137.3984   20653141.5594
      1364.9384       1063.5884
  -4344925.82446  -3291476.68446  22512283.3054   22512287.9574
      3194.6884       2489.3674
  -1266915.74342   -830152.22542  24859993.2274   24860001.8094
      2791.0944       2174.8784
    686951.81546    535285.55146  21838143.8134   21838149.0744
      -672.1874       -523.7824
   3539862.90646   2701035.27645  22883898.6884   22883904.6884
     -2395.4534      -1866.5874
  -4737269.83345  -3565728.92644  23732227.6254   23732234.8834
      3519.4224       2742.4074
     53414.48247     40801.47247  20439084.7114   20439089.4804
      -158.4694       -123.4824
 98  7 10 15 34  0.0000000  0  8G 4G 5G30G 6G 8G 9G10G24
   3412512.18146   2659100.34546  22152273.1804   22152277.3524
     -2312.9694      -1802.3134
  -2058630.98047  -1580371.31947  20649247.0394   20649251.2344
      1361.1094       1060.6054
  -4392845.47646  -3328816.64946  22503164.5004   22503168.9654
      3194.8444       2489.4894
  -1308807.11743   -862794.81042  24852022.7664   24852029.8134
      2794.6564       2177.6544
    697082.08946    543179.25946  21840071.6564   21840076.9064
      -678.2344       -528.4944
   3575807.25046   2729043.81645  22890739.0084   22890744.9264
     -2396.9064      -1867.7194
  -4790070.41945  -3606872.16044  23722180.6024   23722187.1524
      3520.9064       2743.5634
     55827.85347     42682.02647  20439544.0234   20439548.6994
      -163.0944       -127.0864
 98  7 10 15 34 15.0000000  0  8G 4G 5G30G 6G 8G 9G10G24
   3447215.79546   2686142.11246  22158877.0234   22158881.5824
     -2314.2664      -1803.3244
  -2079022.45947  -1596260.77747  20645366.9614   20645371.1094
      1357.6724       1057.9264
  -4440772.75246  -3366162.56646  22494044.2114   22494048.5594
      3195.3594       2489.8904
  -1350756.19143   -895482.39041  24844039.6094   24844047.0904
      2798.4224       2180.5884
    707296.19546    551138.28846  21842015.1094   21842020.1254
      -683.7344       -532.7804
   3611769.58446   2757066.37946  22897582.5164   22897588.3754
     -2398.1094      -1868.6574
  -4842898.81645  -3648037.10045  23712127.0084   23712134.0084
      3522.8594       2745.0854
     58306.99947     44613.83447  20440015.8524   20440020.6334
      -167.5314       -130.5444
 98  7 10 15 34 30.0000000  0  8G 4G 5G30G 6G 8G 9G10G24
   3481939.37746   2713199.44446  22165484.4774   22165489.0474
     -2315.5474      -1804.3224
  -2099361.96447  -1612109.74347  20641496.3204   20641500.3874
      1354.2974       1055.2964
  -4488707.92246  -3403514.63746  22484922.2974   22484926.7504
      3196.0314       2490.4144
  -1392761.92843   -928214.09442  24836045.9844   24836053.0084
      2802.3914       2183.6814
    717593.92846    559162.48146  21843974.9924   21843980.2194
      -689.2814       -537.1024
   3647749.10646   2785102.34245  22904429.3444   22904435.2974
     -2399.0474      -1869.3874
  -4895755.60745  -3689224.13344  23702068.8674   23702075.0204
      3524.7814       2746.5834
     60854.06447     46598.56247  20440500.3594   20440505.0824
      -172.0784       -134.0874
 98  7 10 15 34 45.0000000  0  8G 4G 5G30G 6G 8G 9G10G24
   3516684.44346   2740273.51546  22172096.1174   22172100.4654
     -2317.1724      -1805.5884
  -2119651.62547  -1627919.86847  20637635.4844   20637639.5394
      1350.9694       1052.7034
  -4536651.77446  -3440873.46146  22475799.0084   22475803.4614
      3196.4224       2490.7184
  -1434827.71143   -960992.50542  24828041.4304   24828046.4224
      2806.3134       2186.7374
    727975.95146    567252.35846  21845950.3444   21845955.2544
      -695.0784       -541.6194
   3683740.22346   2813147.31246  22911278.3134   22911283.9734
     -2399.7504      -1869.9354
  -4948641.57245  -3730433.91145  23692004.7274   23692011.1254
      3526.6724       2748.0564
     63470.34347     48637.22847  20440998.4224   20441002.9574
      -176.7504       -137.7274
 98  7 10 15 35  0.0000000  0  8G 4G 5G30G 6G 8G 9G10G24
   3551452.01746   2767365.12246  22178712.4144   22178716.7274
     -2318.5784      -1806.6844
  -2139893.49347  -1643692.74747  20633783.5704   20633787.8244
      1347.8284       1050.2564
  -4584600.98046  -3478236.47046  22466674.5084   22466678.8094
      3196.7194       2490.9504
  -1476952.18843   -993816.77042  24820025.2194   24820032.8634
      2810.1254       2189.7084
    738444.82746    575409.91346  21847942.7194   21847947.8634
      -700.9534       -546.1974
   3719739.98546   2841199.04445  22918128.7814   22918134.5594
     -2400.3124      -1870.3734
  -5001557.38845  -3771666.93444  23681935.4144   23681942.2464
      3528.7034       2749.6394
     66152.68647     50727.36847  20441508.7814   20441513.1644
      -180.9374       -140.9904
 98  7 10 15 35 15.0000000  0  8G 4G 5G30G 6G 8G 9G10G24
   3586240.56446   2794473.07246  22185332.5004   22185337.0354
     -2319.9844      -1807.7804
  -2160087.25147  -1659428.14247  20629940.8444   20629945.1564
      1344.5314       1047.6874
  -4632553.92846  -3515602.38746  22457549.1094   22457553.4454
      3196.8444       2491.0474
  -1519130.35843  -1026682.76942  24811998.9534   24812004.9654
      2813.4694       2192.3134
    749004.11346    583637.90846  21849951.8134   21849957.1914
      -707.0784       -550.9704
   3755748.69146   2869257.74146  22924981.0864   22924986.7704
     -2401.0474      -1870.9464
  -5054504.55045  -3812924.40445  23671859.7894   23671865.9184
      3530.8134       2751.2824
     68897.97547     52866.55947  20442031.1724   20442035.8134
      -185.2664       -144.3634
 98  7 10 15 35 30.0000000  0  8G 4G 5G30G 6G 8G 9G10G24
   3621047.19746   2821595.11246  22191955.8524   22191960.4224
     -2320.9374      -1808.5234
  -2180232.79547  -1675125.96647  20626107.2814   20626111.6994
      1341.5164       1045.3374
  -4680508.46046  -3552969.53946  22448424.1334   22448428.1994
      3197.0164       2491.1814
  -1561358.70143  -1059587.94342  24803963.1564   24803971.0824
      2816.8594       2194.9554
    759654.27946    591936.72346  21851978.5314   21851984.0274
      -712.9534       -555.5484
   3791769.57846   2897325.93345  22931835.6254   22931841.5314
     -2401.7664      -1871.5064
  -5107484.62745  -3854207.51645  23661777.7664   23661784.3634
      3533.2194       2753.1574
     71707.08947     55055.48247  20442565.8284   20442570.4344
      -189.2974       -147.5044
 98  7 10 15 35 45.0000000  0  8G 4G 5G30G 6G 8G 9G10G24
   3655869.65446   2848729.48446  22198582.5004   22198586.9414
     -2321.9224      -1809.2904
  -2200331.70447  -1690787.45047  20622282.4694   20622286.7114
      1338.4844       1042.9754
  -4728461.76446  -3590335.73646  22439299.0164   22439303.1764
      3196.8444       2491.0474
  -1603633.27343  -1092529.12143  24795918.4384   24795926.4224
      2819.8284       2197.2694
    770393.30746    600304.77546  21854022.0004   21854027.2274
      -718.8124       -560.1144
   3827802.92746   2925403.81745  22938692.4384   22938698.1454
     -2402.5474      -1872.1144
  -5160500.47645  -3895518.48845  23651689.3054   23651696.3054
      3535.6564       2755.0574
     74576.56547     57291.43947  20443112.0314   20443116.6844
      -193.2344       -150.5724
 98  7 10 15 36  0.0000000  0  8G 4G 5G30G 6G 8G 9G10G24
   3690706.61946   2875875.16046  22205211.6334   22205216.0634
     -2322.8284      -1809.9964
  -2220385.62847  -1706413.88647  20618466.4774   20618470.6844
      1335.5314       1040.6744
  -4776411.87446  -3627699.44746  22430174.3134   22430178.5554
      3196.6724       2490.9134
  -1645949.70843  -1125502.88543  24787865.8054   24787874.7034
      2822.4534       2199.3144
    781219.58946    608740.81946  21856082.3204   21856087.6294
      -724.5474       -564.5824
   3863847.36946   2953490.35045  22945551.7814   22945557.8054
     -2403.2034      -1872.6264
  -5213553.36745  -3936858.33345  23641593.3914   23641599.7074
      3538.2344       2757.0664
     77508.61747     59576.15947  20443669.6174   20443674.2704
      -197.5784       -153.9574
 98  7 10 15 36 15.0000000  0  8G 4G 5G30G 6G 8G 9G10G24
   3725555.89046   2903030.42646  22211843.3754   22211847.9344
     -2323.7034      -1810.6784
  -2240395.51147  -1722006.00347  20614658.5704   20614662.6374
      1332.5314       1038.3364
  -4824361.19846  -3665062.54946  22421049.5784   22421053.7504
      3196.6414       2490.8894
  -1688305.40143  -1158507.27342  24779806.0634   24779814.1644
      2825.0634       2201.3474
    792131.30346    617243.43446  21858158.9064   21858164.2504
      -730.2664       -569.0384
   3899899.73546   2981583.07445  22952411.8284   22952417.7114
     -2403.6874      -1873.0034
  -5266644.10845  -3978227.67145  23631490.3984   23631496.2344
      3540.5474       2758.8684
     80505.48047     61911.38147  20444240.3134   20444245.0594
      -201.9694       -157.3784
 98  7 10 15 36 30.0000000  0  8G 4G 5G30G 6G 8G 9G10G24
   3760421.99146   2930198.80846  22218478.1334   22218482.4574
     -2324.9224      -1811.6274
  -2260357.98147  -1737561.16947  20610860.0784   20610864.1214
      1329.2504       1035.7794
  -4872307.60746  -3702423.36746  22411925.7034   22411930.1564
      3196.3914       2490.6944
  -1730697.20143  -1191539.77043  24771738.5314   24771748.3674
      2827.3754       2203.1494
    803131.18046    625814.74246  21860252.1024   21860257.6454
      -736.2504       -573.7014
   3935960.54846   3009682.36345  22959274.3364   22959280.1254
     -2404.1874      -1873.3934
  -5319765.86445  -4019621.16545  23621382.1174   23621388.8094
      3542.4694       2760.3654
     83570.80347     64299.95447  20444823.3674   20444828.0314
      -206.5624       -160.9584
 98  7 10 15 36 45.0000000  0  8G 4G 5G30G 6G 8G 9G10G24
   3795303.03546   2957378.83546  22225115.5474   22225119.7894
     -2326.0004      -1812.4684
  -2280273.18047  -1753079.50547  20607070.1254   20607074.2974
      1325.9844       1033.2354
  -4920252.82746  -3739783.26546  22402802.1884   22402806.6644
      3196.1254       2490.4874
  -1773127.59843  -1224602.39342  24763664.0164   24763670.5664
      2829.9064       2205.1224
    814219.48946    634454.96946  21862362.1954   21862367.8794
      -742.2814       -578.4014
   3972024.22146   3037783.88045  22966136.9694   22966142.8634
     -2404.3914      -1873.5514
  -5372918.14545  -4061038.47145  23611267.2814   23611273.4224
      3544.3914       2761.8634
     86701.25247     66739.26647  20445419.1334   20445423.9844
      -210.9694       -164.3914
 98  7 10 15 37  0.0000000  0  8G 4G 5G30G 6G 8G 9G10G24
   3830200.00046   2984571.26246  22231756.3914   22231760.4694
     -2326.8284      -1813.1134
  -2300137.26647  -1768558.01447  20603290.1414   20603294.4304
      1322.5944       1030.5934
  -4968191.04746  -3777137.70246  22393679.6334   22393684.4384
      3195.7664       2490.2074
  -1815593.97543  -1257692.98743  24755583.0554   24755590.3014
      2832.3594       2207.0334
    825399.72846    643166.82446  21864489.9694   21864495.3834
      -748.3124       -583.1014
   4008093.23846   3065889.56445  22973000.6254   22973006.4024
     -2404.7664      -1873.8434
  -5426097.42245  -4102476.79845  23601147.8754   23601154.1334
      3546.2034       2763.2754
     89897.74247     69230.04247  20446027.5004   20446032.2934
      -215.1564       -167.6544
 98  7 10 15 37 15.0000000  0  8G 4G 5G30G 6G 8G 9G10G24
   3865107.61646   3011771.99246  22238398.9224   22238403.0824
     -2327.5944      -1813.7094
  -2319948.59947  -1783995.41547  20599520.1724   20599524.1454
      1318.8134       1027.6464
  -5016125.82146  -3814489.46146  22384558.2894   22384562.9064
      3195.5164       2490.0124
  -1858097.57844  -1290812.58043  24747496.1254   24747502.8524
      2834.7664       2208.9084
    836667.42146    651946.83046  21866633.9924   21866639.4414
      -754.0944       -587.6064
   4044167.36346   3093999.23145  22979865.3524   22979871.4104
     -2405.1724      -1874.1604
  -5479304.15245  -4143936.51945  23591022.4454   23591028.4694
      3547.9534       2764.6394
     93156.88747     71769.64147  20446647.4144   20446652.1024
      -219.5314       -171.0634
 98  7 10 15 37 30.0000000  0  8G 4G 5G30G 6G 8G 9G10G24
   3900026.28546   3038981.33446  22245043.7734   22245047.8984
     -2328.3284      -1814.2824
  -2339703.33747  -1799388.71947  20595760.8594   20595765.0084
      1315.0314       1024.7004
  -5064058.22246  -3851839.36546  22375436.8054   22375441.5164
      3195.3444       2489.8784
  -1900639.72144  -1323962.31143  24739399.1884   24739406.2234
      2837.4694       2211.0154
    848019.37546    660792.49146  21868794.3364   21868799.9384
      -759.5784       -591.8794
   4080246.49746   3122112.79745  22986731.1804   22986737.0164
     -2405.4534      -1874.3794
  -5532536.48645  -4185416.19945  23580892.7584   23580899.7934
      3549.5634       2765.8934
     96483.08547     74361.48847  20447280.3834   20447285.1174
      -224.0784       -174.6064
 98  7 10 15 37 45.0000000  0  8G 4G 5G30G 6G 8G 9G10G24
   3934960.06746   3066202.45346  22251691.4924   22251696.0164
     -2329.3914      -1815.1104
  -2359396.39047  -1814733.95447  20592013.4454   20592017.6644
      1310.8754       1021.4614
  -5111982.98446  -3889183.31946  22366316.9694   22366321.4694
      3194.7814       2489.4404
  -1943219.38244  -1357141.18744  24731297.0084   24731303.8284
      2840.0164       2212.9994
    859458.07546    669705.74346  21870970.8364   21870976.3794
      -765.4064       -596.4204
   4116331.27746   3150230.76645  22993597.5634   22993603.2464
     -2405.6094      -1874.5014
  -5585786.70845  -4226909.80245  23570759.8134   23570766.3054
      3550.5944       2766.6964
     99882.50747     77010.39547  20447927.4694   20447932.1334
      -229.0314       -178.4664
 98  7 10 15 38  0.0000000  0  8G 4G 5G30G 6G 8G 9G10G24
   3969909.83546   3093436.03446  22258342.3754   22258346.9104
     -2330.5314      -1815.9984
  -2379026.82247  -1830030.39747  20588278.0234   20588282.3484
      1306.5164       1018.0644
  -5159901.64746  -3926522.52746  22357198.4774   22357203.1884
      3194.4384       2489.1724
  -1985839.78844  -1390351.85143  24723186.2894   24723194.1564
      2842.7504       2215.1304
    870983.69846    678686.73246  21873164.0704   21873169.7194
      -771.3284       -601.0354
   4152415.57746   3178348.35545  23000464.6254   23000470.4614
     -2405.5944      -1874.4894
  -5639051.08945  -4268414.43945  23560623.8364   23560630.9774
      3551.2664       2767.2204
    103356.65947     79717.52647  20448588.2664   20448593.0234
      -234.1874       -182.4844
 98  7 10 15 38 15.0000000  0  8G 4G 5G30G 6G 8G 9G10G24
   4004875.18346   3120681.74946  22264995.9224   22265000.7384
     -2331.5944      -1816.8264
  -2398592.51447  -1845276.39147  20584554.6334   20584558.8054
      1302.1884       1014.6924
  -5207818.27046  -3963860.14246  22348080.2344   22348084.3954
      3194.3594       2489.1114
  -2028504.17043  -1423596.76043  24715067.7734   24715075.4414
      2845.8754       2217.5654
    882597.24346    687736.22646  21875374.0314   21875379.6564
      -777.2504       -605.6494
   4188497.09946   3206463.78045  23007330.6564   23007336.2344
     -2405.3754      -1874.3184
  -5692326.06545  -4309927.33045  23550485.7584   23550492.6174
      3552.0004       2767.7924
    106905.28947     82482.69947  20449263.5554   20449268.1844
      -238.9224       -186.1734
 98  7 10 15 38 30.0000000  0  8G 4G 5G30G 6G 8G 9G10G24
   4039858.29146   3147941.29846  22271652.7274   22271657.1684
     -2332.6094      -1817.6184
  -2418090.43047  -1860469.57247  20580844.3204   20580848.4804
      1297.7504       1011.2344
  -5255728.82146  -4001193.03246  22338963.1484   22338967.3094
      3193.8444       2488.7094
  -2071216.23244  -1456878.81544  24706939.6024   24706946.7074
      2849.2344       2220.1834
    894302.59246    696857.26046  21877601.5234   21877606.8794
      -783.2974       -610.3614
   4224578.80446   3234579.34745  23014196.9064   23014202.7424
     -2405.3124      -1874.2694
  -5745608.51945  -4351446.08545  23540346.5944   23540352.5004
      3552.5004       2768.1824
    110525.15547     85303.37847  20449952.4454   20449957.3444
      -243.4694       -189.7164
 98  7 10 15 38 45.0000000  0  8G 4G 5G30G 6G 8G 9G10G24
   4074855.63546   3175211.94546  22278312.6644   22278317.2344
     -2333.5784      -1818.3734
  -2437520.80747  -1875610.12347  20577146.9304   20577151.1484
      1292.9844       1007.5204
  -5303629.67646  -4038518.35946  22329847.9384   22329852.1684
      3193.0314       2488.0764
  -2113977.92543  -1490199.57243  24698802.1884   24698808.8204
      2852.3914       2222.6424
    906100.11946    706050.11646  21879846.4844   21879852.1684
      -789.6874       -615.3414
   4260659.46146   3262694.09245  23021062.9144   23021068.8204
     -2405.4374      -1874.3674
  -5798898.60045  -4392970.73745  23530205.6484   23530211.6954
      3552.8914       2768.4864
    114211.46147     88175.82947  20450654.0314   20450659.0234
      -247.9694       -193.2224
 98  7 10 15 39  0.0000000  0  8G 4G 5G30G 6G 8G 9G10G24
   4109866.08946   3202492.80246  22284975.1954   22284979.6374
     -2334.3754      -1818.9944
  -2456880.07747  -1890695.26647  20573463.0004   20573467.0904
      1288.3914       1003.9414
  -5351519.50346  -4075835.09446  22320735.0084   22320739.3674
      3192.4224       2487.6014
  -2156787.96044  -1523557.97143  24690655.6174   24690661.8984
      2855.6884       2225.2114
    917993.16846    715317.40546  21882109.5704   21882115.0084
      -795.9224       -620.1994
   4296743.50246   3290811.48945  23027929.2274   23027934.8874
     -2405.6874      -1874.5624
  -5852195.64745  -4434500.84245  23520063.4614   23520069.4384
      3553.4694       2768.9374
    117964.56047     91100.32546  20451368.2814   20451373.1214
      -252.3444       -196.6314
 98  7 10 15 39 15.0000000  0  8G 4G 5G30G 6G 8G 9G10G24
   4144887.22746   3229781.98646  22291639.4534   22291644.0234
     -2335.0474      -1819.5174
  -2476172.74847  -1905728.51947  20569791.5864   20569795.7584
      1284.0634       1000.5684
  -5399402.97546  -4113146.87946  22311622.5864   22311627.0514
      3192.1884       2487.4194
  -2199647.13443  -1556954.64643  24682500.4844   24682508.8094
      2858.9694       2227.7684
    929978.20146    724656.37246  21884390.4064   21884395.9384
      -801.9694       -624.9114
   4332830.38846   3318931.09645  23034796.6954   23034802.4734
     -2405.7344      -1874.5984
  -5905502.01745  -4476038.21945  23509919.4304   23509925.7344
      3554.1884       2769.4974
    121781.71947     94074.74147  20452094.6644   20452099.3874
      -256.5314       -199.8944
 98  7 10 15 39 30.0000000  0  8G 4G 5G30G 6G 8G 9G10G24
   4179918.45546   3257079.03746  22298305.6954   22298310.1484
     -2336.0164      -1820.2724
  -2495402.80247  -1920712.97247  20566132.3754   20566136.4414
      1279.7194        997.1834
  -5447284.60246  -4150457.22846  22302510.9534   22302515.1954
      3191.7344       2487.0664
  -2242557.24643  -1590391.03643  24674334.1334   24674341.4264
      2862.1254       2230.2274
    942052.78846    734065.12146  21886688.3834   21886693.9144
      -808.2974       -629.8424
   4368915.11846   3347049.02345  23041663.1024   23041669.2074
     -2405.8444      -1874.6834
  -5958820.36345  -4517584.91045  23499773.0394   23499779.5084
      3554.7034       2769.8994
    125661.02947     97097.58646  20452832.7034   20452837.4494
      -260.9374       -203.3284
 98  7 10 15 39 45.0000000  0  8G 4G 5G30G 6G 8G 9G10G24
   4214963.47246   3284386.83346  22304974.5634   22304978.9804
     -2336.5314      -1820.6744
  -2514568.90447  -1935647.59547  20562485.2274   20562489.4224
      1275.9064        994.2134
  -5495158.46146  -4187761.51746  22293401.1484   22293405.6954
      3191.5474       2486.9204
  -2285515.12043  -1623864.61243  24666159.2424   24666166.8404
      2865.6564       2232.9794
    954223.09946    743548.45146  21889004.1414   21889009.3204
      -814.3124       -634.5294
   4405000.07646   3375167.12845  23048529.9614   23048535.7384
     -2405.3754      -1874.3184
  -6012147.72445  -4559138.60145  23489625.6024   23489631.8594
      3555.7664       2770.7264
    129605.21447    100170.97847  20453583.3914   20453588.0554
      -264.8124       -206.3474
 98  7 10 15 40  0.0000000  0  8G 4G 5G30G 6G 8G 9G10G24
   4250015.52546   3311700.10946  22311644.6094   22311648.8754
     -2337.2504      -1821.2344
  -2533679.00547  -1950538.58447  20558848.4614   20558852.6564
      1271.9694        991.1444
  -5543030.84846  -4225064.66046  22284291.3834   22284295.7774
      3191.2814       2486.7134
  -2328524.93343  -1657378.70543  24657974.7274   24657984.5744
      2868.8134       2235.4384
    966484.39046    753102.69046  21891337.6564   21891342.9184
      -820.6254       -639.4484
   4441078.22146   3403279.93645  23055395.7114   23055401.4184
     -2405.2504      -1874.2214
  -6065492.59445  -4600705.99045  23479474.2504   23479480.4384
      3556.7344       2771.4814
    133606.11647    103288.57247  20454344.7584   20454349.3984
      -268.7504       -209.4164
 98  7 10 15 40 15.0000000  0  8G 4G 5G30G 6G 8G 9G10G24
   4285078.79546   3339022.12546  22318316.9144   22318321.0514
     -2337.9694      -1821.7944
  -2552729.78447  -1965383.34847  20555223.3524   20555227.5354
      1268.0314        988.0764
  -5590898.60146  -4262364.18546  22275182.4144   22275186.6214
      3190.8914       2486.4084
  -2371580.52943  -1690928.45442  24649781.9144   24649787.8204
      2871.7974       2237.7644
    978840.21646    762730.59346  21893688.6644   21893693.7624
      -826.9224       -644.3554
   4477157.89546   3431393.91045  23062261.0394   23062266.9104
     -2405.5624      -1874.4644
  -6118851.65345  -4642284.40445  23469320.0864   23469326.7544
      3557.7034       2772.2364
    137664.56447    106451.00047  20455117.2034   20455122.0434
      -272.5164       -212.3504
 98  7 10 15 40 30.0000000  0  8G 4G 5G30G 6G 8G 9G10G24
   4320152.44746   3366352.23546  22324991.6174   22324995.6724
     -2338.4844      -1822.1964
  -2571723.19547  -1980183.40647  20551608.9774   20551613.1484
      1264.4844        985.3134
  -5638758.96346  -4299657.96346  22266074.9534   22266079.1134
      3190.4844       2486.0924
  -2414681.62742  -1724513.64542  24641579.7894   24641586.4574
      2875.0474       2240.2964
    991288.71646    772430.69946  21896057.7814   21896063.0434
      -832.8594       -648.9814
   4513243.40546   3459512.44945  23069128.2274   23069134.1564
     -2405.8284      -1874.6714
  -6172227.43545  -4683875.88545  23459163.0704   23459169.2584
      3559.0474       2773.2834
    141778.55547    109656.71047  20455899.8284   20455904.4574
      -276.0474       -215.1014
 98  7 10 15 40 45.0000000  0  8G 4G 5G30G 6G 8G 9G10G24
   4355230.98146   3393686.14346  22331666.6804   22331671.2154
     -2338.7344      -1822.3904
  -2590666.55747  -1994944.46747  20548004.1334   20548008.1994
      1261.3134        982.8414
  -5686615.32146  -4336948.62046  22256968.0864   22256972.3404
      3190.4064       2486.0314
  -2457831.86743  -1758137.18642  24633369.6334   24633373.8984
      2878.2194       2242.7684
   1003823.40446    782197.97246  21898442.7814   21898448.1134
      -838.4224       -653.3164
   4549330.36746   3487632.10645  23075995.1334   23076000.8754
     -2405.7814      -1874.6354
  -6225623.78145  -4725483.36045  23449001.9534   23449008.2704
      3560.4064       2774.3434
    145946.52447    112904.48346  20456692.9844   20456697.7544
      -279.7344       -217.9754
 98  7 10 15 41  0.0000000  0  8G 4G 5G30G 6G 8G 9G10G24
   4390317.46746   3421026.25446  22338343.4614   22338347.7384
     -2339.4694      -1822.9634
  -2609561.17447  -2009667.54747  20544408.7344   20544412.9414
      1257.9844        980.2484
  -5734470.86346  -4374238.63746  22247861.5394   22247865.5474
      3190.3594       2485.9944
  -2501027.63643  -1791796.16743  24625148.5394   24625156.2304
      2881.2194       2245.1064
   1016441.91946    792030.55946  21900844.0234   21900849.1804
      -844.0164       -657.6754
   4585419.13646   3515753.19345  23082862.9454   23082869.2384
     -2406.0624      -1874.8544
  -6279039.16045  -4767105.67745  23438837.2504   23438843.4024
      3561.6564       2775.3174
    150172.54247    116197.48846  20457497.1804   20457501.8674
      -283.7814       -221.1284
 98  7 10 15 41 15.0000000  0  8G 4G 5G30G 6G 8G 9G10G24
   4425414.62846   3448374.67946  22345022.2034   22345026.5864
     -2340.2664      -1823.5844
  -2628409.40247  -2024354.47647  20540822.0314   20540826.1454
      1255.0164        977.9344
  -5782326.11546  -4411528.43846  22238754.9304   22238758.7384
      3190.2344       2485.8974
  -2544270.00543  -1825491.37742  24616919.7344   24616927.9064
      2884.3134       2247.5164
   1029141.59346    801926.39246  21903260.7114   21903265.9494
      -849.3594       -661.8384
   4621509.94046   3543875.84745  23089730.7114   23089736.3594
     -2406.0474      -1874.8424
  -6332474.35245  -4808743.43845  23428668.7734   23428675.2074
      3562.9534       2776.3274
    154458.74847    119537.39547  20458312.7114   20458317.3634
      -287.8124       -224.2694
 98  7 10 15 41 30.0000000  0  8G 4G 5G30G 6G 8G 9G10G24
   4460524.34946   3475732.89546  22351703.3834   22351707.9654
     -2341.2194      -1824.3264
  -2647211.70147  -2039005.61747  20537244.1094   20537248.2464
      1251.7034        975.3534
  -5830178.34146  -4448815.87246  22229648.8524   22229653.1414
      3189.7974       2485.5564
  -2587558.85942  -1859222.93942  24608680.6094   24608689.3794
      2887.4064       2249.9274
   1041920.85646    811884.23046  21905692.5234   21905698.0434
      -854.7344       -666.0274
   4657598.52346   3571996.77845  23096598.3054   23096604.1884
     -2405.9534      -1874.7694
  -6385929.35545  -4850396.62545  23418496.7344   23418503.2854
      3564.1884       2777.2894
    158805.89447    122924.78346  20459140.2664   20459145.0474
      -292.0314       -227.5574
 98  7 10 15 41 45.0000000  0  8G 4G 5G30G 6G 8G 9G10G24
   4495648.45246   3503102.31246  22358387.5864   22358392.2384
     -2341.9844      -1824.9234
  -2665962.35147  -2053616.51347  20533675.7894   20533680.0904
      1248.3444        972.7354
  -5878020.95146  -4486095.81946  22220544.8204   22220548.8284
      3189.1724       2485.0694
  -2630893.03743  -1892989.74642  24600435.5164   24600440.7544
      2890.5164       2252.3504
   1054781.44646    821905.45246  21908139.9144   21908145.3164
      -859.9534       -670.0934
   4693687.78546   3600118.23745  23103466.0554   23103471.9494
     -2405.9844      -1874.7934
  -6439401.54945  -4892063.22745  23408321.5944   23408328.2154
      3565.4534       2778.2754
    163217.86447    126362.68647  20459979.7974   20459984.6604
      -296.2814       -230.8694
 98  7 10 15 42  0.0000000  0  8G 4G 5G30G 6G 8G 9G10G24
   4530785.97146   3530482.18846  22365073.6094   22365077.9104
     -2342.9064      -1825.6414
  -2684660.47347  -2068186.47547  20530117.9224   20530122.0824
      1244.9064        970.0574
  -5925852.49346  -4523367.13846  22211442.7194   22211447.1954
      3188.5164       2484.5584
  -2674271.91643  -1926791.44242  24592181.6884   24592188.0744
      2893.4534       2254.6394
   1067719.62746    831987.14046  21910602.1094   21910607.4184
      -865.0314       -674.0504
   4729779.26046   3628241.41345  23110333.9384   23110339.8204
     -2406.1414      -1874.9154
  -6492890.69545  -4933743.00945  23398142.4614   23398148.5904
      3566.5314       2779.1154
    167695.60147    129851.83346  20460831.8754   20460836.2344
      -300.5784       -234.2174
 98  7 10 15 42 15.0000000  0  8G 4G 5G30G 6G 8G 9G10G24
   4565939.63246   3557874.64246  22371762.9924   22371767.3634
     -2344.3594      -1826.7744
  -2703305.36147  -2082714.96247  20526569.7734   20526573.8404
      1240.9694        966.9894
  -5973673.04446  -4560629.88746  22202342.7894   22202347.0434
      3187.4534       2483.7304
  -2717693.92743  -1960626.67142  24583918.5084   24583924.7894
      2896.0784       2256.6844
   1080734.81546    842128.82046  21913078.6484   21913084.2734
      -870.3594       -678.2024
   4765875.82346   3656368.55145  23117202.5944   23117208.5474
     -2406.7974      -1875.4264
  -6546392.96145  -4975433.06645  23387961.2114   23387967.2704
      3567.0474       2779.5174
    172237.76547    133391.18846  20461696.1414   20461700.8984
      -305.0944       -237.7354
 98  7 10 15 42 30.0000000  0  8G 4G 5G30G 6G 8G 9G10G24
   4601114.94846   3585283.96646  22378457.2664   22378461.7894
     -2345.8124      -1827.9064
  -2721891.30247  -2097197.51647  20523033.0314   20523037.0634
      1236.9844        963.8844
  -6021477.72246  -4597880.27846  22193245.8754   22193250.1764
      3186.3444       2482.8654
  -2761155.35243  -1994492.67543  24575648.3524   24575655.1604
      2898.6414       2258.6814
   1093828.98046    852332.03946  21915570.4534   21915576.1844
      -875.7344       -682.3904
   4801980.98446   3684502.40445  23124073.4304   23124079.5824
     -2407.3444      -1875.8524
  -6599904.74645  -5017130.48645  23377778.4304   23377785.3364
      3567.7194       2780.0414
    176847.33047    136983.05946  20462573.0944   20462577.7344
      -309.7034       -241.3274
 98  7 10 15 42 45.0000000  0  8G 4G 5G30G 6G 8G 9G10G24
   4636310.31546   3612708.92446  22385154.6024   22385158.9264
     -2347.0944      -1828.9044
  -2740418.64647  -2111634.40547  20519507.5704   20519511.6024
      1233.1094        960.8644
  -6069268.10346  -4635119.52646  22184151.3834   22184155.4614
      3185.4844       2482.1964
  -2804656.78243  -2028389.84943  24567369.7114   24567376.4494
      2901.3284       2260.7754
   1107002.32146    862596.95946  21918077.4144   21918082.8284
      -880.9224       -686.4334
   4838090.26446   3712639.45745  23130944.7894   23130950.7074
     -2407.3754      -1875.8774
  -6653427.78745  -5058836.72845  23367593.2504   23367598.8874
      3568.4844       2780.6374
    181525.02247    140628.01747  20463463.3284   20463467.8634
      -314.2504       -244.8704
 98  7 10 15 43  0.0000000  0  8G 4G 5G30G 6G 8G 9G10G24
   4671526.02446   3640149.72546  22391855.5474   22391859.6604
     -2348.3124      -1829.8544
  -2758884.73147  -2126023.56247  20515993.6024   20515997.6564
      1229.0004        957.6624
  -6117043.48846  -4672347.07846  22175060.2114   22175064.8404
      3184.5944       2481.5024
  -2848196.16743  -2062316.54743  24559084.5474   24559093.2344
      2903.9694       2262.8334
   1120255.26246    872923.91346  21920599.4534   21920605.0554
      -886.1254       -690.4874
   4874199.76546   3740776.69145  23137816.4064   23137822.5004
     -2407.2344      -1875.7674
  -6706961.60745  -5100551.35745  23357405.9924   23357411.5474
      3569.3754       2781.3314
    186273.25647    144327.94046  20464366.9774   20464371.8054
      -318.7664       -248.3894
 98  7 10 15 43 15.0000000  0  8G 4G 5G30G 6G 8G 9G10G24
   4706760.45546   3667605.11746  22398560.5554   22398564.5044
     -2349.6564      -1830.9014
  -2777284.94347  -2140361.38547  20512492.1174   20512496.3014
      1224.2504        953.9614
  -6164803.38046  -4709562.56946  22165971.9144   22165976.4964
      3183.2504       2480.4554
  -2891773.98943  -2096273.21443  24550792.2114   24550798.8204
      2906.2664       2264.6234
   1133589.55446    883314.24846  21923136.8984   21923142.4534
      -891.9064       -694.9924
   4910309.19246   3768913.86345  23144687.8834   23144693.8364
     -2407.4374      -1875.9254
  -6760507.74645  -5142275.56245  23347216.4454   23347222.8324
      3570.0164       2781.8304
    191089.07447    148080.52946  20465283.3984   20465288.1334
      -323.4534       -252.0414
 98  7 10 15 43 30.0000000  0  8G 4G 5G30G 6G 8G 9G10G24
   4742012.46046   3695074.19646  22405268.7894   22405273.3594
     -2350.6564      -1831.6804
  -2795615.12247  -2154644.64847  20509003.9224   20509008.1414
      1219.6724        950.3944
  -6212543.32046  -4746762.51146  22156887.3524   22156891.8874
      3182.0634       2479.5294
  -2935386.99443  -2130257.34342  24542492.6724   24542499.1174
      2908.7504       2266.5584
   1147009.57646    893771.39346  21925690.3364   21925695.9844
      -897.4534       -699.3144
   4946418.71346   3797051.10945  23151559.1334   23151564.8284
     -2407.2194      -1875.7554
  -6814064.48745  -5184008.03845  23337025.3984   23337030.8364
      3570.8594       2782.4884
    195973.38747    151886.48946  20466212.6414   20466217.3054
      -327.8444       -255.4634
 98  7 10 15 43 45.0000000  0  8G 4G 5G30G 6G 8G 9G10G24
   4777279.24646   3722554.79046  22411979.9844   22411984.4734
     -2351.6564      -1832.4594
  -2813873.83447  -2168872.21147  20505529.3444   20505533.5514
      1214.7664        946.5714
  -6260265.29346  -4783948.45046  22147805.8834   22147810.1724
      3180.7664       2478.5194
  -2979036.15943  -2164269.61842  24534185.7504   24534190.2854
      2911.0164       2268.3244
   1160513.90746    904294.23346  21928260.3674   21928265.5824
      -903.2194       -703.8074
   4982527.84246   3825188.04145  23158430.3914   23158436.1684
     -2407.5004      -1875.9744
  -6867632.76045  -5225749.52445  23326831.1414   23326837.2814
      3571.4384       2782.9384
    200923.89447    155744.02746  20467155.0944   20467159.8984
      -332.2974       -258.9334
 98  7 10 15 44  0.0000000  0  8G 4G 5G30G 6G 8G 9G10G24
   4812559.74546   3750046.07246  22418693.8754   22418698.2814
     -2352.3124      -1832.9714
  -2832059.78747  -2183043.08247  20502068.8054   20502073.0824
      1210.1254        942.9554
  -6307968.46946  -4821119.74746  22138728.6564   22138732.9924
      3179.7814       2477.7524
  -3022718.33144  -2198307.66743  24525873.4844   24525879.6254
      2913.4064       2270.1874
   1174104.75246    914884.47746  21930846.4384   21930851.7934
      -908.7974       -708.1534
   5018642.32245   3853329.14545  23165302.8524   23165308.8874
     -2407.6094      -1876.0594
  -6921207.87145  -5267496.30345  23316636.5394   23316642.6684
      3572.0004       2783.3774
    205940.25847    159652.88046  20468109.6174   20468114.1994
      -336.4064       -262.1354
 98  7 10 15 44 15.0000000  0  8G 4G 5G30G 6G 8G 9G10G24
   4847851.97446   3777546.50446  22425409.4384   22425414.0784
     -2353.2504      -1833.7014
  -2850174.53647  -2197158.47047  20498621.4844   20498625.5044
      1205.2194        939.1314
  -6355656.23946  -4858279.03446  22129653.8674   22129658.0984
      3178.5944       2476.8264
  -3066435.22244  -2232372.67442  24517554.6334   24517561.1374
      2915.5634       2271.8674
   1187781.52346    925541.69346  21933449.4844   21933454.5124
      -914.7814       -712.8174
   5054758.33245   3881471.43945  23172175.5234   23172181.5354
     -2407.8284      -1876.2304
  -6974790.05145  -5309248.61945  23306440.1804   23306446.4384
      3572.3444       2783.6444
    211018.92747    163610.28846  20469075.6564   20469080.3324
      -340.6724       -265.4594
 98  7 10 15 44 30.0000000  0  8G 4G 5G30G 6G 8G 9G10G24
   4883154.95946   3805055.30846  22432127.5314   22432131.8554
     -2353.9694      -1834.2614
  -2868216.70347  -2211217.30347  20495188.2814   20495192.4414
      1200.2194        935.2354
  -6403327.15446  -4895425.19146  22120582.3134   22120586.4734
      3177.3754       2475.8774
  -3110186.66243  -2266464.66943  24509229.4924   24509236.4574
      2917.7344       2273.5594
   1201546.04146    936267.27246  21936068.4844   21936073.6054
      -920.7034       -717.4314
   5090875.23445   3909614.43445  23179048.4694   23179054.7274
     -2407.9534      -1876.3274
  -7028379.42845  -5351006.53045  23296242.5164   23296248.6454
      3572.7504       2783.9614
    216160.58147    167616.77346  20470054.1334   20470058.7034
      -345.1724       -268.9654
 98  7 10 15 44 45.0000000  0  8G 4G 5G30G 6G 8G 9G10G24
   4918467.84746   3832571.83246  22438847.0864   22438851.5164
     -2354.1874      -1834.4324
  -2886182.40347  -2225216.55347  20491769.6724   20491773.8094
      1195.3754        931.4614
  -6450978.46546  -4932556.07346  22111514.6094   22111518.5824
      3176.2814       2475.0244
  -3153969.80143  -2300581.33743  24500897.2814   24500904.4924
      2920.2194       2275.4954
   1215401.58046    947063.77746  21938705.1724   21938710.7624
      -926.5314       -721.9724
   5126995.52546   3937760.06845  23185922.0704   23185927.9884
     -2407.8594      -1876.2544
  -7081973.32145  -5392767.96945  23286043.6024   23286050.0704
      3573.2664       2784.3634
    221372.90147    171678.32446  20471046.2974   20471050.8674
      -349.6564       -272.4594
 98  7 10 15 45  0.0000000  0  8G 4G 5G30G 6G 8G 9G10G24
   4953785.90646   3860092.38346  22445567.8364   22445572.3594
     -2354.5784      -1834.7364
  -2904073.09747  -2239157.35247  20488365.1094   20488368.9654
      1190.3134        927.5164
  -6498610.39046  -4969671.84746  22102450.4384   22102454.8094
      3174.9384       2473.9774
  -3197788.28144  -2334725.58343  24492559.7424   24492567.5274
      2922.5314       2277.2974
   1229344.98846    957928.74946  21941358.3674   21941363.9104
      -932.3124       -726.4774
   5163115.32346   3965905.31345  23192795.2664   23192801.1374
     -2407.8594      -1876.2544
  -7135571.92245  -5434533.07145  23275844.2504   23275850.3444
      3573.5314       2784.5704
    226653.64247    175793.19146  20472051.1884   20472055.6884
      -354.1724       -275.9784
 98  7 10 15 45 15.0000000  0  8G 4G 5G30G 6G 8G 9G10G24
   4989107.42746   3887615.63746  22452289.6334   22452293.9574
     -2355.1414      -1835.1754
  -2921889.36247  -2253040.15847  20484974.7584   20484978.8594
      1185.0944        923.4504
  -6546224.79146  -5006773.96346  22093389.7814   22093393.7664
      3173.5314       2472.8814
  -3241643.46244  -2368898.41643  24484213.5004   24484221.3794
      2924.7034       2278.9894
   1243373.34046    968859.91446  21944027.9224   21944033.6884
      -938.2664       -731.1164
   5199235.58946   3994050.94245  23199669.1334   23199674.6994
     -2408.2974      -1876.5954
  -7189175.96045  -5476302.39445  23265643.9304   23265650.1764
      3573.5164       2784.5584
    231999.15647    179958.52946  20473068.3984   20473072.9344
      -358.6724       -279.4854
 98  7 10 15 45 30.0000000  0  8G 4G 5G30G 6G 8G 9G10G24
   5024438.59146   3915146.39746  22459012.9614   22459017.6134
     -2355.8124      -1835.6984
  -2939628.21447  -2266862.64147  20481599.3134   20481603.3444
      1180.0474        919.5174
  -6593817.18846  -5043858.93346  22084333.1484   22084337.5084
      3172.0164       2471.7004
  -3285530.87544  -2403096.33543  24475862.3054   24475868.7384
      2926.8754       2280.6824
   1257490.85946    979860.55746  21946714.6484   21946720.5554
      -944.1094       -735.6704
   5235362.42845   4022201.67945  23206543.5704   23206549.3484
     -2408.7034      -1876.9124
  -7242779.63245  -5518071.46945  23255443.4064   23255449.8984
      3573.5314       2784.5704
    237411.75447    184176.14646  20474098.2584   20474102.9574
      -363.1414       -282.9674
 98  7 10 15 45 45.0000000  0  8G 4G 5G30G 6G 8G 9G10G24
   5059782.31246   3942686.94546  22465738.5704   22465743.2814
     -2356.7504      -1836.4294
  -2957291.49647  -2280626.23647  20478237.9534   20478241.9384
      1174.9844        915.5724
  -6641385.63146  -5080925.23846  22075281.0864   22075285.3524
      3170.3754       2470.4224
  -3329450.58344  -2437319.44743  24467504.5004   24467511.2974
      2929.0004       2282.3384
   1271695.28846    990928.92746  21949417.7894   21949423.6954
      -949.9064       -740.1874
   5271496.41945   4050357.97445  23213419.7974   23213425.7384
     -2409.2664      -1877.3504
  -7296381.32545  -5559838.97345  23245243.1804   23245249.3324
      3573.3134       2784.3994
    242892.34847    188446.74346  20475141.3754   20475146.0274
      -367.6724       -286.4984
 98  7 10 15 46  0.0000000  0  8G 4G 5G30G 6G 8G 9G10G24
   5095139.57146   3970238.04646  22472466.9924   22472471.5164
     -2357.6094      -1837.0984
  -2974878.12647  -2294330.10047  20474891.1414   20474895.1844
      1169.9224        911.6274
  -6688928.75046  -5117971.81446  22066234.2114   22066238.3364
      3168.6884       2469.1074
  -3373401.04644  -2471566.49944  24459141.3204   24459148.2504
      2931.0314       2283.9204
   1285987.93946   1002066.02546  21952137.6884   21952143.5124
      -955.7814       -744.7654
   5307639.81845   4078521.61745  23220297.5864   23220303.4804
     -2409.8124      -1877.7764
  -7349979.44345  -5601603.68945  23235043.6884   23235049.7814
      3573.0944       2784.2294
    248441.10547    192770.45546  20476197.1644   20476201.9694
      -372.1874       -290.0164
 98  7 10 15 46 15.0000000  0  8G 4G 5G30G 6G 8G 9G10G24
   5130509.97446   3997799.37846  22479197.6724   22479202.2074
     -2358.4844      -1837.7804
  -2992391.03747  -2307976.52447  20471558.8134   20471562.6454
      1165.0784        907.8534
  -6736448.37346  -5155000.07446  22057191.3754   22057195.5944
      3167.1724       2467.9264
  -3417384.52944  -2505839.29344  24450770.9534   24450778.9964
      2933.4064       2285.7714
   1300367.11246   1013270.55546  21954873.6334   21954879.0004
      -961.4844       -749.2094
   5343787.30645   4106688.43745  23227176.4694   23227182.4574
     -2409.8914      -1877.8374
  -7403576.05345  -5643367.25845  23224844.3984   23224850.1994
      3573.0784       2784.2174
    254057.59847    197146.94146  20477266.1174   20477270.9454
      -376.7194       -293.5474
 98  7 10 15 46 30.0000000  0  8G 4G 5G30G 6G 8G 9G10G24
   5165893.29046   4025370.78346  22485931.0944   22485935.5944
     -2359.1724      -1838.3164
  -3009832.12547  -2321566.98247  20468239.9384   20468243.9344
      1160.4534        904.2494
  -6783944.29046  -5192009.87046  22048153.1484   22048157.3204
      3165.6724       2466.7574
  -3461403.61345  -2540139.81843  24442394.9844   24442401.0784
      2935.9064       2287.7194
   1314831.86246   1024541.77346  21957626.1414   21957631.4734
      -967.1094       -753.5924
   5379935.90145   4134856.12245  23234055.0004   23234061.3404
     -2409.8754      -1877.8254
  -7457172.57845  -5685130.75145  23214645.6884   23214651.6414
      3573.1564       2784.2784
    259742.10947    201576.43846  20478347.6804   20478352.3204
      -381.1414       -296.9934
 98  7 10 15 46 45.0000000  0  8G 4G 5G30G 6G 8G 9G10G24
   5201289.62646   4052952.32946  22492666.6024   22492671.1484
     -2360.1254      -1839.0584
  -3027200.91047  -2335101.10247  20464934.6724   20464938.7504
      1155.5634        900.4384
  -6831416.00846  -5229000.81446  22039119.6254   22039123.8674
      3164.1254       2465.5524
  -3505458.14544  -2574468.00543  24434011.1644   24434017.7974
      2938.2504       2289.5454
   1329383.09346   1035880.36546  21960395.3674   21960400.8054
      -972.8754       -758.0844
   5416086.97146   4163025.73745  23240934.8444   23240940.5864
     -2410.0624      -1877.9714
  -7510766.03645  -5726891.84545  23204447.1334   23204453.2274
      3572.8754       2784.0584
    265496.29047    206060.21946  20479442.7664   20479447.5704
      -385.8594       -300.6704
 98  7 10 15 47  0.0000000  0  8G 4G 5G30G 6G 8G 9G10G24
   5236699.73546   4080544.60346  22499405.0554   22499409.3444
     -2361.3914      -1840.0454
  -3044497.51347  -2348578.97247  20461643.2344   20461647.4414
      1150.5314        896.5184
  -6878864.31446  -5265973.50846  22030090.3674   22030094.7504
      3162.1884       2464.0424
  -3549550.58644  -2608825.70743  24425620.6094   24425626.9264
      2940.5634       2291.3474
   1344020.59346   1047286.19546  21963180.7194   21963186.4844
      -978.9064       -762.7844
   5452239.30446   4191196.33945  23247814.0234   23247820.0474
     -2410.3914      -1878.2264
  -7564356.00145  -5768650.22345  23194248.8834   23194255.6914
      3572.3594       2783.6574
    271318.41447    210596.94146  20480550.6254   20480555.3834
      -390.5164       -304.2984
 98  7 10 15 47 15.0000000  0  8G 4G 5G30G 6G 8G 9G10G24
   5272131.40646   4108153.68746  22506147.3914   22506151.9494
     -2362.7034      -1841.0674
  -3061719.23747  -2361998.49647  20458366.2974   20458370.2814
      1145.8284        892.8534
  -6926283.51046  -5302923.52146  22021066.7974   22021071.2624
      3160.5164       2462.7394
  -3593676.23544  -2643209.28943  24417223.8674   24417230.3244
      2943.0004       2293.2474
   1358750.41146   1058763.95046  21965983.8524   21965989.6414
      -984.9694       -767.5084
   5488398.62646   4219372.39445  23254695.0784   23254701.0664
     -2410.7504      -1878.5064
  -7617937.29645  -5810401.85045  23184052.3754   23184058.4104
      3571.8594       2783.2674
    277210.16847    215187.92346  20481671.6954   20481676.7344
      -394.9374       -307.7444
 98  7 10 15 47 30.0000000  0  8G 4G 5G30G 6G 8G 9G10G24
   5307581.17446   4135776.86946  22512893.0164   22512897.5164
     -2363.8594      -1841.9684
  -3078872.60947  -2375364.76047  20455101.9304   20455106.0904
      1141.3134        889.3344
  -6973678.62346  -5339854.76246  22012047.8204   22012052.3794
      3158.8914       2461.4734
  -3637839.82645  -2677622.45844  24408820.0474   24408827.1414
      2945.6094       2295.2804
   1373570.19946   1070311.81646  21968803.6724   21968809.4494
      -990.9224       -772.1474
   5524561.87046   4247551.49445  23261576.7194   23261582.4614
     -2410.9224      -1878.6404
  -7671510.81845  -5852147.39645  23173858.1254   23173864.5474
      3571.3134       2782.8414
    283167.69247    219830.15146  20482805.1954   20482809.9534
      -399.3754       -311.2014
 98  7 10 15 47 45.0000000  0  8G 4G 5G30G 6G 8G 9G10G24
   5343047.77346   4163413.16346  22519642.3754   22519646.7814
     -2364.8914      -1842.7724
  -3095956.32047  -2388676.74147  20451850.9144   20451855.1684
      1136.6254        885.6824
  -7021047.65146  -5376765.68246  22003034.0784   22003038.3444
      3157.1414       2460.1104
  -3682042.33644  -2712065.92643  24400408.5554   24400416.3404
      2948.1884       2297.2894
   1388479.55046   1081929.47946  21971641.1024   21971646.7624
      -996.8914       -776.7984
   5560727.32646   4275732.31645  23268458.8984   23268465.1914
     -2411.0314      -1878.7264
  -7725074.89845  -5893885.58745  23163664.9534   23163671.1994
      3570.6724       2782.3424
    289194.39147    224526.28246  20483952.0634   20483957.0204
      -404.1094       -314.8904
 98  7 10 15 48  0.0000000  0  8G 4G 5G30G 6G 8G 9G10G24
   5378526.23846   4191058.70346  22526393.6254   22526398.3364
     -2365.5474      -1843.2834
  -3112973.19947  -2401936.64747  20448612.7814   20448617.1524
      1132.3134        882.3214
  -7068394.93446  -5413659.65446  21994024.1094   21994028.6214
      3155.8444       2459.0994
  -3726288.21544  -2746543.22043  24391988.4144   24391995.8954
      2951.2974       2299.7124
   1403476.28646   1093615.22446  21974495.2504   21974500.5124
     -1002.6414       -781.2784
   5596891.93846   4303912.49845  23275340.9384   23275347.3484
     -2410.8754      -1878.6044
  -7778631.89545  -5935618.28545  23153473.7114   23153479.9104
      3570.2974       2782.0504
    295289.18947    229275.47746  20485112.0004   20485116.7464
      -408.5164       -318.3244
 98  7 10 15 48 15.0000000  0  8G 4G 5G30G 6G 8G 9G10G24
   5414017.49146   4218714.20846  22533147.4144   22533151.9614
     -2366.6414      -1844.1364
  -3129921.37747  -2415143.02347  20445387.5394   20445391.8634
      1127.4224        878.5114
  -7115719.71146  -5450536.08946  21985018.2194   21985022.9654
      3154.0784       2457.7234
  -3770578.73244  -2781055.24243  24383559.7114   24383568.3634
      2954.1094       2301.9034
   1418561.87846   1105370.21246  21977365.7114   21977370.8674
     -1008.8444       -786.1124
   5633056.34845   4332092.51245  23282222.7034   23282228.5274
     -2411.0624      -1878.7504
  -7832179.00245  -5977343.24145  23143283.9924   23143289.8984
      3569.2504       2781.2344
    301454.51447    234079.63246  20486285.4614   20486290.1954
      -413.5474       -322.2444
 98  7 10 15 48 30.0000000  0  8G 4G 5G30G 6G 8G 9G10G24
   5449525.34546   4246382.64146  22539904.2584   22539909.2154
     -2367.5474      -1844.8424
  -3146795.85947  -2428291.96947  20442176.8054   20442181.1644
      1122.6564        874.7974
  -7163015.67746  -5487390.07846  21976018.2424   21976022.9884
      3152.2034       2456.2624
  -3814910.93244  -2815599.80643  24375124.2894   24375130.4064
      2956.9694       2304.1314
   1433741.89346   1117198.77246  21980254.2274   21980259.5594
     -1014.9844       -790.8974
   5669224.35645   4360275.32845  23289105.5944   23289111.7814
     -2411.2034      -1878.8604
  -7885708.60845  -6019054.59845  23133097.1644   23133103.2114
      3568.2034       2780.4184
    307696.50347    238943.52346  20487473.0234   20487477.6414
      -418.5004       -326.1044
 98  7 10 15 48 45.0000000  0  8G 4G 5G30G 6G 8G 9G10G24
   5485045.59646   4274060.74346  22546663.8364   22546668.8634
     -2368.5944      -1845.6574
  -3163598.92747  -2441385.27047  20438979.2814   20438983.7344
      1117.6564        870.9014
  -7210284.89646  -5524223.22346  21967023.1024   21967027.5434
      3150.2814       2454.7654
  -3859285.68444  -2850177.51243  24366679.9614   24366685.6684
      2959.5944       2306.1774
   1449013.10246   1129098.39346  21983160.3204   21983165.6294
     -1021.2664       -795.7914
   5705393.59845   4388459.08945  23295988.2734   23295994.2154
     -2411.4534      -1879.0544
  -7939224.59445  -6060755.31145  23122913.7344   23122920.3094
      3567.2344       2779.6634
    314011.06347    243863.96546  20488674.6884   20488679.4454
      -423.4844       -329.9884
 98  7 10 15 49  0.0000000  0  8G 4G 5G30G 6G 8G 9G10G24
   5520580.25646   4301750.06946  22553425.6884   22553430.6914
     -2369.4694      -1846.3394
  -3180329.27547  -2454421.90547  20435795.4844   20435799.7854
      1112.9384        867.2244
  -7257527.56546  -5561035.68646  21958033.4144   21958037.5514
      3148.5784       2453.4384
  -3903701.87344  -2884787.45244  24358228.4454   24358235.2424
      2962.4534       2308.4054
   1464374.75346   1141068.48446  21986083.6094   21986089.0474
     -1027.1414       -800.3694
   5741565.22045   4416644.71945  23302871.3834   23302877.6994
     -2411.5314      -1879.1154
  -7992729.94645  -6102447.72945  23112731.9064   23112738.0824
      3566.7034       2779.2494
    320397.69147    248840.56146  20489890.0554   20489894.8594
      -428.1724       -333.6404
 98  7 10 15 49 15.0000000  0  8G 4G 5G30G 6G 8G 9G10G24
   5556132.84546   4329453.37246  22560191.2344   22560195.5594
     -2370.7664      -1847.3504
  -3196984.23247  -2467399.79647  20432625.9924   20432630.2934
      1107.7814        863.2064
  -7304737.46746  -5597822.60846  21949049.5234   21949053.6604
      3146.2034       2451.5874
  -3948155.60844  -2919426.72143  24349768.3284   24349774.2704
      2964.7344       2310.1834
   1479829.68646   1153111.27746  21989024.7114   21989030.5944
     -1033.5004       -805.3254
   5777741.98745   4444834.36445  23309755.3594   23309760.9964
     -2411.9694      -1879.4564
  -8046220.63545  -6144128.76545  23102553.0784   23102558.9024
      3565.4694       2778.2874
    326857.57247    253874.23346  20491119.2894   20491124.2344
      -433.0944       -337.4764
 98  7 10 15 49 30.0000000  0  8G 4G 5G30G 6G 8G 9G10G24
   5591701.98846   4357169.57246  22566959.9454   22566964.2704
     -2371.9224      -1848.2514
  -3213562.47047  -2480317.90647  20429471.3754   20429475.4774
      1102.4224        859.0304
  -7351914.75446  -5634584.12546  21940071.8834   21940076.3594
      3143.8754       2449.7734
  -3992645.26644  -2954093.90443  24341301.8364   24341308.8594
      2967.0474       2311.9854
   1495378.31746   1165227.06546  21991983.3134   21991989.1484
     -1039.8124       -810.2444
   5813922.74545   4473027.10945  23316640.3134   23316646.2074
     -2412.2664      -1879.6874
  -8099693.94845  -6185796.21945  23092377.2344   23092383.2114
      3564.1254       2777.2404
    333390.32047    258964.68546  20492362.4144   20492367.2424
      -438.1254       -341.3964
 98  7 10 15 49 45.0000000  0  8G 4G 5G30G 6G 8G 9G10G24
   5627291.83846   4384901.90946  22573732.1954   22573736.8484
     -2373.3124      -1849.3344
  -3230054.65547  -2493168.96247  20426333.1644   20426337.2424
      1096.5944        854.4894
  -7399051.06746  -5671313.71046  21931102.2734   21931106.7274
      3141.0474       2447.5694
  -4037165.15644  -2988784.69543  24332830.1564   24332836.3674
      2969.0164       2313.5194
   1511024.61446   1177418.96846  21994960.8364   21994966.4384
     -1046.3444       -815.3334
   5850111.36345   4501225.97745  23323526.8594   23323532.8714
     -2412.8124      -1880.1144
  -8153145.63945  -6227446.84645  23082205.6644   23082211.5704
      3562.8594       2776.2544
    340003.53347    264117.83846  20493620.9534   20493625.8874
      -443.5624       -345.6334
 98  7 10 15 50  0.0000000  0  8G 4G 5G30G 6G 8G 9G10G24
   5662895.65646   4412645.12646  22580507.3364   22580511.6024
     -2374.2664      -1850.0774
  -3246466.23447  -2505957.20847  20423210.1564   20423214.3404
      1091.2814        850.3494
  -7446151.14046  -5708015.05446  21922139.4224   21922143.9454
      3138.5944       2445.6574
  -4081720.36143  -3023502.96843  24324351.2584   24324358.5744
      2971.3284       2315.3214
   1526764.12746   1189683.51446  21997955.7114   21997961.3364
     -1052.6094       -820.2154
   5886303.23545   4529427.38545  23330414.3594   23330420.5704
     -2413.1564      -1880.3814
  -8206584.90245  -6269087.78245  23072036.6024   23072042.7544
      3562.0004       2775.5844
    346690.99047    269328.84646  20494893.6484   20494898.4184
      -448.4064       -349.4074
 98  7 10 15 50 15.0000000  0  8G 4G 5G30G 6G 8G 9G10G24
   5698516.21746   4440401.39146  22587285.8054   22587290.6454
     -2375.1564      -1850.7714
  -3262795.25747  -2518681.12347  20420102.5474   20420106.6254
      1085.8444        846.1124
  -7493210.95046  -5744685.02146  21913183.9694   21913188.3754
      3135.9694       2443.6124
  -4126307.44643  -3058246.11343  24315867.7894   24315874.5514
      2973.5164       2317.0254
   1542599.75946   1202022.95246  22000969.4454   22000975.2584
     -1058.8594       -825.0854
   5922502.86945   4557634.85145  23337302.8984   23337308.9344
     -2413.4224      -1880.5884
  -8260008.57145  -6310716.55845  23061870.6024   23061876.7194
      3561.1094       2774.8904
    353451.48447    274596.76546  20496179.9384   20496184.7074
      -453.0164       -352.9994
 98  7 10 15 50 30.0000000  0  8G 4G 5G30G 6G 8G 9G10G24
   5734151.55446   4468169.17446  22594066.8444   22594071.3554
     -2376.2034      -1851.5874
  -3279038.55947  -2531338.24247  20417011.9224   20417015.8364
      1079.9534        841.5224
  -7540227.16146  -5781321.01846  21904237.2814   21904241.4654
      3132.8754       2441.2014
  -4170921.87043  -3093010.55543  24307376.6954   24307383.0004
      2975.0474       2318.2184
   1558532.70846   1214438.21746  22004001.4384   22004007.1454
     -1065.5164       -830.2724
   5958708.26245   4585846.77345  23344192.3834   23344198.5944
     -2413.9534      -1881.0024
  -8313415.47245  -6352332.27345  23051707.2114   23051713.5044
      3559.8594       2773.9164
    360283.12447    279920.12046  20497480.0474   20497484.7704
      -457.8444       -356.7614
 98  7 10 15 50 45.0000000  0  8G 4G 5G30G 6G 8G 9G10G24
   5769801.86546   4495948.61946  22600851.0084   22600855.5664
     -2377.2194      -1852.3784
  -3295196.03047  -2543928.48647  20413937.0554   20413940.8874
      1074.3444        837.1514
  -7587199.02746  -5817922.46546  21895298.7974   21895303.1454
      3130.0474       2438.9984
  -4215559.83843  -3127793.30444  24298882.7034   24298891.1684
      2976.6884       2319.4974
   1574562.12046   1226928.64946  22007051.4224   22007057.4224
     -1071.7504       -835.1304
   5994920.00545   4614063.67645  23351083.2034   23351089.2384
     -2414.3444      -1881.3074
  -8366806.84445  -6393935.87545  23041547.3364   23041553.2424
      3558.9534       2773.2104
    367184.59147    285297.88346  20498793.2114   20498797.9224
      -462.4064       -360.3174
 98  7 10 15 51  0.0000000  0  8G 4G 5G30G 6G 8G 9G10G24
   5805469.42246   4523741.51046  22607638.3204   22607642.8444
     -2378.5474      -1853.4134
  -3311266.31647  -2556450.78647  20410878.9924   20410882.9534
      1068.2814        832.4274
  -7634126.71746  -5854489.48846  21886368.7114   21886373.2464
      3126.8444       2436.5024
  -4260221.54544  -3162594.57643  24290383.9534   24290390.2704
      2978.1414       2320.6294
   1590686.51046   1239493.08846  22010120.0944   22010126.1294
     -1078.2814       -840.2194
   6031140.49945   4642287.38345  23357975.9304   23357981.8484
     -2415.1564      -1881.9404
  -8420180.45345  -6435525.65245  23031390.5164   23031397.0314
      3557.3594       2771.9684
    374156.58747    290730.60646  20500119.9774   20500124.7234
      -467.3124       -364.1404
 98  7 10 15 51 15.0000000  0  8G 4G 5G30G 6G 8G 9G10G24
   5841154.24946   4551547.85246  22614429.1804   22614433.9844
     -2379.4694      -1854.1314
  -3327247.87247  -2568903.94947  20407837.7974   20407841.7814
      1062.5164        827.9344
  -7681007.16346  -5891019.69546  21877447.6254   21877451.9844
      3123.8444       2434.1644
  -4304907.48044  -3197414.76944  24281879.7974   24281885.8094
      2979.9534       2322.0414
   1606906.98446   1252132.39746  22013206.5474   22013212.2544
     -1084.5624       -845.1144
   6067371.32045   4670519.13645  23364870.5634   23364876.4104
     -2415.6414      -1882.3174
  -8473530.06145  -6477096.71245  23021238.5084   23021244.3444
      3555.8444       2770.7874
    381200.67947    296219.50846  20501460.4694   20501465.2154
      -472.0004       -367.7924
 98  7 10 15 51 30.0000000  0  8G 4G 5G30G 6G 8G 9G10G24
   5876850.86946   4579363.39046  22621222.2194   22621226.5554
     -2380.2814      -1854.7654
  -3343143.76747  -2581290.36447  20404813.0864   20404817.1174
      1056.7504        823.4424
  -7727843.97946  -5927515.90746  21868535.0634   21868539.5394
      3120.9224       2431.8874
  -4349622.25844  -3232257.38043  24273371.5864   24273377.8674
      2981.7974       2323.4784
   1623220.66146   1264844.33246  22016310.9774   22016316.8484
     -1090.7664       -849.9474
   6103607.11545   4698754.76545  23371766.5864   23371772.6094
     -2416.0164      -1882.6104
  -8526858.96545  -6518651.63845  23011090.4304   23011096.4184
      3554.5474       2769.7774
    388314.08547    301762.42346  20502813.9924   20502818.7504
      -476.7034       -371.4574
 98  7 10 15 51 45.0000000  0  8G 4G 5G30G 6G 8G 9G10G24
   5912563.38546   4607191.31246  22628017.8444   22628022.5784
     -2381.2974      -1855.5564
  -3358950.37247  -2593607.19847  20401805.1414   20401809.4534
      1050.9534        818.9254
  -7774634.19746  -5963975.80846  21859631.1254   21859635.4144
      3117.9064       2429.5374
  -4394360.96344  -3267118.66744  24264858.4144   24264865.6844
      2983.4844       2324.7934
   1639628.65046   1277629.75146  22019433.4384   22019439.2034
     -1096.8124       -854.6594
   6139852.10745   4726997.56545  23378663.3984   23378669.6214
     -2416.5314      -1883.0114
  -8580168.00245  -6560191.09145  23000945.8444   23000951.8204
      3553.4844       2768.9494
    395501.78847    307363.23346  20504181.9534   20504186.8284
      -481.5004       -375.1954
 98  7 10 15 52  0.0000000  0  8G 4G 5G30G 6G 8G 9G10G24
   5948292.87146   4635032.45746  22634816.7974   22634821.4614
     -2382.5784      -1856.5544
  -3374669.96347  -2605856.23247  20398813.7974   20398818.0274
      1045.0784        814.3474
  -7821378.27046  -6000399.75146  21850735.9844   21850740.2504
      3114.7664       2427.0904
  -4439123.09444  -3301998.20944  24256340.4304   24256346.5824
      2984.8914       2325.8894
   1656127.81246   1290486.21946  22022573.3204   22022579.0864
     -1102.9844       -859.4684
   6176106.08745   4755247.36045  23385562.8134   23385569.1644
     -2417.2504      -1883.5714
  -8633460.60845  -6601717.74845  22990804.7114   22990810.9804
      3552.2194       2767.9634
    402762.16747    313020.66446  20505563.3754   20505568.2034
      -486.4694       -379.0674
 98  7 10 15 52 15.0000000  0  8G 4G 5G30G 6G 8G 9G10G24
   5984043.46746   4662890.05446  22641620.3204   22641625.0314
     -2383.9844      -1857.6504
  -3390300.58047  -2618035.93447  20395839.3674   20395843.5744
      1039.2664        809.8174
  -7868075.68646  -6036787.33746  21841849.7734   21841854.2384
      3111.8284       2424.8014
  -4483905.45244  -3336893.52243  24247818.5164   24247824.9734
      2986.3594       2327.0334
   1672720.15846   1303415.28946  22025730.4844   22025735.9454
     -1109.0004       -864.1564
   6212370.44245   4783505.24945  23392463.1954   23392469.3714
     -2417.6724      -1883.9004
  -8686730.77145  -6643226.90245  22980667.6484   22980674.1174
      3550.7344       2766.8064
    410097.87447    318736.80146  20506959.2424   20506964.0474
      -491.3754       -382.8904
 98  7 10 15 52 30.0000000  0  8G 4G 5G30G 6G 8G 9G10G24
   6019816.23946   4690764.92446  22648427.4304   22648432.1054
     -2385.7814      -1859.0504
  -3405844.43647  -2630148.03047  20392881.4304   20392885.6724
      1033.2194        805.1064
  -7914730.74346  -6073141.91546  21832971.7194   21832975.9844
      3108.7814       2422.4274
  -4528710.60344  -3371806.55643  24239292.0084   24239298.5944
      2987.6254       2328.0194
   1689400.81446   1316413.18046  22028904.5704   22028910.5124
     -1115.1874       -868.9774
   6248637.98345   4811765.62145  23399364.7734   23399370.8914
     -2418.0314      -1884.1804
  -8739979.48145  -6684719.34845  22970535.0864   22970541.4614
      3549.0784       2765.5154
    417507.37247    324510.42946  20508369.4304   20508374.2234
      -496.6564       -387.0054
 98  7 10 15 52 45.0000000  0  8G 4G 5G30G 6G 8G 9G10G24
   6055618.21346   4718662.54745  22655240.3984   22655245.0634
     -2387.8444      -1860.6574
  -3421297.54647  -2642189.42047  20389940.6804   20389945.1334
      1027.2504        800.4554
  -7961339.70546  -6109460.57846  21824102.0634   21824106.2464
      3105.7664       2420.0774
  -4573533.79044  -3406733.68643  24230761.6174   24230769.1914
      2988.8444       2328.9694
   1706175.47146   1329484.31946  22032096.9224   22032102.3714
     -1121.4374       -873.8474
   6284912.76045   4840031.61045  23406267.2034   23406273.4384
     -2418.6564      -1884.6674
  -8793202.75845  -6726191.96445  22960406.5004   22960412.7464
      3547.3594       2764.1764
    424998.54547    330347.70246  20509795.0704   20509799.8524
      -502.2194       -391.3394
 98  7 10 15 53  0.0000000  0  8G 4G 5G30G 6G 8G 9G10G24
   6091451.31646   4746584.42646  22662059.0634   22662063.6094
     -2390.0004      -1862.3384
  -3436662.65947  -2654162.23947  20387016.9064   20387021.3594
      1021.2664        795.7914
  -8007905.30646  -6145745.45346  21815241.0704   21815245.3594
      3102.8284       2417.7884
  -4618377.05944  -3441676.43043  24222228.8364   24222235.4804
      2990.1564       2329.9924
   1723041.62946   1342626.75646  22035306.3914   22035312.0394
     -1127.5944       -878.6444
   6321196.21745   4868304.37745  23413172.0784   23413177.9844
     -2419.2664      -1885.1424
  -8846401.34945  -6767645.35445  22950283.1174   22950289.1174
      3545.6094       2762.8134
    432572.48847    336249.47346  20511236.2974   20511241.1254
      -507.7504       -395.6494
 98  7 10 15 53 15.0000000  0  8G 4G 5G30G 6G 8G 9G10G24
   6127315.24946   4774530.33446  22668883.9224   22668888.4574
     -2392.0164      -1863.9084
  -3451936.21347  -2666063.71347  20384110.3834   20384114.8954
      1015.1724        791.0434
  -8054425.32847  -6181994.81146  21806388.6174   21806392.8244
      3099.7194       2415.3654
  -4663238.18844  -3476633.12643  24213691.7894   24213698.5984
      2991.2034       2330.8084
   1740002.11246   1355842.69946  22038533.9384   22038539.9144
     -1133.9064       -883.5634
   6357487.99745   4896583.62445  23420078.1414   23420083.9774
     -2419.7504      -1885.5194
  -8899572.48745  -6809077.36845  22940165.1954   22940171.1604
      3543.8134       2761.4124
    440228.79047    342215.42246  20512692.9614   20512698.0004
      -513.1874       -399.8864
 98  7 10 15 53 30.0000000  0  8G 4G 5G30G 6G 8G 9G10G24
   6163210.03846   4802500.28445  22675714.5474   22675718.9414
     -2394.3124      -1865.6984
  -3467120.02247  -2677895.25147  20381221.1334   20381225.5634
      1008.9224        786.1734
  -8100899.92247  -6218208.77846  21797544.7114   21797548.8484
      3096.5164       2412.8694
  -4708114.82844  -3511601.88944  24205152.6174   24205158.0904
      2991.9224       2331.3684
   1757056.23346   1369131.60446  22041779.2424   22041784.8324
     -1140.3594       -888.5924
   6393786.10245   4924867.80045  23426985.8364   23426992.0474
     -2420.3594      -1885.9944
  -8952720.24646  -6850491.13045  22930051.4534   22930057.0784
      3542.1094       2760.0854
    447965.50747    348244.02646  20514165.4144   20514170.1254
      -518.7194       -404.1964
 98  7 10 15 53 45.0000000  0  8G 4G 5G30G 6G 8G 9G10G24
   6199140.47046   4830498.01445  22682551.5704   22682556.0704
     -2396.5164      -1867.4154
  -3482208.41447  -2689652.43847  20378349.9144   20378354.2974
      1002.7664        781.3764
  -8147324.33646  -6254383.63346  21788710.3754   21788714.4414
      3093.3134       2410.3734
  -4752999.18844  -3546576.66143  24196610.9224   24196616.3834
      2992.5784       2331.8794
   1774208.46146   1382496.96246  22045043.1414   22045048.9654
     -1146.7034       -893.5354
   6430095.17645   4953160.53945  23433895.3754   23433901.5864
     -2420.9844      -1886.4814
  -9005839.09045  -6891882.38645  22919942.9844   22919948.7154
      3540.2344       2758.6244
    455786.11847    354338.00646  20515653.5164   20515658.2154
      -524.1254       -408.4094
 98  7 10 15 54  0.0000000  0  8G 4G 5G30G 6G 8G 9G10G24
   6235105.33546   4858522.56645  22689395.9144   22689400.5204
     -2398.8594      -1869.2414
  -3497201.41447  -2701335.29747  20375497.0164   20375501.2934
       996.2194        776.2744
  -8193697.66047  -6290518.67746  21779885.7814   21779889.9414
      3089.7034       2407.5614
  -4797891.83545  -3581557.95144  24188068.5634   24188074.9964
      2993.0004       2332.2084
   1791459.70546   1395939.46246  22048325.9064   22048331.9064
     -1153.5784       -898.8924
   6466416.45245   4981462.76445  23440807.2194   23440813.1604
     -2421.9534      -1887.2364
  -9058925.42645  -6933248.29945  22909840.8054   22909847.0744
      3537.7504       2756.6884
    463689.80247    360496.71846  20517157.6884   20517162.4804
      -529.8444       -412.8654
 98  7 10 15 54 15.0000000  0  8G 4G 5G30G 6G 8G 9G10G24
   6271100.61046   4886570.81345  22696245.4144   22696250.0204
     -2400.4064      -1870.4464
  -3512100.27147  -2712944.79847  20372661.7584   20372666.1174
       990.3444        771.6964
  -8240020.77347  -6326614.60046  21771070.6564   21771074.5594
      3086.7814       2405.2844
  -4842795.22845  -3616547.54943  24179523.4064   24179529.2304
      2994.1724       2333.1214
   1808811.67846   1409460.45646  22051628.0554   22051634.0554
     -1159.9694       -903.8724
   6502748.27945   5009773.20945  23447720.7504   23447726.8204
     -2422.1874      -1887.4194
  -9111975.69545  -6974586.11545  22899745.4534   22899751.4414
      3535.6254       2755.0324
    471677.14047    366720.61346  20518677.6804   20518682.5204
      -535.0474       -416.9204
 98  7 10 15 54 30.0000000  0  8G 4G 5G30G 6G 8G 9G10G24
   6307120.96546   4914638.60845  22703099.8754   22703104.4804
     -2402.0944      -1871.7614
  -3526906.15447  -2724481.85647  20369844.3674   20369848.6334
       983.9064        766.6804
  -8286295.67047  -6362672.95346  21762265.0634   21762269.1414
      3083.3284       2402.5934
  -4887712.09645  -3651547.65844  24170976.3134   24170983.4884
      2994.8914       2333.6814
   1826263.03046   1423058.88746  22054948.9844   22054954.6214
     -1166.7344       -909.1444
   6539086.70345   5038088.81145  23454635.6414   23454641.6994
     -2422.8124      -1887.9064
  -9164988.57345  -7015894.78745  22889657.8054   22889664.2274
      3532.9694       2752.9634
    479744.03947    373006.50446  20520212.7664   20520217.6884
      -540.3754       -421.0714
 98  7 10 15 54 45.0000000  0  8G 4G 5G30G 6G 8G 9G10G24
   6343163.80246   4942723.92445  22709958.5314   22709963.2194
     -2403.6564      -1872.9794
  -3541614.73447  -2735943.09047  20367045.2664   20367049.4734
       977.1094        761.3844
  -8332517.42046  -6398689.89546  21753469.2664   21753473.4844
      3079.4534       2399.5744
  -4932638.72644  -3686555.39043  24162426.2114   24162432.4104
      2995.2504       2333.9614
   1843817.05946   1436737.32746  22058289.5004   22058294.9494
     -1173.8754       -914.7084
   6575435.12645   5066412.19445  23461552.4774   23461558.3954
     -2423.7344      -1888.6244
  -9217961.75045  -7057172.53645  22879577.3834   22879583.5124
      3530.0314       2750.6744
    487889.54747    379353.64946  20521762.6334   20521767.6374
      -545.8124       -425.3084
 98  7 10 15 55  0.0000000  0  8G 4G 5G30G 6G 8G 9G10G24
   6379223.82746   4970822.62845  22716820.5944   22716825.0594
     -2404.5004      -1873.6364
  -3556225.11347  -2747327.79947  20364264.8204   20364269.0044
       970.7504        756.4294
  -8378685.54247  -6434665.03946  21744683.9534   21744688.2664
      3076.0784       2396.9444
  -4977575.61044  -3721571.08744  24153875.5634   24153881.9964
      2996.1884       2334.6924
   1861471.98846   1450494.38946  22061648.9614   22061654.7624
     -1180.2194       -919.6514
   6611793.26245   5094743.13745  23468471.5314   23468477.9414
     -2424.1874      -1888.9774
  -9270894.59445  -7098418.85445  22869504.3674   22869510.4264
      3527.5004       2748.7014
    496111.49747    385760.35846  20523327.0864   20523331.8794
      -550.6254       -429.0584
 98  7 10 15 55 15.0000000  0  8G 4G 5G30G 6G 8G 9G10G24
   6415301.11946   4998934.78645  22723685.7974   22723689.9104
     -2405.5784      -1874.4764
  -3570733.14747  -2758632.76347  20361504.3054   20361508.5354
       963.8594        751.0594
  -8424795.61947  -6470594.96146  21735909.4304   21735913.4494
      3072.0944       2393.8394
  -5022521.99244  -3756594.18143  24145322.8204   24145330.3594
      2996.8754       2335.2274
   1879226.93446   1464329.38846  22065027.6564   22065033.7504
     -1186.9224       -924.8744
   6648162.81445   5123082.99545  23475392.2814   23475398.4344
     -2424.9224      -1889.5504
  -9323783.24346  -7139630.72545  22859439.8204   22859445.8204
      3524.5004       2746.3644
    504410.54347    392227.14246  20524906.4064   20524911.1174
      -555.7344       -433.0404
 98  7 10 15 55 30.0000000  0  8G 4G 5G30G 6G 8G 9G10G24
   6451392.80746   5027058.16145  22730553.8594   22730558.4654
     -2406.5314      -1875.2194
  -3585139.35647  -2769858.38547  20358762.7664   20358767.0664
       957.0944        745.7874
  -8470846.77747  -6506478.97146  21727146.2034   21727150.2344
      3068.2194       2390.8204
  -5067479.93745  -3791626.32043  24136767.6094   24136773.6564
      2997.6884       2335.8604
   1897081.83546   1478242.26046  22068425.4694   22068431.1414
     -1193.6094       -930.0854
   6684542.75445   5151430.94345  23482315.4144   23482321.3674
     -2425.6254      -1890.0974
  -9376627.98645  -7180808.40545  22849384.0314   22849390.1844
      3521.6414       2744.1364
    512786.28647    398753.69346  20526500.5164   20526505.2854
      -560.9224       -437.0824
 98  7 10 15 55 45.0000000  0  8G 4G 5G30G 6G 8G 9G10G24
   6487501.32846   5055194.65745  22737425.2274   22737429.6334
     -2407.9064      -1876.2914
  -3599438.81647  -2781000.82147  20356041.8524   20356046.1764
       949.4694        739.8464
  -8516836.25947  -6542314.92246  21718394.6484   21718398.7034
      3063.6724       2387.2774
  -5112448.09845  -3826666.38943  24128210.2664   24128215.1414
      2998.0634       2336.1534
   1915041.61346   1492236.86746  22071843.2424   22071848.8914
     -1201.0624       -935.8934
   6720936.93545   5179789.98145  23489240.8204   23489247.1604
     -2426.9694      -1891.1444
  -9429426.97945  -7221950.42945  22839336.1484   22839342.3014
      3518.1254       2741.3964
    521244.13947    405344.22446  20528109.9064   20528114.6764
      -566.8284       -441.6844
 98  7 10 15 56  0.0000000  0  8G 4G 5G30G 6G 8G 9G10G24
   6523622.32646   5083340.88145  22744298.8594   22744303.0554
     -2408.5004      -1876.7534
  -3613632.24447  -2792060.63947  20353340.7734   20353345.1564
       942.7034        734.5744
  -8562764.95747  -6578103.51046  21709654.7894   21709658.6684
      3059.9384       2384.3674
  -5157431.57345  -3861718.44543  24119650.7344   24119657.7704
      2999.5004       2337.2734
   1933104.81046   1506312.06946  22075280.5634   22075286.3634
     -1207.6564       -941.0314
   6757344.09245   5208159.12145  23496169.3204   23496175.0514
     -2427.5624      -1891.6074
  -9482179.90645  -7263056.55645  22829297.5784   22829303.8954
      3515.3444       2739.2294
    529783.19747    411998.03446  20529734.7664   20529739.6294
      -572.0164       -445.7264
 98  7 10 15 56 15.0000000  0  8G 4G 5G30G 6G 8G 9G10G24
   6559755.58346   5111496.64945  22751174.6414   22751179.2464
     -2409.3594      -1877.4234
  -3627720.94947  -2803038.85347  20350659.9844   20350664.1914
       935.7194        729.1314
  -8608636.07947  -6613847.23646  21700925.6954   21700929.7974
      3056.2034       2381.4574
  -5202433.06545  -3896784.46444  24111086.7814   24111092.4064
      3000.6254       2338.1494
   1951269.47346   1520466.32846  22078737.1254   22078742.9844
     -1214.2664       -946.1814
   6793761.21745   5236536.05945  23503099.0394   23503105.2504
     -2428.0944      -1892.0214
  -9534887.94046  -7304127.69845  22819268.1884   22819274.2344
      3512.3594       2736.9034
    538403.15347    418714.87546  20531375.3134   20531380.2814
      -577.3914       -449.9154
 98  7 10 15 56 30.0000000  0  8G 4G 5G30G 6G 8G 9G10G24
   6595903.75246   5139664.03245  22758053.4924   22758057.8054
     -2410.3444      -1878.1904
  -3641702.32247  -2813933.43147  20347999.2424   20348003.5554
       928.4844        723.4944
  -8654449.96647  -6649546.36146  21692207.7034   21692211.5824
      3052.3444       2378.4504
  -5247449.63245  -3931862.28243  24102520.1644   24102525.8014
      3001.6414       2338.9414
   1969532.22046   1534697.02146  22082212.4384   22082218.1804
     -1220.7344       -951.2224
   6830187.45745   5264920.08445  23510030.8914   23510036.7384
     -2428.7344      -1892.5204
  -9587551.28146  -7345164.01145  22809246.1724   22809252.1484
      3509.4534       2734.6394
    547105.03347    425495.55646  20533030.9694   20533035.9734
      -582.8284       -454.1524
 98  7 10 15 56 45.0000000  0  8G 4G 5G30G 6G 8G 9G10G24
   6632067.04646   5167843.21145  22764935.3984   22764940.2154
     -2411.6724      -1879.2254
  -3655574.94947  -2824743.27247  20345359.4844   20345363.9024
       921.0634        717.7114
  -8700204.89447  -6685199.54446  21683500.8284   21683504.8594
      3048.1724       2375.1994
  -5292481.82445  -3966952.25643  24093951.4614   24093958.6024
      3002.5004       2339.6104
   1987892.44446   1549003.66246  22085706.4844   22085712.6254
     -1227.4374       -956.4454
   6866623.68545   5293311.88545  23516964.3134   23516970.3714
     -2429.6414      -1893.2264
  -9640172.34546  -7386167.38345  22799232.8284   22799238.7234
      3506.5784       2732.3994
    555888.04747    432339.46146  20534702.5004   20534707.6334
      -588.4844       -458.5594
 98  7 10 15 57  0.0000000  0  8G 4G 5G30G 6G 8G 9G10G24
   6668253.01146   5196040.05045  22771820.8524   22771825.5984
     -2413.3284      -1880.5154
  -3669337.86547  -2835467.62447  20342740.3054   20342744.6994
       913.8444        712.0864
  -8745897.21147  -6720803.93446  21674805.6644   21674809.7774
      3043.9534       2371.9124
  -5337528.17544  -4002053.28143  24085378.5704   24085385.1094
      3003.5784       2340.4504
   2006351.96446   1563387.67046  22089218.9384   22089224.5864
     -1233.9224       -961.4984
   6903073.88445   5321714.57645  23523900.3754   23523906.2584
     -2430.5944      -1893.9694
  -9692751.42046  -7427138.02845  22789227.4144   22789233.4614
      3503.7504       2730.1954
    564758.41147    439251.43146  20536390.5234   20536395.3874
      -594.4534       -463.2104
 98  7 10 15 57 15.0000000  0  8G 4G 5G30G 6G 8G 9G10G24
   6704464.99046   5224257.15645  22778711.8914   22778717.1414
     -2414.8914      -1881.7334
  -3682993.95347  -2846108.72847  20340141.6414   20340145.9304
       907.0314        706.7784
  -8791525.81647  -6756358.68246  21666123.2194   21666127.1914
      3039.8914       2368.7464
  -5382592.30744  -4037168.13143  24076803.1954   24076810.0274
      3005.0164       2341.5714
   2024908.66346   1577847.40846  22092750.3204   22092755.8284
     -1240.2664       -966.4414
   6939539.92345   5350129.60945  23530839.4304   23530845.4774
     -2431.5004      -1894.6754
  -9745287.44646  -7468075.14245  22779230.0474   22779236.3284
      3501.0944       2728.1254
    573718.24147    446233.10846  20538095.4224   20538100.5554
      -600.1564       -467.6544
 98  7 10 15 57 30.0000000  0  8G 4G 5G30G 6G 8G 9G10G24
   6740701.74946   5252493.58245  22785607.5864   22785612.5204
     -2416.5474      -1883.0244
  -3696548.25847  -2856670.52647  20337562.3834   20337566.8594
       900.3284        701.5544
  -8837092.64147  -6791865.29246  21657451.9064   21657456.1254
      3035.7974       2365.5564
  -5427676.30544  -4072298.50243  24068223.7814   24068230.9574
      3006.2814       2342.5574
   2043562.44146   1592382.79346  22096300.2814   22096305.8714
     -1246.8444       -971.5674
   6976019.83245   5378555.43645  23537782.2034   23537787.9694
     -2432.3754      -1895.3574
  -9797783.19646  -7508980.88245  22769240.4924   22769246.4454
      3498.4224       2726.0434
    582764.41947    453282.07646  20539816.9534   20539822.0164
      -605.8754       -472.1104
 98  7 10 15 57 45.0000000  0  8G 4G 5G30G 6G 8G 9G10G24
   6776966.85846   5280752.08545  22792508.7664   22792513.8524
     -2418.5784      -1884.6064
  -3709999.88047  -2867152.31147  20335002.9064   20335007.2544
       893.4384        696.1854
  -8882595.09947  -6827321.74246  21648793.1174   21648797.3484
      3031.4064       2362.1354
  -5472774.93344  -4107440.24143  24059641.6414   24059648.2624
      3007.1414       2343.2264
   2062318.31946   1606997.73246  22099869.3674   22099875.1684
     -1253.6254       -976.8514
   7012514.78845   5406993.00045  23544726.6024   23544732.8014
     -2433.3754      -1896.1364
  -9850236.17646  -7549853.28845  22759259.1724   22759265.1604
      3495.5004       2723.7664
    591899.21247    460400.09246  20541555.3674   20541560.1844
      -611.8444       -476.7614
 98  7 10 15 58  0.0000000  0  8G 4G 5G30G 6G 8G 9G10G24
   6813262.13946   5309034.11245  22799415.7974   22799420.4614
     -2420.6414      -1886.2134
  -3723349.89147  -2877554.91247  20332462.2504   20332466.5744
       886.7974        691.0114
  -8928031.36647  -6862726.61746  21640146.9304   21640151.0554
      3026.9384       2358.6534
  -5517888.35844  -4142593.52443  24051057.0634   24051062.7934
      3008.1414       2344.0064
   2081172.41346   1621689.20246  22103457.3674   22103463.3204
     -1260.0164       -981.8304
   7049023.60945   5435441.36945  23551674.3984   23551680.7384
     -2434.3124      -1896.8674
  -9902644.10846  -7590690.59245  22749286.1334   22749291.8984
      3492.3914       2721.3434
    601122.24747    467586.87046  20543310.3524   20543315.5084
      -617.7034       -481.3274
 98  7 10 15 58 15.0000000  0  8G 4G 5G30G 6G 8G 9G10G24
   6849598.13346   5337347.85245  22806329.9064   22806334.7344
     -2423.4064      -1888.3694
  -3736593.39247  -2887874.52947  20329942.2424   20329946.4614
       879.8134        685.5684
  -8973391.95847  -6898072.52446  21631515.2114   21631519.2424
      3021.9534       2354.7694
  -5563008.94544  -4177752.37543  24042470.1644   24042476.3984
      3008.6724       2344.4204
   2100129.41046   1636460.86146  22107064.3914   22107069.6994
     -1266.7974       -987.1144
   7085553.91445   5463906.49445  23558625.6094   23558632.2774
     -2435.5164      -1897.8044
  -9954996.79546  -7631484.85145  22739323.7194   22739329.6724
      3488.7814       2718.5314
    610440.19347    474847.59946  20545083.4384   20545088.5124
      -623.9064       -486.1614
 98  7 10 15 58 30.0000000  0  8G 4G 5G30G 6G 8G 9G10G24
   6885965.74446   5365686.23245  22813250.7504   22813255.6954
     -2425.5164      -1890.0124
  -3749742.67647  -2898120.72147  20327439.7194   20327443.9144
       873.5164        680.6624
  -9018686.16547  -6933366.69946  21622895.7894   21622900.0204
      3017.3134       2351.1534
  -5608145.47744  -4212923.62944  24033880.8364   24033887.7774
      3009.6884       2345.2114
   2119178.19446   1651304.05146  22110689.5164   22110694.8134
     -1273.0004       -991.9484
   7122090.66045   5492376.60545  23565578.0554   23565584.8284
     -2435.9844      -1898.1704
 -10007306.09546  -7672245.29345  22729369.7584   22729375.7114
      3485.9224       2716.3034
    619841.28347    482173.12146  20546872.3754   20546877.5664
      -629.4844       -490.5074
 98  7 10 15 58 45.0000000  0  8G 4G 5G30G 6G 8G 9G10G24
   6922371.16046   5394054.06845  22820178.3524   22820183.3914
     -2428.4694      -1892.3134
  -3762792.18647  -2908289.16347  20324956.6884   20324960.8594
       866.5004        675.1954
  -9063902.94147  -6968600.54346  21614291.0634   21614295.1294
      3011.6564       2346.7454
  -5653293.43044  -4248103.78543  24025290.5704   24025298.6724
      3010.0314       2345.4794
   2138327.67046   1666225.69446  22114333.4064   22114339.2664
     -1280.3124       -997.6464
   7158641.10845   5520857.43045  23572533.5864   23572539.6804
     -2437.3594      -1899.2414
 -10059566.26246  -7712967.44845  22719424.5784   22719430.6374
      3482.1094       2713.3324
    629331.52847    489568.11946  20548678.2504   20548683.2664
      -635.8284       -495.4504
 98  7 10 15 59  0.0000000  0  8G 4G 5G30G 6G 8G 9G10G24
   6958819.69946   5422455.50145  22827114.0864   22827119.0204
     -2431.3284      -1894.5414
  -3775739.68847  -2918378.12647  20322492.7814   20322497.1764
       859.7664        669.9474
  -9109038.35147  -7003770.98346  21605702.3524   21605706.5354
      3006.4694       2342.7034
  -5698449.60544                  24016697.2424
      3010.5784
   2157585.51346   1681231.76946  22117998.0164   22118003.6644
     -1287.3754      -1003.1494
   7195209.37245   5549352.10545  23579492.4304   23579499.1214
     -2438.4374      -1900.0814
 -10111771.22846  -7753646.59845  22709490.3054   22709496.2464
      3478.5164       2710.5324
    638913.86747    497034.87146  20550501.7814   20550506.7624
      -641.8444       -500.1384
 98  7 10 15 59 15.0000000  0  8G 4G 5G30G 6G 8G 9G10G24
   6995307.91946   5450887.86245  22834057.7664   22834062.9924
     -2433.6094      -1896.3194
  -3788586.36647  -2928388.52647  20320048.3204   20320052.6334
       853.1724        664.8094
  -9154098.88647  -7038883.07846  21597127.6414   21597131.6024
      3001.6724       2338.9654
  -5743613.45444                  24008102.6334
      3011.2974
   2176947.92946   1696319.34346  22121682.6954   22121688.1914
     -1294.2814      -1008.5314
   7231792.71345   5577858.52945  23586454.0704   23586460.4104
     -2439.2974      -1900.7514
 -10163922.60346  -7794283.99045  22699566.3524   22699572.2814
      3475.0314       2707.8174
    648584.76947    504570.63446  20552342.1954   20552347.1054
      -647.5474       -504.5824
 98  7 10 15 59 30.0000000  0  8G 4G 5G30G 6G 8G 9G10G24
   7031828.69746   5479345.59545  22841007.4614   22841012.4774
     -2435.8914      -1898.0974
  -3801332.58647  -2938320.64447  20317622.7034   20317626.8284
       846.2034        659.3794
  -9199087.63947  -7073939.24146  21588566.3914   21588570.3984
      2996.7814       2335.1544
  -5788784.88444                  23999506.7974
      3011.3914
   2196416.79646   1711489.86046  22125387.4064   22125393.2074
     -1301.5944      -1014.2294
   7268389.32045   5606375.30645  23593417.9614   23593424.0554
     -2440.2814      -1901.5184
 -10216020.82546  -7834879.95545  22689652.4614   22689658.2854
      3471.2974       2704.9074
    658340.89147    512172.80446  20554198.7584   20554203.7034
      -653.4224       -509.1604
 98  7 10 15 59 45.0000000  0  8G 4G 5G30G 6G 8G 9G10G24
   7068382.26346   5507828.87645  22847963.2974   22847968.0784
     -2438.0164      -1899.7524
  -3813972.73847  -2948170.11347  20315217.2664   20315221.4614
       838.9694        653.7424
  -9244004.56647  -7108939.43446  21580019.0634   21580023.1524
      2992.0004       2331.4294
  -5833958.65744                  23990910.5004
      3011.6884
   2215993.09646   1726744.09546  22129112.6334   22129118.2584
     -1308.7344      -1019.7934
   7304999.32745   5634902.50045  23600385.0784   23600391.3834
     -2441.2034      -1902.2364
 -10268063.04446  -7875432.28545  22679749.0394   22679754.8874
      3467.5784       2702.0094
    668185.17847    519843.67246  20556071.8914   20556076.9064
      -659.2814       -513.7264
 98  7 10 16  0  0.0000000  0  8G 4G 5G30G 6G 8G 9G10G24
   7104970.35646   5536339.05245  22854925.9534   22854930.5354
     -2440.1254      -1901.3964
  -3826500.57147  -2957932.06447  20312833.2664   20312837.4144
       831.6094        648.0074
  -9288848.46347  -7143882.72246  21571485.5234   21571489.7194
      2987.4844       2327.9104
  -5879135.12344                  23982313.3914
      3012.1414
   2235678.57846   1742083.40346  22132858.7814   22132864.4884
     -1315.7194      -1025.2354
   7341624.81045   5663441.79745  23607354.9774   23607360.7194
     -2441.9374      -1902.8084
 -10320047.60546  -7915939.69645  22669856.3594   22669862.2544
      3463.9224       2699.1604
    678119.85547    527584.97446  20557962.5944   20557967.3984
      -665.0784       -518.2434
 98  7 10 16  0 15.0000000  0  8G 4G 5G30G 6G 8G 9G10G24
   7141586.95946   5564871.45545  22861894.0164   22861898.5634
     -2442.1564      -1902.9794
  -3838918.88747  -2967608.67247  20310470.0004   20310474.2074
       824.0314        642.1024
  -9333627.97147  -7178775.83646  21562964.5004   21562968.7774
      2983.0944       2324.4894
  -5924320.12745    -23471.15054  23973715.4064   23973722.2664
      3012.3914       2347.3174
   2255467.28546   1757503.14546  22136624.3364   22136630.3244
     -1322.8914      -1030.8244
   7378259.84645   5691988.51845  23614326.5704   23614334.1564
     -2442.7814      -1903.4664
 -10371979.04046  -7956405.69745  22659974.2274   22659980.3794
      3460.2664       2696.3114
    688139.11847    535392.19146  20559868.9614   20559873.9064
      -670.8444       -522.7354
 98  7 10 16  0 30.0000000  0  8G 4G 5G30G 6G 8G 9G10G24
   7178234.39846   5593427.82845  22868867.6564   22868872.6484
     -2444.1254      -1904.5134
  -3851220.95247  -2977194.70147  20308129.3674   20308133.7154
       816.2504        636.0394
  -9378342.48747  -7213618.31046  21554455.4844   21554459.6094
      2978.8594       2321.1894
  -5969506.14045    -58680.99044  23965117.0784   23965122.9384
      3012.3754       2347.3054
   2275366.04246   1773008.63945  22140411.0084   22140416.9964
     -1330.3284      -1036.6194
   7414906.88545   5720544.71045  23621300.0864   23621307.9064
     -2443.5004      -1904.0264
 -10423855.87746  -7996829.16845  22650102.4224   22650108.4574
      3456.5944       2693.4504
    698245.22747    543267.07546  20561792.2584   20561797.4144
      -676.6724       -527.2774
 98  7 10 16  0 45.0000000  0  8G 4G 5G30G 6G 8G 9G10G24
   7214909.50446   5622005.88045  22875846.7504   22875851.8954
     -2445.7974      -1905.8164
  -3863404.84447  -2986688.64347  20305810.7424   20305815.0664
       808.2664        629.8174
  -9422993.31547  -7248411.15246  21545958.5704   21545962.5664
      2974.6414       2317.9024
  -6014690.24545    -93889.33844  23956518.5474   23956524.8524
      3012.2504       2347.2084
   2295377.16746   1788601.69246  22144219.0314   22144224.6914
     -1337.7664      -1042.4154
   7451567.38545   5749111.10545  23628276.1094   23628283.1914
     -2444.5624      -1904.8544
 -10475676.47946  -8037208.81045  22640241.3134   22640247.0904
      3452.8284       2690.5154
    708438.66947    551210.01446  20563732.0084   20563737.2814
      -682.3914       -531.7334
 98  7 10 16  1  0.0000000  0  8G 4G 5G30G 6G 8G 9G10G24
   7251610.18246   5650603.79245  22882830.5944   22882835.2584
     -2447.4534      -1907.1064
  -3875466.25747  -2996087.14947  20303515.6804   20303520.1094
       800.0314        623.4014
  -9467581.02547  -7283154.81446  21537473.9534   21537478.0314
      2970.5634       2314.7244
  -6059870.16044   -129094.42644  23947920.8524   23947927.1684
      3011.8284       2346.8794
   2315499.67846   1804281.54646  22148047.9924   22148053.7464
     -1345.0474      -1048.0884
   7488246.45045   5777692.16445  23635256.1954   23635263.5704
     -2445.7814      -1905.8044
 -10527437.93546  -8077542.35745  22630391.3444   22630397.3554
      3448.8754       2687.4354
    718718.97447    559220.63446  20565688.2664   20565693.3634
      -688.1254       -536.2014
 98  7 10 16  1 15.0000000  0  8G 4G 5G30G 6G 8G 9G10G24
   7288336.31146   5679221.52945  22889819.4384   22889824.0664
     -2449.0944      -1908.3854
  -3887401.46047  -3005387.30747  20301244.2194   20301248.6484
       791.5164        616.7654
  -9512105.28347  -7317849.03546  21529001.2894   21529005.1094
      2966.1884       2311.3154
  -6105040.53444   -164292.07044  23939324.5314   23939331.7894
      3011.0944       2346.3074
   2335729.93946   1820045.35046  22151898.1484   22151903.9734
     -1352.1094      -1053.5924
   7524944.16945   5806287.71145  23642239.2504   23642246.3554
     -2447.0624      -1906.8024
 -10579138.91446  -8117828.79845  22620552.9924   22620559.2854
      3444.7814       2684.2454
    729086.60447    567299.30246  20567661.1024   20567666.0004
      -694.0314       -540.8044
 98  7 10 16  1 30.0000000  0  8G 4G 5G30G 6G 8G 9G10G24
   7325082.62346   5707855.01045  22896811.8914   22896816.2154
     -2450.5474      -1909.5174
  -3899212.36347  -3014590.60847  20298996.7114   20299000.9884
       783.1414        610.2394
  -9556564.11747  -7352492.27346  21520541.0314   21520544.8984
      2961.4844       2307.6504
  -6150204.75444   -199484.90444  23930730.4614   23930737.9064
      3010.7344       2346.0274
   2356063.06946   1835889.31246  22155767.3754   22155773.2114
     -1359.0784      -1059.0224
   7561657.67645   5834895.55245  23649226.0394   23649233.1214
     -2448.1564      -1907.6544
 -10630780.93846  -8158069.28745  22610725.9694   22610731.9344
      3440.6724       2681.0434
    739539.64647    575444.53047  20569650.5004   20569655.4344
      -699.8284       -545.3214
 98  7 10 16  1 45.0000000  0  8G 4G 5G30G 6G 8G 9G10G24
   7361852.04946   5736506.47845  22903808.7894   22903814.0744
     -2452.1564      -1910.7714
  -3910896.33247  -3023694.99847  20296773.3284   20296777.5594
       774.6254        603.6044
  -9600950.46847  -7387079.03146  21512094.5634   21512098.7704
      2956.6094       2303.8514
  -6195362.52345   -234672.73744  23922137.7814   23922143.8874
      3010.2664       2345.6624
   2376499.41846   1851813.71046  22159656.3204   22159661.9694
     -1365.7974      -1064.2574
   7598385.92145   5863514.92945  23656214.9534   23656220.6844
     -2448.9694      -1908.2874
 -10682360.16346  -8198260.85345  22600910.4774   22600916.6414
      3436.5004       2677.7924
    750080.73747    583658.36347  20571656.1884   20571661.0044
      -705.7344       -549.9234
 98  7 10 16  2  0.0000000  0  8G 4G 5G30G 6G 8G 9G10G24
   7398645.79146   5765176.91145  22910810.4614   22910815.7584
     -2453.9064      -1912.1354
  -3922453.03847  -3032700.22447  20294574.2734   20294578.5744
       766.0634        596.9324
  -9645263.76447  -7421608.86446  21503661.9694   21503666.1174
      2951.6094       2299.9554
  -6240515.65145   -269856.93044  23913544.8914   23913551.9964
      3009.8914       2345.3694
   2397035.47746   1867815.80346  22163563.9694   22163569.8874
     -1372.5624      -1069.5294
   7635125.18045   5892142.85845  23663206.0474   23663212.7734
     -2449.7664      -1908.9084
 -10733879.45246  -8238405.69645  22591107.0474   22591112.8134
      3432.5634       2674.7244
    760708.46947    591939.70947  20573678.5084   20573683.5594
      -711.5004       -554.4164
 98  7 10 16  2 15.0000000  0  8G 4G 5G30G 6G 8G 9G10G24
   7435466.33646   5793868.21245  22917817.0944   22917822.3324
     -2455.6724      -1913.5114
  -3933882.44947  -3041606.25747  20292399.2194   20292403.5554
       757.7034        590.4184
  -9689501.32547  -7456079.68346  21495244.0554   21495248.1564
      2946.5004       2295.9744
  -6285661.16145   -305035.19845  23904954.4614   23904960.5664
      3009.2814       2344.8944
   2417672.62346   1883896.66546  22167491.2814   22167497.1644
     -1379.1874      -1074.6924
   7671875.27245   5920779.22145  23670199.8594   23670206.8594
     -2450.4844      -1909.4684
 -10785338.60146  -8278503.69645  22581314.5084   22581320.5784
      3428.4694       2671.5344
    771422.75047    600288.49847  20575717.3754   20575722.4614
      -717.2504       -558.8964
 98  7 10 16  2 30.0000000  0  8G 4G 5G30G 6G 8G 9G10G24
   7472313.62046   5822580.35645  22924828.9454   22924834.3014
     -2457.1094      -1914.6314
  -3945185.79547  -3050414.06047  20290248.2734   20290252.5984
       749.5944        584.0994
  -9733658.36247  -7490487.75646  21486841.0234   21486845.2664
      2941.2974       2291.9204
  -6330795.86445   -340205.05845  23896365.9304   23896372.1764
      3008.9224       2344.6144
   2438409.75646   1900055.44046  22171437.4304   22171443.2074
     -1385.6094      -1079.6964
   7708639.16445   5949426.33745  23677196.2274   23677203.1454
     -2451.1254      -1909.9684
 -10836734.45346  -8318552.36245  22571533.9844   22571539.9144
      3424.5004       2668.4424
    782223.22347    608704.44447  20577772.7504   20577777.8244
      -722.6414       -563.0974
 98  7 10 16  2 45.0000000  0  8G 4G 5G30G 6G 8G 9G10G24
   7509183.85846   5851310.39845  22931845.3984   22931850.3204
     -2458.7814      -1915.9334
  -3956367.42447  -3059127.01947  20288120.4924   20288124.8524
       741.4384        577.7444
  -9777734.81347  -7524833.03046  21478453.4774   21478457.4384
      2935.6724       2287.5374
  -6375925.83745   -375371.22145  23887777.1334   23887784.3794
      3008.5474       2344.3224
   2459244.01446   1916289.89546  22175402.1174   22175407.8244
     -1392.1414      -1084.7854
   7745414.24545   5978082.17445  23684194.3284   23684200.6334
     -2452.1254      -1910.7474
 -10888067.83346  -8358552.35545  22561765.4614   22561771.1914
      3420.0944       2665.0084
    793107.72447    617185.87747  20579844.0944   20579849.2154
      -728.5314       -567.6874
 98  7 10 16  3  0.0000000  0  8G 4G 5G30G 6G 8G 9G10G24
   7546080.08046   5880060.67745  22938866.4694   22938871.5084
     -2460.7504      -1917.4684
  -3967425.56347  -3067743.75147  20286016.5234   20286020.8364
       733.0314        571.1934
  -9821724.94847  -7559111.05046  21470082.6564   21470086.6524
      2929.7194       2282.8984
  -6421050.94445   -410533.58544  23879190.8204   23879197.1024
      3008.1724       2344.0304
   2480174.99646   1932599.72545  22179385.2664   22179391.1374
     -1398.6254      -1089.8384
   7782205.52745   6006750.64845  23691195.1334   23691201.3444
     -2453.3124      -1911.6724
 -10939336.32646  -8398501.80145  22552009.4614   22552015.4494
      3415.7194       2661.5994
    804080.77547    625736.30547  20581932.0704   20581936.9454
      -734.5944       -572.4114
 98  7 10 16  3 15.0000000  0  8G 4G 5G30G 6G 8G 9G10G24
   7583003.96246   5908832.50345  22945892.8754   22945898.4304
     -2462.3444      -1918.7094
  -3978362.20347  -3076265.80947  20283934.9454   20283939.2344
       725.3284        565.1914
  -9865629.36447  -7593322.27347  21461727.7664   21461731.8444
      2924.2664       2278.6494
  -6466174.43145   -445694.70744  23870604.0084   23870610.2304
      3008.4384       2344.2374
   2501199.70146   1948982.58146  22183385.9384   22183391.7974
     -1404.6414      -1094.5254
   7819009.23345   6035428.78245  23698198.5314   23698204.7194
     -2453.6874      -1911.9644
 -10990543.07846  -8438403.09745  22542264.6484   22542270.8594
      3411.9534       2658.6654
    815142.89647    634356.13447  20584037.1174   20584041.9454
      -740.2814       -576.8434
 98  7 10 16  3 30.0000000  0  8G 4G 5G30G 6G 8G 9G10G24
   7619954.37846   5937625.01945  22952924.0704   22952928.8634
     -2464.5784      -1920.4504
  -3989181.87047  -3084696.71647  20281876.1414   20281880.6054
       717.1094        558.7874
  -9909448.19847  -7627466.81247  21453389.3134   21453393.4494
      2918.0784       2273.8274
  -6511302.48745   -480859.36445  23862016.0784   23862022.8284
      3008.5004       2344.2864
   2522318.73846   1965438.94045  22187404.6094   22187410.5744
     -1411.4534      -1099.8344
   7855820.36945   6064112.73945  23705203.8284   23705209.9454
     -2454.6564      -1912.7194
 -11041690.21246  -8478257.96645  22532531.9844   22532537.9144
      3407.4534       2655.1584
    826294.34947    643045.57447  20586159.1884   20586164.1684
      -746.7504       -581.8834
 98  7 10 16  3 45.0000000  0  8G 4G 5G30G 6G 8G 9G10G24
   7656938.14946   5966443.51845  22959961.8984   22959966.6094
     -2466.5164      -1921.9604
  -3999879.90447  -3093032.84847  20279840.4454   20279844.5944
       709.3914        552.7724
  -9953176.15147  -7661540.53147  21445068.3054   21445072.2424
      2912.4844       2269.4684
  -6556432.90245   -516025.85744  23853427.9694   23853433.8284
      3008.9694       2344.6514
   2543541.39546   1981976.04545  22191443.2814   22191449.1764
     -1418.1564      -1105.0574
   7892644.43945   6092806.72945  23712211.2344   23712217.3164
     -2455.1564      -1913.1094
 -11092771.73246  -8518061.71245  22522811.5554   22522817.6254
      3403.4844       2652.0664
    837540.04247    651808.45147  20588299.3054   20588304.1564
      -752.6414       -586.4734
 98  7 10 16  4  0.0000000  0  8G 4G 5G30G 6G 8G 9G10G24
   7693950.88246   5995284.58945  22967005.3134   22967010.0234
     -2468.7664      -1923.7134
  -4010463.13347  -3101279.52347  20277826.5314   20277830.8324
       701.4384        546.5754
  -9996822.64847  -7695550.77747  21436762.6644   21436766.7894
      2906.7814       2265.0244
  -6601570.29945   -551197.81544  23844838.2734   23844843.9574
      3009.0944       2344.7484
   2564862.75146   1998590.05345  22195500.9144   22195506.5634
     -1424.9694      -1110.3654
   7929476.63045   6121507.06345  23719220.0394   23719225.7114
     -2456.0944      -1913.8394
 -11143793.89946  -8557819.20445  22513102.4384   22513108.3204
      3399.2034       2648.7304
    848873.16547    660639.45247  20590455.9384   20590460.7194
      -758.6724       -591.1734
 98  7 10 16  4 15.0000000  0  8G 4G 5G30G 6G 8G 9G10G24
   7730998.54946   6024152.87945  22974055.4454   22974060.7194
     -2470.8754      -1925.3574
  -4020926.19047  -3109432.55347  20275835.6724   20275840.0434
       693.6884        540.5364
 -10040381.86047  -7729493.01646  21428473.5784   21428477.6804
      2901.1724       2260.6534
  -6646709.02845   -586370.80444  23836248.8984   23836255.0044
      3009.4384       2345.0164
   2586289.04846   2015285.83245  22199577.9454   22199583.8404
     -1431.8444      -1115.7224
   7966326.08945   6150220.87245  23726232.4304   23726239.0394
     -2457.1254      -1914.6434
 -11194749.27246  -8597524.64545  22503405.7814   22503411.8404
      3394.7664       2645.2724
    860296.72947    669540.92947  20592629.7664   20592634.5234
      -764.4694       -595.6904
 98  7 10 16  4 30.0000000  0  8G 4G 5G30G 6G 8G 9G10G24
   7768078.30946   6053046.17845  22981111.4224   22981116.3554
     -2472.9224      -1926.9524
  -4031273.38147  -3117495.30347  20273866.3914   20273870.5514
       686.0784        534.6064
 -10083855.23947  -7763368.36747  21420200.7274   21420204.8524
      2895.4064       2256.1614
  -6691852.64545   -621547.58444  23827658.9844   23827665.1954
      3009.8754       2345.3574
   2607818.65246   2032062.12045  22203675.0864   22203681.0164
     -1438.6874      -1121.0554
   8003192.74845   6178948.06045  23733248.0784   23733254.2194
     -2458.2814      -1915.5444
 -11245633.31746  -8637174.50845  22493723.0554   22493729.1604
      3389.9064       2641.4854
    871809.07847    678511.58647  20594820.4304   20594825.6454
      -770.3754       -600.2924
 98  7 10 16  4 45.0000000  0  8G 4G 5G30G 6G 8G 9G10G24
   7805189.80446   6081964.20545  22988173.5784   22988178.4184
     -2475.2974      -1928.8034
  -4041503.97547  -3125467.19647  20271919.5234   20271923.8594
       678.0314        528.3364
 -10127240.86447  -7797175.33747  21411944.7034   21411948.8754
      2889.3754       2251.4614
  -6737002.48145   -656729.21944  23819066.8674   23819073.5354
      3010.1414       2345.5644
   2629453.46946   2048920.38545  22207792.0084   22207797.9264
     -1445.9374      -1126.7054
   8040076.82645   6207688.83845  23740266.9924   23740273.0274
     -2459.5314      -1916.5184
 -11296443.55446  -8676766.85145  22484054.0004   22484060.0824
      3384.8284       2637.5284
    883412.73047    687553.38947  20597028.5554   20597033.6884
      -776.7974       -605.2964
 98  7 10 16  5  0.0000000  0  8G 4G 5G30G 6G 8G 9G10G24
   7842334.72346   6110908.28845  22995242.0004   22995246.6054
     -2477.4694      -1930.4954
  -4051617.85947  -3133348.14847  20269995.1334   20269999.2934
       670.3594        522.3584
 -10170539.35047  -7830914.40846  21403705.4774   21403709.6484
      2883.6724       2247.0174
  -6782159.58745   -691916.54544  23810473.4384   23810479.2384
      3010.6724       2345.9784
   2651192.13846   2065859.57645  22211928.9694   22211934.9104
     -1452.6724      -1131.9524
   8076976.13045   6236441.46045  23747288.5784   23747294.8594
     -2460.4374      -1917.2244
 -11347182.21346  -8716303.42945  22474398.8364   22474404.9654
      3380.2034       2633.9254
    895110.06447    696668.19047  20599254.3674   20599259.4774
      -782.8914       -610.0454
 98  7 10 16  5 15.0000000  0  8G 4G 5G30G 6G 8G 9G10G24
   7879512.86446   6139878.23345  23002316.8204   23002321.5084
     -2479.6724      -1932.2124
  -4061615.02747  -3141138.15147  20268092.6954   20268097.2304
       662.5004        516.2344
 -10213751.26447  -7864586.02647  21395482.2504   21395486.4344
      2877.8134       2242.4514
  -6827324.15845   -727109.62044  23801879.0314   23801886.1604
      3011.2034       2346.3924
   2673033.54946   2082878.82545  22216085.3134   22216091.1484
     -1459.6254      -1137.3704
   8113887.74445   6265203.68045  23754311.8914   23754319.0434
     -2461.2034      -1917.8214
 -11397849.66546  -8755784.52945  22464756.9924   22464762.6884
      3375.2974       2630.1014
    906897.42347    705853.14447  20601497.5004   20601502.5044
      -788.9064       -614.7324
 98  7 10 16  5 30.0000000  0  8G 4G 5G30G 6G 8G 9G10G24
   7916724.13846   6168874.02345  23009397.8754   23009403.0084
     -2481.7974      -1933.8684
  -4071493.59747  -3148835.73947  20266212.7734   20266217.1804
       654.6564        510.1224
 -10256874.07147  -7898188.20347  21387276.1954   21387280.4614
      2871.8914       2237.8374
  -6872496.00345   -762308.42344  23793282.6884   23793289.1914
      3011.7194       2346.7944
   2694981.18746   2099980.84645  22220261.5784   22220267.4614
     -1466.7194      -1142.8984
   8150812.78445   6293976.36145  23761339.1954   23761346.0164
     -2462.1254      -1918.5394
 -11448441.10346  -8795206.38345  22455129.8524   22455135.6294
      3370.1884       2626.1204
    918775.84847    715109.05847  20603757.8754   20603762.8794
      -794.8594       -619.3714
 98  7 10 16  5 45.0000000  0  8G 4G 5G30G 6G 8G 9G10G24
   7953971.35546   6197897.80145  23016485.8444   23016490.8364
     -2484.3754      -1935.8774
  -4081250.43047  -3156438.46947  20264356.2034   20264360.6914
       646.3594        503.6574
 -10299904.83647  -7931718.66247  21379087.8594   21379091.8794
      2865.6724       2232.9914
  -6917671.18545   -797509.77744  23784686.6174   23784694.0514
      3011.6724       2346.7574
   2717036.85246   2117167.04245  22224458.5944   22224464.5124
     -1473.9064      -1148.4984
   8187756.65945   6322763.71844  23768369.2274   23768376.3674
     -2463.6094      -1919.6964
 -11498950.19346  -8834564.07445  22445518.2814   22445523.8594
      3364.4844       2621.6764
    930745.86847    724436.34247  20606035.8444   20606040.7424
      -800.9844       -624.1444
 98  7 10 16  6  0.0000000  0  8G 4G 5G30G 6G 8G 9G10G24
   7991252.16346   6226947.75745  23023580.4064   23023584.7194
     -2486.5474      -1937.5694
  -4090887.65547  -3163947.99647  20262522.4064   20262526.8954
       638.4534        497.4964
 -10342846.74247  -7965179.88047  21370916.0394   21370920.0354
      2859.7344       2228.3644
  -6962847.46645   -832712.00344  23776089.3834   23776095.7584
      3011.6884       2346.7694
   2739194.96046   2134433.06945  22228675.2664   22228681.1844
     -1480.5944      -1153.7094
   8224717.58545   6351564.38245  23775403.0164   23775409.6374
     -2464.7034      -1920.5484
 -11549378.30046  -8873858.66845  22435921.9144   22435927.8444
      3359.0474       2617.4394
    942802.98147    733831.49347  20608330.1724   20608335.0704
      -806.9064       -628.7584
 98  7 10 16  6 15.0000000  0  8G 4G 5G30G 6G 8G 9G10G24
   8028566.05746   6256023.48945  23030680.4774   23030685.0474
     -2488.7194      -1939.2614
  -4100404.53047  -3171363.74947  20260711.2424   20260715.6724
       630.3754        491.2014
 -10385697.24647  -7998569.87147  21362762.1644   21362766.4064
      2853.5784       2223.5674
  -7008022.48345   -867913.27244  23767493.1334   23767499.3324
      3011.6094       2346.7094
   2761452.68646   2151776.72545  22232911.0164   22232916.9454
     -1487.2034      -1158.8604
   8261696.01345   6380378.68645  23782440.0704   23782447.1054
     -2465.7814      -1921.3884
 -11599722.56346  -8913087.91945  22426341.6174   22426347.6054
      3353.4694       2613.0934
    954951.55847    743297.91347  20610642.3054   20610647.4384
      -812.9844       -633.4944
 98  7 10 16  6 30.0000000  0  8G 4G 5G30G 6G 8G 9G10G24
   8065914.13546   6285125.87645  23037788.0314   23037793.0354
     -2491.0314      -1941.0634
  -4109799.28447  -3178684.33747  20258923.4144   20258927.8554
       622.3134        484.9194
 -10428453.91447  -8031886.74747  21354625.8054   21354629.8954
      2847.3444       2218.7094
  -7053195.65145   -903113.11044  23758897.2664   23758903.8054
      3011.4844       2346.6114
   2783812.28646   2169199.74845  22237165.8054   22237171.7934
     -1493.9844      -1164.1444
   8298691.28145   6409206.09445  23789480.0704   23789486.1524
     -2466.8444      -1922.2164
 -11649981.32646  -8952250.54845  22416777.9144   22416783.8444
      3347.7504       2608.6364
    967194.13547    752837.58347  20612971.8524   20612976.8094
      -819.3124       -638.4254
 98  7 10 16  6 45.0000000  0  8G 4G 5G30G 6G 8G 9G10G24
   8103296.36546   6314254.85145  23044901.4304   23044906.6334
     -2493.3284      -1942.8534
  -4119075.53747  -3185912.59147  20257158.3204   20257162.7034
       614.3914        478.7464
 -10471117.99247  -8065131.47847  21346507.1644   21346511.0314
      2841.1724       2213.9004
  -7098366.73245   -938311.28344  23750301.1644   23750307.1054
      3011.2344       2346.4164
   2806271.01446   2186700.02045  22241439.5704   22241445.4064
     -1500.5784      -1169.2824
   8335700.38845   6438044.29145  23796522.3524   23796528.3874
     -2467.7504      -1922.9224
 -11700157.85746  -8991349.10545  22407229.5004   22407235.6994
      3342.4534       2604.5094
    979530.63847    762450.43547  20615319.1884   20615324.1564
      -825.5784       -643.3084
 98  7 10 16  7  0.0000000  0  8G 4G 5G30G 6G 8G 9G10G24
   8140714.07146   6343411.48745  23052021.9384   23052027.0004
     -2495.7504      -1944.7404
  -4128230.47847  -3193046.31347  20255416.2114   20255420.6414
       606.2344        472.3904
 -10513689.87247  -8098304.36247  21338406.1954   21338410.2854
      2835.0474       2209.1274
  -7143533.74645   -973506.33544  23741705.4774   23741712.0744
      3010.9534       2346.1974
   2828828.88046   2204277.52945  22245732.4454   22245738.3164
     -1507.2194      -1174.4564
   8372723.07745   6466893.05944  23803567.9304   23803574.5044
     -2468.7034      -1923.6654
 -11750256.45846  -9030386.93445  22397696.0164   22397702.0744
      3337.3134       2600.5034
    991960.16147    772135.77247  20617684.5084   20617689.6054
      -831.7194       -648.0934
 98  7 10 16  7 15.0000000  0  8G 4G 5G30G 6G 8G 9G10G24
   8178168.35946   6372596.62645  23059149.1334   23059154.4534
     -2497.9374      -1946.4454
  -4137262.03747  -3200083.89747  20253697.5864   20253701.9574
       598.1414        466.0844
 -10556169.03947  -8131405.00247  21330322.5864   21330326.6174
      2829.0164       2204.4284
  -7188694.20945  -1008696.25344  23733111.4144   23733117.4614
      3010.6094       2345.9294
   2851489.22346   2221934.90645  22250044.2734   22250049.8874
     -1514.0004      -1179.7404
   8409762.34645   6495754.76444  23810615.9694   23810622.3094
     -2469.6724      -1924.4204
 -11800275.62046  -9069362.87245  22388177.5634   22388183.5984
      3332.0474       2596.4004
   1004481.71847    781892.82547  20620067.2584   20620072.0044
      -837.5624       -652.6464
 98  7 10 16  7 30.0000000  0  8G 4G 5G30G 6G 8G 9G10G24
   8215654.91346   6401806.90745  23066282.6024   23066287.4534
     -2500.1254      -1948.1494
  -4146171.61347  -3207026.42747  20252001.8444   20252006.0164
       589.9384        459.6924
 -10598557.86147  -8164435.24047  21322255.8364   21322259.6334
      2822.9534       2199.7044
  -7233848.45145  -1043881.34044  23724519.5164   23724525.3874
      3010.0314       2345.4794
   2874252.31546   2239672.34745  22254375.9064   22254381.9414
     -1520.9534      -1185.1584
   8446816.19045   6524627.82244  23817667.6414   23817673.9344
     -2470.7034      -1925.2234
 -11850215.48346  -9108277.01345  22378674.4144   22378680.5434
      3326.8134       2592.3214
   1017091.26147    791718.44347  20622466.9224   20622471.4454
      -843.6254       -657.3704
 98  7 10 16  7 45.0000000  0  8G 4G 5G30G 6G 8G 9G10G24
   8253172.06946   6431041.02445  23073422.2274   23073426.9024
     -2502.2814      -1949.8304
  -4154960.86747  -3213875.20147  20250329.6254   20250333.9264
       581.8594        453.3974
 -10640858.98447  -8197397.14947  21314206.3364   21314210.3554
      2817.0944       2195.1384
  -7278994.70545  -1079060.16444  23715928.5314   23715934.7544
      3009.3444       2344.9434
   2897116.44646   2257488.50445  22258726.9304   22258732.8244
     -1527.6724      -1190.3944
   8483883.04445   6553511.03745  23824721.2584   23824727.0594
     -2471.5624      -1925.8934
 -11900081.52546  -9147133.63045  22369185.1564   22369191.1094
      3321.8914       2588.4864
   1029787.70847    801611.78047  20624882.6954   20624887.3954
      -849.3284       -661.8144
 98  7 10 16  8  0.0000000  0  8G 4G 5G30G 6G 8G 9G10G24
   8290724.93746   6460302.98345  23080567.9534   23080572.3834
     -2504.6724      -1951.6924
  -4163624.10747  -3220625.77947  20248681.1024   20248685.3794
       573.2814        446.7134
 -10683068.94847  -8230288.02047  21306173.9694   21306178.0354
      2810.9224       2190.3294
  -7324126.09645  -1114227.41644  23707340.3984   23707345.7664
      3008.2034       2344.0544
   2920084.95846   2275386.00945  22263097.9534   22263103.7664
     -1534.8444      -1195.9824
   8520964.42045   6582405.52345  23831777.2344   23831784.3284
     -2472.5784      -1926.6844
 -11949871.39546  -9185930.89645  22359710.4844   22359716.2854
      3316.8444       2584.5544
   1042573.65347    811574.85247  20627316.0314   20627320.6134
      -855.4844       -666.6114
 98  7 10 16  8 15.0000000  0  8G 4G 5G30G 6G 8G 9G10G24
   8328311.41646   6489591.11045  23087721.0234   23087725.8874
     -2506.7194      -1953.2874
  -4172159.87447  -3227277.03147  20247056.5864   20247060.8054
       564.9694        440.2354
 -10725187.02547  -8263107.28747  21298159.4534   21298163.4494
      2805.0004       2185.7144
  -7369241.99945  -1149382.60444  23698754.6174   23698760.6764
      3007.4694       2343.4824
   2943162.57646   2293368.52545  22267489.4774   22267495.3834
     -1542.0314      -1201.5834
   8558059.55745   6611310.77145  23838836.9774   23838843.4224
     -2473.3124      -1927.2564
 -11999587.65446  -9224670.81345  22350250.2194   22350256.1024
      3312.1414       2580.8894
   1055451.57047    821609.58747  20629766.6334   20629771.6374
      -861.4224       -671.2384
 98  7 10 16  8 30.0000000  0  8G 4G 5G30G 6G 8G 9G10G24
   8365927.87846   6518902.62745  23094878.7664   23094883.0204
     -2508.7664      -1954.8824
  -4180571.73047  -3233831.72847  20245456.0084   20245460.2384
       556.7034        433.7954
 -10767217.71947  -8295858.47347  21290161.1094   21290164.9774
      2799.2034       2181.1974
  -7414349.27245  -1184531.08944  23690170.9774   23690177.6334
      3006.8754       2343.0194
   2966348.55246   2311435.48245  22271901.5634   22271907.4454
     -1549.3914      -1207.3174
   8595164.36645   6640223.54445  23845897.5314   23845903.3204
     -2473.9534      -1927.7564
 -12049234.73946  -9263356.81245  22340802.5234   22340808.1134
      3307.5634       2577.3214
   1068415.74347    831711.53547  20632233.6174   20632238.6564
      -867.0164       -675.5974
 98  7 10 16  8 45.0000000  0  8G 4G 5G30G 6G 8G 9G10G24
   8403575.68946   6548238.54945  23102043.0704   23102048.2154
     -2510.8754      -1956.5264
  -4188860.24747  -3240290.31647  20243878.7664   20243882.8914
       548.4694        427.3784
 -10809161.78647  -8328542.15047  21282179.4384   21282183.3524
      2793.4064       2176.6804
  -7459446.22445  -1219671.51444  23681589.4534   23681595.6294
      3006.0944       2342.4114
   2989644.74646   2329588.32245  22276334.6724   22276340.4614
     -1556.6874      -1213.0034
   8632279.56045   6669144.41945  23852960.0314   23852967.0904
     -2474.6094      -1928.2674
 -12098813.43646  -9301989.52745  22331367.6334   22331373.5044
      3303.0164       2573.7784
   1081463.53847    841878.64647  20634716.5234   20634721.4104
      -872.5944       -679.9434
 98  7 10 16  9  0.0000000  0  8G 4G 5G30G 6G 8G 9G10G24
   8441256.38146   6577600.10245  23109213.7814   23109218.3984
     -2513.1724      -1958.3164
  -4197020.13247  -3246648.67047  20242325.9454   20242330.1414
       539.4534        420.3534
 -10851016.46847  -8361156.17747  21274214.8204   21274218.7934
      2787.2194       2171.8594
  -7504528.68745  -1254800.64945  23673010.0634   23673016.5434
      3004.8914       2341.4734
   3013054.23746   2347829.44845  22280789.6484   22280795.6484
     -1564.5784      -1219.1524
   8669406.64345   6698074.54545  23860025.5944   23860032.5824
     -2475.6724      -1929.0954
 -12148322.16846  -9340567.72545  22321946.4384   22321952.2974
      3298.1094       2569.9554
   1094597.74547    852113.09047  20637216.0004   20637220.8874
      -878.6254       -684.6434
 98  7 10 16  9 15.0000000  0  8G 4G 5G30G 6G 8G 9G10G24
   8478965.53346   6606983.84945  23116389.2424   23116393.5554
     -2514.6874      -1959.4974
  -4205048.43847  -3252904.50247  20240798.3594   20240802.5784
       531.0164        413.7784
 -10892782.82247  -8393701.38047  21266266.9064   21266270.7384
      2781.5944       2167.4764
  -7549596.72545  -1289918.57644  23664433.8594   23664440.1644
      3004.1414       2340.8894
   3036577.12846   2366158.92545  22285265.7664   22285271.7544
     -1571.8284      -1224.8014
   8706545.29245   6727013.69745  23867092.6564   23867099.7384
     -2476.1564      -1929.4724
 -12197760.12146  -9379090.78145  22312538.6484   22312544.5904
      3293.5634       2566.4124
   1107817.76447    862414.40147  20639731.5084   20639736.2424
      -884.0784       -688.8924
 98  7 10 16  9 30.0000000  0  8G 4G 5G30G 6G 8G 9G10G24
   8516695.32646   6636383.65445  23123568.9614   23123573.8364
     -2516.5004      -1960.9094
  -4212953.73547  -3259064.47947  20239294.0704   20239298.2894
       522.5004        407.1434
 -10934465.03547  -8426181.01647  21258335.0944   21258338.9964
      2775.4694       2162.7034
  -7594654.72245  -1325028.61944  23655859.3594   23655865.3714
      3003.0164       2340.0124
   3060206.06046   2384571.04445  22289762.1644   22289767.9774
     -1579.1724      -1230.5244
   8743689.55145   6755957.18145  23874161.3054   23874167.2114
     -2476.9534      -1930.0934
 -12247129.38746  -9417560.30446  22303144.1174   22303150.0354
      3288.5164       2562.4804
   1121119.12447    872779.09747  20642262.7114   20642267.4694
      -890.0004       -693.5064
 98  7 10 16  9 45.0000000  0  8G 4G 5G30G 6G 8G 9G10G24
   8554451.92546   6665804.35545  23130753.9304   23130759.4264
     -2518.0314      -1962.1024
  -4220732.37047  -3265125.75847  20237813.7814   20237818.1764
       514.3444        400.7874
 -10976056.29447  -8458589.77947  21250420.5944   21250424.6024
      2769.7194       2158.2224
  -7639695.51945  -1360125.26845  23647288.3134   23647294.3594
      3002.1414       2339.3304
   3083942.25046   2403066.72845  22294279.3364   22294285.3014
     -1585.9374      -1235.7954
   8780844.14045   6784908.77045  23881231.1484   23881237.3364
     -2477.3594      -1930.4104
 -12296425.23346  -9455972.62145  22293763.2424   22293769.1374
      3283.9534       2558.9254
   1134510.45347    883213.89847  20644810.8204   20644815.6844
      -895.7664       -697.9994
 98  7 10 16 10  0.0000000  0  8G 4G 5G30G 6G 8G 9G10G24
   8592234.25646   6695245.11345  23137943.4924   23137949.0234
     -2519.5944      -1963.3204
  -4228385.90647  -3271089.56047  20236357.4064   20236361.7074
       506.1254        394.3834
 -11017557.75447  -8490928.56947  21242523.1414   21242527.1024
      2763.7504       2153.5714
  -7684721.37045  -1395210.30345  23638720.7504   23638726.3054
      3001.2974       2338.6734
   3107781.65846   2421642.83845  22298815.3674   22298821.2734
     -1592.6874      -1241.0554
   8818009.73345   6813868.89245  23888303.7194   23888310.2704
     -2478.0784      -1930.9704
 -12345647.17546  -9494327.34345  22284396.7344   22284402.6414
      3278.9064       2554.9924
   1147990.12147    893717.53447  20647375.9924   20647381.0204
      -901.6254       -702.5654
 98  7 10 16 10 15.0000000  0  8G 4G 5G30G 6G 8G 9G10G24
   8630037.57646   6724702.21945  23145137.4844   23145143.3444
     -2520.8444      -1964.2944
  -4235918.57347  -3276959.17747  20234923.8834   20234928.1844
       498.2194        388.2224
 -11058969.21547  -8523197.22947  21234642.6884   21234646.5664
      2757.7344       2148.8844
  -7729736.03645  -1430286.62145  23630154.3134   23630160.4654
      3000.6414       2338.1624
   3131721.76646   2440297.43445  22303371.2424   22303377.1374
     -1599.3594      -1246.2544
   8855186.56345   6842837.79145  23895378.7274   23895385.2424
     -2478.8914      -1931.6034
 -12394792.35946  -9532622.26446  22275044.7424   22275050.3324
      3273.7034       2550.9384
   1161559.23747    904290.86747  20649958.2194   20649963.1054
      -907.6094       -707.2284
 98  7 10 16 10 30.0000000  0  8G 4G 5G30G 6G 8G 9G10G24
   8667860.07046   6754174.25045  23152334.6804   23152339.8484
     -2522.1874      -1965.3414
  -4243333.45447  -3282737.01347  20233512.8754   20233517.2114
       490.3914        382.1234
 -11100290.46947  -8555395.59747  21226779.3834   21226783.3554
      2751.7194       2144.1964
  -7774741.42245  -1465355.68345  23621590.8444   23621596.6684
      3000.0944       2337.7354
   3155759.68446   2459028.23345  22307945.3134   22307951.2894
     -1605.6564      -1251.1614
   8892375.03845   6871815.75345  23902455.2894   23902461.6054
     -2479.5624      -1932.1274
 -12443858.11846  -9570855.29846  22265707.7274   22265713.7504
      3268.3134       2546.7374
   1175216.49847    914932.88847  20652557.1954   20652562.0124
      -913.3914       -711.7334
 98  7 10 16 10 45.0000000  0  8G 4G 5G30G 6G 8G 9G10G24
   8705706.46446   6783664.92245  23159536.4694   23159541.6254
     -2523.9224      -1966.6924
  -4250625.84747  -3288419.39947  20232125.1024   20232129.2974
       481.9694        375.5604
 -11141516.22447  -8587519.55047  21218934.6254   21218938.6094
      2745.0944       2139.0344
  -7819735.04145  -1500415.60245  23613028.5084   23613034.7194
      2999.0474       2336.9204
   3179893.47046   2477833.74545  22312538.3524   22312544.3164
     -1612.0944      -1256.1774
   8929577.60545   6900804.68545  23909534.1174   23909539.9414
     -2480.7194      -1933.0284
 -12492837.66946  -9609021.14246  22256387.4224   22256393.2934
      3262.3444       2542.0864
   1188964.80147    925645.84847  20655173.2194   20655178.0004
      -919.6874       -716.6404
 98  7 10 16 11  0.0000000  0  8G 4G 5G30G 6G 8G 9G10G24
   8743575.45846   6813173.19445  23166742.5704   23166747.4924
     -2525.1564      -1967.6544
  -4257792.26847  -3294003.63047  20230761.3834   20230765.5664
       473.6094        369.0464
 -11182642.28847  -8619565.82747  21211108.7274   21211112.8164
      2738.4384       2133.8474
  -7864714.66445  -1535464.60145  23604468.6804   23604475.5634
      2998.3914       2336.4084
   3204120.04746   2496711.55245  22317148.6564   22317154.6914
     -1618.0004      -1260.7794
   8966795.87745   6929805.88945  23916616.7504   23916623.6804
     -2481.6094      -1933.7224
 -12541729.28746  -9647118.47346  22247083.5394   22247089.5984
      3256.6254       2537.6304
   1202807.38947    936432.28047  20657807.6024   20657812.5004
      -925.8754       -721.4614
 98  7 10 16 11 15.0000000  0  8G 4G 5G30G 6G 8G 9G10G24
   8781461.82446   6842695.00845  23173952.5634   23173958.0704
     -2526.2034      -1968.4704
  -4264832.35647  -3299489.41647  20229421.9614   20229426.1334
       465.2974        362.5694
 -11223668.00647  -8651533.90547  21203301.3204   21203305.1174
      2731.8284       2128.6974
  -7909686.17545  -1570507.28645  23595910.8284   23595917.0164
      2998.0164       2336.1164
   3228434.74046   2515658.02645  22321775.2344   22321781.1644
     -1623.7344      -1265.2484
   9004029.26144   6958818.81245  23923701.7194   23923708.7074
     -2482.6564      -1934.5374
 -12590533.96846  -9685148.06246  22237796.1024   22237802.1254
      3250.7974       2533.0884
   1216742.47347    947290.78547  20660459.3054   20660464.2504
      -931.9534       -726.1974
 98  7 10 16 11 30.0000000  0  8G 4G 5G30G 6G 8G 9G10G24
   8819361.99446   6872227.59045  23181164.7894   23181169.9344
     -2527.5474      -1969.5174
  -4271753.09547  -3304882.20247  20228104.9614   20228109.3204
       457.0944        356.1774
 -11264597.96747  -8683427.37247  21195512.8674   21195516.7584
      2725.1414       2123.4864
  -7954656.89645  -1605549.36445  23587353.4454   23587360.0554
      2997.7504       2335.9094
   3252830.44446   2534667.63445  22326417.5634   22326423.4804
     -1629.4224      -1269.6794
   9041273.51844   6987840.24844  23930789.4064   23930796.2154
     -2483.5624      -1935.2444
 -12639253.69946  -9723111.46046  22228525.0784   22228531.1134
      3244.8134       2528.4254
   1230765.34247    958217.69846  20663127.8674   20663132.7664
      -938.1094       -730.9944
 98  7 10 16 11 45.0000000  0  8G 4G 5G30G 6G 8G 9G10G24
   8857286.99346   6901779.52145  23188381.7114   23188386.7034
     -2529.1564      -1970.7714
  -4278546.45747  -3310175.73547  20226812.1724   20226816.5314
       448.5784        349.5414
 -11305425.13347  -8715240.73347  21187743.6804   21187747.7814
      2718.5004       2118.3124
  -7999622.38345  -1640587.36545  23578796.8134   23578802.8014
      2997.6724       2335.8484
   3277314.87646   2553746.36845  22331076.8754   22331082.6174
     -1635.2344      -1274.2094
   9078533.28444   7016873.73744  23937879.9924   23937888.1884
     -2484.3914      -1935.8894
 -12687880.60746  -9761002.53046  22219271.6644   22219277.5474
      3238.7814       2523.7264
   1244882.92047    969218.40547  20665814.1564   20665819.1954
      -944.2344       -735.7674
 98  7 10 16 12  0.0000000  0  8G 4G 5G30G 6G 8G 9G10G24
   8895237.08646   6931351.00145  23195603.6174   23195608.5394
     -2530.7814      -1972.0374
  -4285208.88947  -3315367.24247  20225544.0554   20225548.4024
       439.7974        342.6994
 -11346153.23047  -8746976.89947  21179993.2974   21179997.1644
      2711.9384       2113.1984
  -8044587.31345  -1675624.91945  23570240.1804   23570246.4844
      2997.7974       2335.9464
   3301888.39146   2572894.53245  22335752.9844   22335758.7384
     -1641.1874      -1278.8474
   9115805.17044   7045916.67444  23944972.9304   23944980.4804
     -2485.1564      -1936.4854
 -12736415.57646  -9798821.96346  22210035.6484   22210041.3794
      3232.5784       2518.8924
   1259091.84447    980290.29147  20668518.2424   20668523.3984
      -950.1724       -740.3944
 98  7 10 16 12 15.0000000  0  8G 4G 5G30G 6G 8G 9G10G24
   8933213.90246   6960943.30445  23202830.1254   23202834.3324
     -2532.7974      -1973.6084
  -4291736.10947  -3320453.39247  20224302.1024   20224306.2624
       430.5314        335.4794
 -11386778.49647  -8778632.94347  21172262.6724   21172266.5864
      2704.7974       2107.6344
  -8089553.02545  -1710663.08645  23561683.3594   23561688.8674
      2997.6564       2335.8364
   3326554.78946   2592115.05445  22340447.3594   22340453.1604
     -1647.6564      -1283.8884
   9153089.84144   7074969.60344  23952067.6644   23952075.1334
     -2486.0164      -1937.1554
 -12784852.83146  -9836565.23545  22200818.3054   22200824.2234
      3225.7814       2513.5964
   1273391.84947    991433.14547  20671239.2034   20671244.2664
      -956.4844       -745.3124
 98  7 10 16 12 30.0000000  0  8G 4G 5G30G 6G 8G 9G10G24
   8971218.15046   6990556.99145  23210061.9924   23210066.8094
     -2534.4224      -1974.8744
  -4298127.56147  -3325433.74847  20223086.1414   20223090.5824
       421.6414        328.5514
 -11427300.65347  -8810208.63847  21164551.5784   21164555.6334
      2698.2344       2102.5204
  -8134519.93145  -1745702.18545  23553126.8914   23553132.9614
      2998.0164       2336.1164
   3351313.55446   2611407.56045  22345158.6724   22345164.5314
     -1653.4374      -1288.3934
   9190381.82744   7104028.17444  23959164.2274   23959170.3794
     -2486.1564      -1937.2654
 -12833193.12546  -9874232.97045  22191619.5164   22191625.4104
      3219.6564       2508.8234
   1287781.22947   1002645.65146  20673977.4304   20673982.3984
      -961.9694       -749.5864
 98  7 10 16 12 45.0000000  0  8G 4G 5G30G 6G 8G 9G10G24
   9009252.99746   7020194.51145  23217299.9454   23217305.3244
     -2536.8444      -1976.7614
  -4304379.39247  -3330305.31147  20221896.2274   20221900.5164
       412.0004        321.0394
 -11467719.16047  -8841703.56947  21156860.3204   21156864.1764
      2690.9224       2096.8224
  -8179488.00245  -1780742.20645  23544568.9064   23544575.1054
      2997.7664       2335.9214
   3376163.51946   2630771.13345  22349887.1414   22349893.1414
     -1659.8754      -1293.4094
   9227679.18545   7133091.02244  23966262.0314   23966268.7114
     -2486.7974      -1937.7644
 -12881437.67146  -9911826.08245  22182438.8204   22182444.8444
      3212.9844       2503.6244
   1302256.00747   1013924.69546  20676731.9454   20676737.1844
      -967.9844       -754.2744
 98  7 10 16 13  0.0000000  0  8G 4G 5G30G 6G 8G 9G10G24
   9047320.30846   7049857.32945  23224544.1884   23224549.6024
     -2539.0164      -1978.4544
  -4310491.17047  -3335067.74147  20220733.2034   20220737.5044
       402.7194        313.8074
 -11508031.20647  -8873115.54447  21149189.0554   21149193.0394
      2683.8134       2091.2824
  -8224455.03445  -1815781.42445  23536012.5394   23536018.5744
      2997.6254       2335.8124
   3401108.08446   2650208.42045  22354634.2734   22354640.3554
     -1666.3284      -1298.4374
   9264983.85444   7162159.49044  23973361.2194   23973368.6054
     -2487.2974      -1938.1534
 -12929587.34546  -9949345.28245  22173276.3674   22173282.3554
      3206.7814       2498.7914
   1316817.44147   1025271.26346  20679502.8914   20679508.1764
      -973.7194       -758.7424
 98  7 10 16 13 15.0000000  0  8G 4G 5G30G 6G 8G 9G10G24
   9085418.89446   7079544.50845  23231793.8444   23231799.0004
     -2540.8754      -1979.9034
  -4316465.26947  -3339722.88847  20219596.4534   20219600.7074
       393.8134        306.8674
 -11548239.19647  -8904446.43847  21141537.8754   21141541.7774
      2677.2974       2086.2054
  -8269422.71745  -1850821.14545  23527455.2734   23527461.1214
      2998.0164       2336.1164
   3426149.92246   2669721.50145  22359399.4774   22359405.4534
     -1672.6874      -1303.3934
   9302293.27444   7191231.69044  23980460.1414   23980467.1174
     -2487.2974      -1938.1534
 -12977645.68946  -9986793.31846  22164130.9534   22164136.9774
      3200.9224       2494.2254
   1331462.77847   1036683.21046  20682289.9144   20682295.1764
      -978.9844       -762.8454
 98  7 10 16 13 30.0000000  0  8G 4G 5G30G 6G 8G 9G10G24
   9123554.01446   7109260.15745  23239050.7894   23239056.1564
     -2543.5164      -1981.9604
  -4322299.64747  -3344269.16047  20218486.0864   20218490.3524
       384.4844        299.5984
 -11588344.89547  -8935697.61947  21133905.8134   21133909.8204
      2670.4384       2080.8604
  -8314387.53445  -1885858.61545  23518899.0084   23518905.0904
      2997.5634       2335.7634
   3451297.37946   2689316.87345  22364184.8364   22364190.8244
     -1679.9844      -1309.0794
   9339608.74345   7220308.60844  23987561.3834   23987568.1454
     -2487.7194      -1938.4824
 -13025607.07546 -10024165.78945  22155004.3054   22155010.1174
      3194.2974       2489.0634
   1346193.67647   1048161.82946  20685093.1724   20685098.2934
      -984.7664       -767.3504
 98  7 10 16 13 45.0000000  0  8G 4G 5G30G 6G 8G 9G10G24
   9161726.90745   7139005.25845  23246314.6954   23246320.2624
     -2546.0624      -1983.9454
  -4327997.50047  -3348709.04947  20217402.0634   20217406.2464
       375.3754        292.5004
 -11628350.67647  -8966870.94547  21126292.9924   21126296.7544
      2663.8134       2075.6984
  -8359346.70045  -1920891.67145  23510343.5474   23510350.6994
      2997.0944       2335.3984
   3476551.21446   2708995.14645  22368990.6094   22368996.7154
     -1687.0784      -1314.6064
   9376925.86445   7249386.79044  23994663.2664   23994669.9574
     -2487.8124      -1938.5554
 -13073472.92546 -10061463.82746  22145895.6024   22145901.7774
      3187.9694       2484.1314
   1361007.40447   1059704.99346  20687912.0784   20687917.2814
      -990.2504       -771.6234
 98  7 10 16 14  0.0000000  0  8G 4G 5G30G 6G 8G 9G10G24
   9199937.54845   7168779.74745  23253586.0864   23253591.2194
     -2548.6254      -1985.9424
  -4333558.96947  -3353042.66847  20216343.6724   20216348.0084
       366.1564        285.3174
 -11668255.97547  -8997965.97647  21118699.1804   21118703.2114
      2656.8444       2070.2684
  -8404298.63545  -1955919.13345  23501788.9694   23501795.3094
      2996.4384       2334.8864
   3501911.51946   2728756.38645  22373816.5784   22373822.8714
     -1694.2814      -1320.2194
   9414247.94345   7278468.84844  24001764.9454   24001770.6414
     -2488.5004      -1939.0914
 -13121243.35746 -10098687.49746  22136805.3984   22136811.2934
      3181.4384       2479.0424
   1375903.18547   1071312.09046  20690746.6174   20690751.9614
      -995.8914       -776.0194
 98  7 10 16 14 14.9990000  0  8G 4G 5G30G 6G 8G 9G10G24
   9238182.48045   7198580.97345  23260863.7224   23260869.2654
     -2550.7664      -1987.6104
  -4338982.75647  -3357268.99747  20215311.5734   20215315.8974
       357.3444        278.4504
 -11708051.06747  -9028975.12947  21111126.3624   21111130.3584
      2649.7814       2064.7654
  -8449234.85345  -1990934.31545  23493238.0734   23493244.2724
      2995.6884       2334.3024
   3527377.25046   2748599.77245  22378662.7844   22378668.8434
     -1701.0944      -1325.5284
   9451578.96245   7307557.88544  24008869.1124   24008874.9374
     -2489.0314      -1939.5054
 -13168913.03746 -10135832.67546  22127733.8944   22127740.0224
      3175.2504       2474.2214
   1390883.68647   1082985.20946  20693597.1754   20693602.4954
     -1001.4224       -780.3294
 98  7 10 16 14 29.9990000  0  8G 4G 5G30G 6G 8G 9G10G24
   9276464.31545   7228410.95845  23268148.3154   23268153.5194
     -2553.3124      -1989.5944
  -4344272.62847  -3361390.98347  20214305.0814   20214309.3824
       348.1564        271.2914
 -11747741.76447  -9059902.93547  21103573.4874   21103577.4374
      2642.5004       2059.0914
  -8494157.98645  -2025939.30445  23484689.2534   23484694.9954
      2994.1884       2333.1334
   3552948.71046   2768525.54645  22383528.9564   22383535.0034
     -1708.2344      -1331.0924
   9488922.21745   7336656.47244  24015975.2144   24015981.6244
     -2489.9224      -1940.1994
 -13216493.19746 -10172908.07646  22118679.6204   22118685.5034
      3169.0004       2469.3514
   1405951.33947   1094726.23246  20696464.4954   20696469.7694
     -1007.4694       -785.0414
 98  7 10 16 14 44.9990000  0  8G 4G 5G30G 6G 8G 9G10G24
   9314780.46145   7258267.65945  23275439.7694   23275445.4994
     -2555.5624      -1991.3474
  -4349428.70647  -3365408.71547  20213323.7614   20213328.0264
       339.2504        264.3514
 -11787326.90547  -9090748.49347  21096040.8944   21096044.8434
      2635.4384       2053.5884
  -8539060.75145  -2060928.41545  23476144.6594   23476150.9874
      2992.7974       2332.0504
   3578623.01946   2788531.45845  22388414.4014   22388420.2614
     -1715.0784      -1336.4254
   9526276.83745   7365763.91544  24023083.3004   24023089.5814
     -2490.7664      -1940.8564
 -13263984.75046 -10209914.44946  22109642.2224   22109648.2224
      3163.1254       2464.7734
   1421106.18347   1106535.19746  20699348.4174   20699353.6444
     -1013.2974       -789.5824
 98  7 10 16 14 59.9990000  0  8G 4G 5G30G 6G 8G 9G10G24
   9353131.27245   7288151.39345  23282738.0344   23282743.4834
     -2558.1414      -1993.3564
  -4354450.82447  -3369322.05547  20212368.1204   20212372.3974
       330.1254        257.2404
 -11826804.53247  -9121510.27247  21088528.2764   21088532.4254
      2628.0314       2047.8174
  -8583941.92245  -2095900.71845  23467604.2374   23467610.6364
      2991.0944       2330.7224
   3604403.82046   2808620.35645  22393320.1754   22393325.9644
     -1722.6094      -1342.2934
   9563645.66745   7394882.40444  24030194.8624   24030201.7574
     -2492.0004      -1941.8184
 -13311386.26446 -10246850.66246  22100622.1674   22100627.9444
      3156.8134       2459.8544
   1436353.06247   1118415.87946  20702249.8624   20702254.9834
     -1019.8754       -794.7084
 98  7 10 16 15 14.9990000  0  8G 4G 5G30G 6G 8G 9G10G24
   9391519.83845   7318064.53545  23290043.0654   23290048.6324
     -2560.1414      -1994.9154
  -4359335.63647  -3373128.40847  20211438.6364   20211442.9954
       321.3134        250.3734
 -11866172.54047  -9152186.63247  21081036.9804   21081040.9644
      2621.2194       2042.5084
  -8628798.02745  -2130853.48345  23459067.8704   23459073.0034
      2989.8754       2329.7734
   3630295.31046   2828795.49345  22398247.3944   22398253.1124
     -1729.3914      -1347.5774
   9601032.77345   7424015.14045  24037309.3864   24037315.5974
     -2492.7194      -1942.3784
 -13358693.63646 -10283713.52446  22091619.8234   22091625.9054
      3150.9224       2455.2644
   1451698.53647   1130373.38946  20705169.9954   20705175.1634
     -1026.0624       -799.5294
 98  7 10 16 15 29.9990000  0  8G 4G 5G30G 6G 8G 9G10G24
   9429934.55445   7347998.04845  23297352.9874   23297358.7654
     -2561.7344      -1996.1574
  -4364089.48647  -3376832.71047  20210533.9804   20210538.3624
       312.7034        243.6654
 -11905440.73447  -9182785.21547  21073564.6204   21073568.6874
      2614.6094       2037.3584
  -8673637.39345  -2165793.21445  23450535.1054   23450541.9134
      2988.7504       2328.8964
   3656284.47846   2849046.74245  22403193.0814   22403199.0114
     -1735.6874      -1352.4844
   9638426.86445   7453153.32244  24044425.4644   24044432.1444
     -2493.0474      -1942.6344
 -13405911.75346 -10320506.82646  22082634.3154   22082640.2104
      3144.9224       2450.5884
   1467135.34047   1142402.06546  20708107.5974   20708112.6124
     -1032.0784       -804.2174
 98  7 10 16 15 44.9990000  0  8G 4G 5G30G 6G 8G 9G10G24
   9468375.11445   7377951.70445  23304668.2374   23304673.6514
     -2563.6564      -1997.6544
  -4368714.13447  -3380436.33747  20209654.0194   20209658.3084
       303.9534        236.8474
 -11944605.48847  -9213303.19647  21066111.6984   21066115.5194
      2607.3284       2031.6844
  -8718456.56345  -2200717.19544  23442006.2924   23442012.2224
      2987.1724       2327.6664
   3682366.95646   2869370.71245  22408156.4644   22408162.3704
     -1741.8914      -1357.3174
   9675827.88945   7482296.89445  24051542.5504   24051549.8784
     -2493.7344      -1943.1704
 -13453038.74746 -10357229.12546  22073666.5344   22073672.3824
      3138.7504       2445.7794
   1482664.67747   1154502.83946  20711062.4484   20711067.5224
     -1038.4844       -809.2094
 98  7 10 16 15 59.9990000  0  8G 4G 5G30G 6G 8G 9G10G24
   9506844.27246   7407927.64245  23311988.7304   23311994.1204
     -2565.1874      -1998.8474
  -4373208.09747  -3383938.12847  20208798.8944   20208803.1364
       295.5004        230.2604
 -11983658.82447  -9243734.36247  21058679.9094   21058683.8944
      2600.0634       2026.0234
  -8763252.37245  -2235622.98645  23433482.3944   23433488.5694
      2985.9384       2326.7054
   3708540.74946   2889765.82545  22413137.0424   22413143.3584
     -1747.6724      -1361.8224
   9713241.00545   7511449.88945  24058662.1674   24058669.4254
     -2494.3754      -1943.6694
 -13500072.63546 -10393878.88046  22064716.1444   22064721.9914
      3132.7194       2441.0804
   1498291.49547   1166679.57646  20714036.2454   20714041.4724
     -1044.8124       -814.1404
 98  7 10 16 16 14.9990000  0  8G 4G 5G30G 6G 8G 9G10G24
   9545332.39445   7437918.37045  23319312.5424   23319316.8904
     -2566.4064      -1999.7974
  -4377575.47747  -3387341.28747  20207967.6984   20207971.9054
       286.9534        223.6004
 -12022602.60747  -9274080.15747  21051269.1284   21051273.2064
      2592.6254       2020.2274
  -8808031.42845  -2270515.71744  23424960.8234   23424966.4374
      2984.6884       2325.7314
   3734800.19346   2910227.67345  22418134.0814   22418140.1164
     -1753.3754      -1366.2664
   9750661.88945   7540608.94245  24065783.0194   24065789.6054
     -2494.8594      -1944.0464
 -13547017.46146 -10430459.23546  22055782.8944   22055788.9054
      3126.7344       2436.4164
   1514012.01947   1178929.33246  20717027.8394   20717032.6674
     -1051.1254       -819.0584
 98  7 10 16 16 29.9990000  0  8G 4G 5G30G 6G 8G 9G10G24
   9583841.18545   7467925.19245  23326640.7144   23326645.9404
     -2568.1094      -2001.1244
  -4381812.97047  -3390643.23247  20207161.4874   20207165.6944
       278.0004        216.6234
 -12061434.40847  -9304338.69547  21043879.8474   21043884.0304
      2584.9694       2014.2614
  -8852790.12645  -2305392.57645  23416443.3624   23416448.7304
      2983.1254       2324.5134
   3761146.47646   2930757.19845  22423147.6284   22423153.4764
     -1759.5784      -1371.1004
   9788088.53145   7569772.48244  24072905.6284   24072911.8044
     -2495.3914      -1944.4604
 -13593870.49346 -10466968.05646  22046867.1754   22046872.8584
      3120.2664       2431.3764
   1529827.77747   1191253.29646  20720037.3624   20720042.3664
     -1057.6414       -824.1364
 98  7 10 16 16 44.9990000  0  8G 4G 5G30G 6G 8G 9G10G24
   9622374.44745   7497951.08245  23333973.5504   23333979.0344
     -2569.4694      -2002.1834
  -4385917.11147  -3393841.26847  20206380.2844   20206384.4094
       269.4694        209.9764
 -12100152.27547  -9334508.45547  21036511.9334   21036516.0584
      2577.5784       2008.5024
  -8897527.52645  -2340252.86244  23407930.6674   23407936.9484
      2982.1414       2323.7464
   3787586.76346   2951359.99145  22428178.9334   22428184.6164
     -1765.6254      -1375.8124
   9825522.88445   7598942.05144  24080028.8004   24080035.6944
     -2495.6874      -1944.6924
 -13640625.31146 -10503400.34646  22037969.9644   22037975.7654
      3113.8444       2426.3724
   1545739.60247   1203652.11646  20723065.4874   20723070.6324
     -1063.6724       -828.8354
 98  7 10 16 16 59.9990000  0  8G 4G 5G30G 6G 8G 9G10G24
   9660925.87045   7527991.12745  23341309.8234   23341315.4374
     -2570.8124      -2003.2314
  -4389896.06947  -3396941.75847  20205623.0734   20205627.3974
       260.9534        203.3404
 -12138760.00547  -9364592.39347  21029165.0894   21029169.3434
      2570.0474       2002.6344
  -8942255.66945  -2375105.91144  23399418.8944   23399424.8584
      2981.5474       2323.2834
   3814116.62446   2972032.56245  22433227.7374   22433233.5624
     -1771.8444      -1380.6574
   9862960.06845   7628113.81044  24087153.1204   24087160.9524
     -2495.9844      -1944.9234
 -13687283.37946 -10539757.25346  22029091.2924   22029097.2574
      3107.1094       2421.1244
   1561738.39747   1216118.70846  20726109.8234   20726114.8514
     -1069.5624       -833.4254
 98  7 10 16 17 14.9990000  0  8G 4G 5G30G 6G 8G 9G10G24
   9699497.03146   7558046.55045  23348649.2304   23348654.5624
     -2571.9534      -2004.1194
  -4393746.88747  -3399942.40447  20204890.3474   20204894.6474
       252.4694        196.7294
 -12177254.90247  -9394588.40947  21021839.7844   21021844.1204
      2562.6884       1996.8994
  -8986975.17145  -2409952.25645  23390909.1444   23390914.8514
      2981.0314       2322.8814
   3840739.43446   2992777.55845  22438294.1444   22438300.2024
     -1777.7814      -1385.2844
   9900401.22644   7657288.66844  24094277.4724   24094284.5654
     -2496.1094      -1945.0204
 -13733840.41946 -10576035.43346  22020231.7534   22020237.6474
      3100.5474       2416.0114
   1577824.65047   1228653.44246  20729171.0034   20729176.1834
     -1075.1564       -837.7844
 98  7 10 16 17 29.9990000  0  8G 4G 5G30G 6G 8G 9G10G24
   9738083.30346   7588113.75145  23355991.9804   23355997.3704
     -2572.9694      -2004.9114
  -4397469.78247  -3402843.36347  20204181.8554   20204186.2724
       243.8134        189.9844
 -12215640.01847  -9424498.88047  21014535.2224   21014539.4294
      2555.2194       1991.0804
  -9031687.04745  -2444792.63645  23382400.9334   23382407.3784
      2980.4534       2322.4314
   3867449.46546   3013590.53845  22443376.7064   22443382.6714
     -1783.6724      -1389.8744
   9937842.44744   7686463.56743  24101402.6984   24101410.3434
     -2496.0944      -1945.0084
 -13780300.24046 -10612237.86346  22011390.6674   22011396.3974
      3093.9384       2410.8604
   1593992.29347   1241251.60446  20732247.6284   20732252.7964
     -1080.5784       -842.0094
 98  7 10 16 17 44.9990000  0  8G 4G 5G30G 6G 8G 9G10G24
   9776684.28646   7618192.41645  23363337.5974   23363343.1404
     -2574.1094      -2005.8004
  -4401064.78347  -3405644.66747  20203497.7844   20203502.1444
       235.3444        183.3854
 -12253914.43547  -9454323.09247  21007252.0814   21007256.2534
      2547.7974       1985.2964
  -9076391.70345  -2479627.39745  23373893.6444   23373900.1364
      2980.0164       2322.0904
   3894248.98446   3034473.23745  22448476.2374   22448482.2494
     -1789.7814      -1394.6354
   9975282.64844   7715637.66243  24108527.3084   24108535.6554
     -2496.1874      -1945.0814
 -13826662.55446 -10648364.30746  22002568.2534   22002574.1124
      3087.5634       2405.8934
   1610238.69747   1253911.13146  20735339.2694   20735344.1554
     -1085.8284       -846.1004
 98  7 10 16 17 59.9990000  0  8G 4G 5G30G 6G 8G 9G10G24
   9815307.30746   7648288.25845  23370687.3234   23370693.4174
     -2575.7034      -2007.0414
  -4404528.59147  -3408343.74147  20202838.6364   20202842.8314
       226.3594        176.3844
 -12292074.47247  -9484058.17847  20999990.3944   20999994.4374
      2540.0944       1979.2944
  -9121088.14045  -2514455.74145  23365388.1674   23365393.9564
      2979.4224       2321.6274
   3921145.64946   3055431.62245  22453594.5264   22453600.3864
     -1796.5164      -1399.8824
  10012729.81844   7744817.21943  24115652.7224   24115660.2374
     -2496.8914      -1945.6294
 -13872926.94546 -10684414.45546  21993764.2764   21993769.9834
      3080.9064       2400.7064
   1626567.98847   1266635.25046  20738446.7694   20738451.8194
     -1091.4844       -850.5074
 98  7 10 16 18 14.9990000  0  8G 4G 5G30G 6G 8G 9G10G24
   9853953.10745   7678401.84745  23378041.5974   23378047.0694
     -2577.1564      -2008.1744
  -4407855.88847  -3410936.44447  20202205.6054   20202209.9174
       217.0784        169.1524
 -12330118.66647  -9513702.99647  20992750.6984   20992754.5894
      2532.3594       1973.2674
  -9165776.91745  -2549278.12745  23356884.5194   23356890.2964
      2978.9694       2321.2744
   3948143.86546   3076469.14445  22458732.6204   22458738.5384
     -1803.3444      -1405.2034
  10050186.67244   7774004.28444  24122781.0504   24122789.0344
     -2497.4374      -1946.0554
 -13919090.71546 -10720386.18846  21984979.7224   21984985.6164
      3074.1724       2395.4594
   1642980.87747   1279424.50946  20741570.0194   20741575.0344
     -1096.9374       -854.7564
 98  7 10 16 18 29.9990000  0  8G 4G 5G30G 6G 8G 9G10G24
   9892621.30245   7708532.89445  23385399.8004   23385404.4404
     -2578.7344      -2009.4034
  -4411043.76647  -3413420.51047  20201598.9724   20201603.2844
       207.8914        161.9934
 -12368048.40347  -9543258.63047  20985533.0814   20985537.0654
      2524.9224       1967.4724
  -9210459.82745  -2584095.92545  23348381.6594   23348386.9334
      2978.6724       2321.0434
   3975242.80846   3097585.15545  22463889.3394   22463895.3394
     -1809.9694      -1410.3654
  10087649.44644   7803195.98144  24129909.9404   24129917.1404
     -2497.6724      -1946.2384
 -13965155.22546 -10756280.58846  21976213.9254   21976219.8904
      3067.6414       2390.3694
   1659473.09447   1292275.58546  20744708.3234   20744713.3744
     -1102.0944       -858.7744
 98  7 10 16 18 44.9990000  0  8G 4G 5G30G 6G 8G 9G10G24
   9931315.57045   7738684.24745  23392763.0264   23392767.8784
     -2580.3284      -2010.6454
  -4414092.78647  -3415796.37647  20201018.8784   20201023.2024
       198.7814        154.8944
 -12405866.49747  -9572727.26947  20978336.5344   20978340.4724
      2517.6414       1961.7984
  -9255137.02445  -2618909.29645  23339879.5344   23339885.6054
      2978.4384       2320.8604
   4002443.77146   3118780.67645  22469065.1674   22469070.9684
     -1816.7034      -1415.6134
  10125116.17844   7832390.75244  24137038.9094   24137048.1014
     -2497.8124      -1946.3474
 -14011119.85946 -10792097.15746  21967467.0034   21967472.7924
      3061.1414       2385.3044
   1676043.85647   1305187.86146  20747861.5034   20747866.4484
     -1107.2504       -862.7924
 98  7 10 16 18 59.9990000  0  8G 4G 5G30G 6G 8G 9G10G24
   9970036.66345   7768856.50645  23400131.1444   23400136.6164
     -2582.4694      -2012.3134
  -4417002.27747  -3418063.51447  20200465.1904   20200469.6084
       189.1414        147.3824
 -12443571.95147  -9602108.13747  20971161.4484   20971165.4444
      2509.7344       1955.6374
  -9299808.47345  -2653718.18945  23331378.7764   23331384.6124
      2977.7344       2320.3134
   4029746.31146   3140055.33145  22474261.0194   22474266.9834
     -1823.5944      -1420.9824
  10162588.04444   7861589.52343  24144171.0424   24144179.1084
     -2498.4224      -1946.8224
 -14056985.11346 -10827836.28446  21958739.1904   21958744.7334
      3054.2034       2379.8994
   1692695.57647   1318163.22846  20751030.4804   20751035.5424
     -1113.0004       -867.2734
 98  7 10 16 19 14.9990000  0  8G 4G 5G30G 6G 8G 9G10G24
  10008786.36845   7799051.05745  23407505.0584   23407510.3194
     -2584.1094      -2013.5924
  -4419769.12347  -3420219.50247  20199938.6124   20199942.8904
       179.8284        140.1264
 -12481162.86847  -9631399.75147  20964008.0814   20964012.2064
      2502.4844       1949.9884
  -9344471.83245  -2688520.78445  23322880.0344   23322885.9054
      2977.3594       2320.0204
   4057147.06246   3161406.52845  22479475.4014   22479481.3784
     -1829.7504      -1425.7794
  10200064.14344   7890791.58743  24151302.0814   24151309.9254
     -2498.3124      -1946.7374
 -14102749.39646 -10863496.73846  21950030.4254   21950036.3664
      3047.7504       2374.8704
   1709431.94047   1331204.54346  20754215.0654   20754220.0584
     -1118.4374       -871.5104
 98  7 10 16 19 29.9990000  0  8G 4G 5G30G 6G 8G 9G10G24
  10047565.47345   7829268.50645  23414884.4954   23414890.7884
     -2586.2814      -2015.2844
  -4422392.44447  -3422263.64847  20199439.4254   20199443.6204
       170.0784        132.5284
 -12518641.19047  -9660603.63447  20956876.0114   20956880.3004
      2494.7664       1943.9734
  -9389121.65845  -2723312.82345  23314383.2064   23314389.3354
      2976.0944       2319.0344
   4084643.59846   3182832.35745  22484707.7534   22484713.7534
     -1836.2974      -1430.8814
  10237543.89344   7919996.53644  24158434.7614   24158442.5224
     -2498.7664      -1947.0904
 -14148411.89546 -10899077.88446  21941341.0424   21941347.0654
      3040.6414       2369.3304
   1726255.13747   1344313.52546  20757416.4954   20757421.6054
     -1124.4844       -876.2224
 98  7 10 16 19 44.9990000  0  8G 4G 5G30G 6G 8G 9G10G24
  10086373.03845   7859508.13445  23422269.5194   23422275.6244
     -2587.8754      -2016.5264
  -4424875.63747  -3424198.61347  20198966.8474   20198970.9484
       161.2974        125.6864
 -12556007.25447  -9689720.04047  20949765.7764   20949770.0424
      2487.6254       1938.4094
  -9433757.91045  -2758094.28045  23305888.8554   23305894.7024
      2975.6414       2318.6814
   4112233.48046   3204330.92145  22489958.6054   22489965.0504
     -1842.1874      -1435.4714
  10275027.13844   7949204.16043  24165567.3554   24165574.6834
     -2498.7504      -1947.0784
 -14193969.42746 -10934577.22746  21932671.8704   21932677.6244
      3033.9064       2364.0834
   1743164.89447   1357489.95547  20760634.4644   20760639.5504
     -1129.8754       -880.4224
 98  7 10 16 19 59.9990000  0  8G 4G 5G30G 6G 8G 9G10G24
  10125210.96645   7889771.45845  23429659.7454   23429664.9254
     -2590.3754      -2018.4744
  -4427222.86547  -3426027.62147  20198520.2844   20198524.5034
       151.7814        118.2714
 -12593261.94447  -9718749.66047  20942676.3154   20942680.5814
      2479.7344       1932.2614
  -9478381.14245  -2792865.58545  23297397.5814   23297403.6284
      2974.2344       2317.5854
   4139916.16545   3225901.80945  22495225.6904   22495231.5504
     -1848.7344      -1440.5724
  10312515.57044   7978415.85044  24172701.8394   24172708.5544
     -2499.5164      -1947.6754
 -14239421.13846 -10969994.11046  21924022.6514   21924028.4524
      3026.4064       2358.2394
   1760160.73347   1370733.46346  20763868.5584   20763873.7724
     -1136.1564       -885.3174
 98  7 10 16 20 14.9990000  0  8G 4G 5G30G 6G 8G 9G10G24
  10164081.13445   7920059.83945  23437056.6984   23437062.3004
     -2592.5004      -2020.1304
  -4429430.26747  -3427747.68247  20198100.1204   20198104.3624
       142.3444        110.9174
 -12630401.26647  -9747689.38147  20935608.9094   20935612.9764
      2471.9384       1926.1854
  -9522985.81745  -2827622.44845  23288909.5654   23288915.4954
      2972.8284       2316.4894
   4167691.57546   3247544.94145  22500511.2924   22500517.4334
     -1854.8754      -1445.3574
  10350009.28844   8007631.66144  24179835.7694   24179842.3084
     -2499.7814      -1947.8814
 -14284761.60646 -11005324.31546  21915394.9014   21915400.9014
      3018.8134       2352.3214
   1777247.07747   1384047.49246  20767119.6984   20767124.8194
     -1142.1724       -890.0044
 98  7 10 16 20 29.9990000  0  8G 4G 5G30G 6G 8G 9G10G24
  10202980.04345   7950370.66645  23444459.1514   23444464.8944
     -2594.5944      -2021.7614
  -4431500.18547  -3429360.60547  20197706.3624   20197710.6514
       133.1094        103.7224
 -12667427.60847  -9776541.06847  20928563.1754   20928567.2184
      2464.3914       1920.3044
  -9567572.38745  -2862365.19345  23280424.9804   23280430.4994
      2971.4534       2315.4184
   4195555.63146   3269257.16645  22505813.2844   22505819.3084
     -1860.8914      -1450.0454
  10387502.35644   8036846.97144  24186970.8864   24186977.6474
     -2499.8284      -1947.9184
 -14329991.47246 -11040568.33846  21906787.5814   21906793.3944
      3011.2504       2346.4294
   1794419.07147   1397428.26046  20770387.4644   20770392.6674
     -1148.0474       -894.5824
 98  7 10 16 20 44.9990000  0  8G 4G 5G30G 6G 8G 9G10G24
  10241910.50345   7980706.06345  23451867.7224   23451872.8194
     -2596.2504      -2023.0524
  -4433432.98547  -3430866.68347  20197338.5654   20197342.9134
       124.4534         96.9764
 -12704343.19147  -9805306.45247  20921538.3234   20921542.3664
      2457.5944       1915.0084
  -9612137.50945  -2897091.23645  23271944.5034   23271950.2224
      2970.4224       2314.6144
   4223510.07846   3291039.80745  22511132.8084   22511138.8434
     -1866.5164      -1454.4284
  10424996.86844   8066063.38244  24194105.5654   24194113.7264
     -2499.5784      -1947.7234
 -14375106.86346 -11075723.15946  21898202.3704   21898208.3824
      3003.9694       2340.7554
   1811681.89547   1410879.80946  20773672.5424   20773677.6634
     -1153.8444       -899.0994
 98  7 10 16 20 59.9990000  0  8G 4G 5G30G 6G 8G 9G10G24
  10280869.40345   8011063.63945  23459281.1284   23459286.7304
     -2598.1414      -2024.5254
  -4435229.98647  -3432266.94447  20196996.4954   20197000.7964
       115.2504         89.8054
 -12741150.86347  -9833987.75047  20914533.8314   20914537.8394
      2450.1724       1909.2254
  -9656681.80945  -2931801.03445  23263468.1204   23263474.5424
      2968.9384       2313.4584
   4251553.14446   3312891.51945  22516469.6204   22516475.2334
     -1872.3914      -1459.0064
  10462493.64944   8095281.58744  24201241.1754   24201249.6984
     -2499.9374      -1948.0034
 -14420107.50546 -11110788.55946  21889639.0734   21889644.9564
      2996.1884       2334.6924
   1829037.24647   1424403.45347  20776975.2454   20776979.9214
     -1160.1094       -903.9814
 98  7 10 16 21 14.9990000  0  8G 4G 5G30G 6G 8G 9G10G24
  10319856.11745   8041442.86645  23466699.8234   23466705.2494
     -2599.9844      -2025.9624
  -4436889.69047  -3433560.22647  20196680.5894   20196684.9134
       106.1254         82.6954
 -12777846.71347  -9862581.90747  20907551.0974   20907555.3274
      2442.6884       1903.3934
  -9701204.01845  -2966493.64345  23254995.8624   23255001.8744
      2967.3914       2312.2524
   4279682.89046   3334810.75745  22521822.3704   22521828.7104
     -1878.2194      -1463.5474
  10499996.04544   8124504.13844  24208378.3704   24208385.7574
     -2500.2974      -1948.2834
 -14464990.02646 -11145761.92746  21881098.4954   21881104.1794
      2988.1884       2328.4584
   1846485.05447   1437999.14747  20780295.5114   20780300.4094
     -1166.1874       -908.7184
 98  7 10 16 21 29.9990000  0  8G 4G 5G30G 6G 8G 9G10G24
  10358870.66245   8071843.79545  23474124.4094   23474128.7694
     -2601.7194      -2027.3134
  -4438412.62647  -3434746.92947  20196391.0114   20196395.3704
        97.1414         75.6944
 -12814431.88547  -9891089.82547  20900589.2844   20900593.3154
      2435.5164       1897.8044
  -9745701.84945  -3001167.22945  23246527.7614   23246533.7724
      2965.8444       2311.0474
   4307900.80746   3356798.69045  22527192.3154   22527198.1984
     -1883.9374      -1468.0034
  10537504.77445   8153731.65844  24215515.8704   24215523.4444
     -2500.6724      -1948.5754
 -14509753.67146 -11180642.67046  21872579.9254   21872585.9374
      2980.5634       2322.5164
   1864023.21147   1451665.23646  20783632.9094   20783637.7144
     -1171.9844       -913.2354
 98  7 10 16 21 44.9990000  0  8G 4G 5G30G 6G 8G 9G10G24
  10397912.15545   8102265.70845  23481553.7064   23481559.8474
     -2603.6094      -2028.7874
  -4439798.45847  -3435826.80047  20196127.1124   20196131.5894
        87.8134         68.4254
 -12850905.56247  -9919510.86747  20893648.6674   20893652.6874
      2427.8284       1891.8144
  -9790175.16545  -3035821.72045  23238064.7614   23238070.7374
      2964.2034       2309.7694
   4336206.67146   3378855.16345  22532578.7454   22532584.6514
     -1889.9694      -1472.7034
  10575021.67445   8182965.51044  24222654.8474   24222661.9994
     -2501.3594      -1949.1114
 -14554401.86546 -11215433.44246  21864083.8704   21864089.8704
      2972.7504       2316.4294
   1881649.92447   1465400.33846  20786987.2304   20786992.3274
     -1178.0314       -917.9464
 98  7 10 16 21 59.9990000  0  8G 4G 5G30G 6G 8G 9G10G24
  10436980.64045   8132708.65545  23488988.0194   23488992.9174
     -2605.5164      -2030.2724
  -4441046.23347  -3436799.09347  20195889.8004   20195893.9954
        78.5474         61.2054
 -12887265.51947  -9947843.29247  20886729.4724   20886733.3394
      2420.2034       1885.8734
  -9834628.24045  -3070460.43445  23229605.3394   23229610.6124
      2962.8914       2308.7464
   4364601.40346   3400980.89045  22537982.1054   22537987.8944
     -1895.9844      -1477.3904
  10612547.41145   8212206.27344  24229795.7924   24229802.6014
     -2501.9844      -1949.5984
 -14598936.79646 -11250135.95846  21855608.9484   21855615.0424
      2965.3284       2310.6454
   1899365.37247   1479204.57747  20790358.2694   20790363.4604
     -1183.9694       -922.5734
 98  7 10 16 22 14.9990000  0  8G 4G 5G30G 6G 8G 9G10G24
  10476077.38745   8163173.65745  23496428.4804   23496432.9804
     -2607.3914      -2031.7334
  -4442152.51147  -3437661.13047  20195679.0194   20195683.5774
        68.9844         53.7544
 -12923509.71847  -9976085.51347  20879832.4954   20879836.3154
      2412.2974       1879.7124
  -9879060.74445                  23221150.1284
      2961.5164
   4393086.21646   3423176.80245  22543402.9724   22543409.0894
     -1902.0314      -1482.1024
  10650081.56345   8241453.59244  24236938.5504   24236946.7224
     -2502.5944      -1950.0734
 -14643361.04546 -11284752.21846  21847155.2374   21847161.1324
      2957.8914       2304.8504
   1917170.57547   1493078.75547  20793746.5654   20793751.7574
     -1190.0164       -927.2854
 98  7 10 16 22 29.9990000  0  8G 4G 5G30G 6G 8G 9G10G24
  10515207.57545   8193664.69345  23503874.5894   23503879.9334
     -2609.7194      -2033.5474
  -4443111.91947  -3438408.73047  20195496.5424   20195501.0304
        59.1724         46.1084
 -12959629.11847 -10004230.49447  20872958.9644   20872962.8314
      2403.8284       1873.1134
  -9923469.28645                  23212699.6514
      2959.9224
   4421666.67445   3445447.23745  22548841.3624   22548847.3514
     -1908.4694      -1487.1194
  10687631.89745   8270713.52844  24244083.7534   24244090.3974
     -2503.8914      -1951.0844
 -14687669.01746 -11319277.88846  21838723.6984   21838729.2654
      2950.1254       2298.7994
   1935069.47747   1507025.95146  20797152.8004   20797157.6054
     -1196.2504       -932.1434
 98  7 10 16 22 44.9990000  0  8G 4G 5G30G 6G 8G 9G10G24
  10554367.35845   8224178.77145  23511326.1124   23511331.2224
     -2611.6874      -2035.0814
  -4443929.54747  -3439045.85047  20195341.0034   20195345.3044
        49.6414         38.6814
 -12995625.56347 -10032279.66347  20866109.1594   20866113.3084
      2395.5164       1866.6364
  -9967858.80445                  23204252.7614
      2958.5634
   4450337.78745   3467788.33345  22554297.5194   22554303.5194
     -1914.5164      -1491.8304
  10725197.06445   8299985.00444  24251232.5814   24251239.6404
     -2504.8914      -1951.8634
 -14731865.56546 -11353716.72846  21830313.4094   21830319.4094
      2942.6094       2292.9424
   1953057.17847   1521042.33647  20800575.6204   20800580.5304
     -1202.2344       -936.8064
 98  7 10 16 22 59.9990000  0  8G 4G 5G30G 6G 8G 9G10G24
  10593556.18645   8254715.50545  23518783.1984   23518788.8944
     -2613.7344      -2036.6764
  -4444603.15247  -3439570.74347  20195212.7844   20195217.1794
        39.9534         31.1324
 -13031494.46847 -10060229.44647  20859283.3394   20859287.3584
      2386.7344       1859.7934
 -10012228.10345                  23195809.5894
      2957.1254
   4479099.72645   3490200.18945  22559770.6834   22559776.6834
     -1920.6414      -1496.6034
  10762776.95144   8329267.96043  24258384.1054   24258391.5504
     -2505.9374      -1952.6794
 -14775949.80746 -11388068.06446  21821924.2924   21821930.1284
      2935.0944       2287.0864
   1971133.05247   1535127.42847  20804015.3784   20804020.3474
     -1208.0314       -941.3234
 98  7 10 16 23 14.9990000  0  8G 4G 5G30G 6G 8G 9G10G24
  10632771.99645   8285273.25545  23526245.9644   23526251.5544
     -2615.1564      -2037.7844
  -4445137.02547  -3439986.75347  20195111.3554   20195115.7494
        31.1564         24.2784
 -13067233.70847 -10088078.19847  20852482.5114   20852486.5074
      2378.3914       1853.2914
 -10056580.98345                  23187369.5034
      2956.4224
   4507949.33745   3512680.36645  22565260.5504   22565266.6204
     -1926.1254      -1500.8774
  10800366.83044   8358558.70743  24265536.9644   24265544.9134
     -2506.1564      -1952.8494
 -14819927.09746 -11422336.05346  21813555.6984   21813561.6054
      2928.4384       2281.8994
   1989288.95347   1549274.87947  20807470.1054   20807475.0624
     -1212.8914       -945.1104
 98  7 10 16 23 29.9990000  0  8G 4G 5G30G 6G 8G 9G10G24
  10672017.46845   8315854.12445  23533713.9484   23533719.9374
     -2617.5784      -2039.6714
  -4445532.22647  -3440294.70347  20195036.0114   20195040.3944
        21.5164         16.7654
 -13102841.76047 -10115824.72247  20845706.5504   20845710.7224
      2369.3284       1846.2304
 -10100915.39445    -11511.70155  23178932.8784   23178939.2654
      2954.8594       2302.4884
   4536889.07945   3535230.76545  22570767.6754   22570773.6514
     -1932.5474      -1505.8814
  10837966.81644   8387857.32643  24272691.7304   24272698.3624
     -2507.1874      -1953.6534
 -14863798.81346 -11456521.78246  21805207.3944   21805213.3824
      2921.1094       2276.1894
   2007525.68347   1563485.31646  20810940.6444   20810945.7064
     -1218.6874       -949.6274
 98  7 10 16 23 44.9990000  0  8G 4G 5G30G 6G 8G 9G10G24
  10711292.78945   8346458.21645  23541188.2764   23541193.5154
     -2619.2344      -2040.9624
  -4445788.29547  -3440494.24347  20194987.1754   20194991.3704
        12.4694          9.7164
 -13138319.67247 -10143469.83747  20838955.1284   20838959.2764
      2360.8444       1839.6194
 -10145234.28745    -46045.86745  23170499.2694   23170505.1634
      2954.1564       2301.9404
   4565919.14245   3557851.55645  22576292.1364   22576298.2414
     -1938.2974      -1510.3614
  10875575.34344   8417162.61042  24279848.9484   24279856.3944
     -2507.4224      -1953.8354
 -14907567.87446 -11490627.52246  21796878.4724   21796884.3434
      2914.5944       2271.1124
   2025842.88547   1577758.45646  20814426.2924   20814431.5074
     -1223.7974       -953.6084
 98  7 10 16 23 59.9990000  0  8G 4G 5G30G 6G 8G 9G10G24
  10750596.60345   8377084.56745  23548667.6674   23548673.3864
     -2621.1414      -2042.4474
  -4445904.19247  -3440584.55647  20194965.2844   20194969.3624
         3.1254          2.4354
 -13173664.37747 -10171011.15947  20832229.3394   20832233.2884
      2351.9844       1832.7154
 -10189537.92245    -80568.15745  23162068.9174   23162074.8584
      2953.1564       2301.1614
   4595041.25245   3580544.07245  22581833.9254   22581840.3124
     -1944.4694      -1515.1704
  10913192.23044   8446474.38043  24287007.2064   24287013.8274
     -2507.9694      -1954.2614
 -14951232.32746 -11524651.74346  21788569.1364   21788574.8554
      2907.5004       2265.5844
   2044240.77347   1592094.46747  20817927.4014   20817932.5114
     -1229.0624       -957.7114
 98  7 10 16 24 14.9990000  0  8G 4G 5G30G 6G 8G 9G10G24
  10789929.95245   8407733.88145  23556152.0894   23556158.2534
     -2623.2034      -2044.0544
  -4445878.06647  -3440564.19747  20194970.4334   20194974.6984
        -6.5624         -5.1144
 -13208875.89947 -10198448.69547  20825528.6124   20825532.9254
      2342.9844       1825.7024
 -10233823.49345   -115076.33745  23153641.7224   23153647.2534
      2951.6254       2299.9684
   4624256.40746   3603309.07545  22587393.0584   22587398.8824
     -1950.8284      -1520.1264
  10950816.89944   8475792.21443  24294166.6904   24294174.2884
     -2508.5164      -1954.6874
 -14994789.18846 -11558592.13146  21780280.5734   21780286.4804
      2900.0784       2259.8014
   2062717.05347   1606491.56947  20821443.1594   20821448.0694
     -1234.3594       -961.8384
 98  7 10 16 24 29.9990000  0  8G 4G 5G30G 6G 8G 9G10G24
  10829291.99645   8438405.59045  23563643.1754   23563649.5034
     -2625.0164      -2045.4674
  -4445705.79647  -3440429.96547  20195003.0584   20195007.3234
       -16.3124        -12.7114
 -13243952.94547 -10225781.44847  20818853.6204   20818857.6284
      2334.0314       1818.7264
 -10278085.69445   -149566.34845  23145218.4484   23145224.1904
      2950.0944       2298.7744
   4653566.37945   3626147.97945  22592970.5974   22592976.6904
     -1957.0474      -1524.9724
  10988449.08244   8505115.97643  24301327.9094   24301336.2694
     -2509.0004      -1955.0654
 -15038233.06146 -11592444.47546  21772013.7534   21772019.7884
      2892.4844       2253.8844
   2081272.44547   1620950.31246  20824973.9644   20824978.9684
     -1239.6094       -965.9294
 98  7 10 16 24 44.9990000  0  8G 4G 5G30G 6G 8G 9G10G24
  10868679.54845   8469097.16245  23571138.1444   23571143.1594
     -2626.5474      -2046.6604
  -4445387.75847  -3440182.14847  20195063.4254   20195067.6794
       -26.0314        -20.2844
 -13278898.45247 -10253011.70547  20812203.9644   20812207.9374
      2325.4844       1812.0664
 -10322325.40345   -184038.81045  23136799.8234   23136805.3904
      2948.6254       2297.6304
   4682967.04345   3649057.53945  22598565.6834   22598571.9054
     -1962.9844      -1529.5984
  11026084.98844   8534442.58443  24308490.2224   24308497.7964
     -2508.9844      -1955.0534
 -15081563.21846 -11626208.20746  21763768.1284   21763774.2574
      2884.9534       2248.0154
   2099904.86147   1635469.07546  20828519.8394   20828525.0774
     -1244.6564       -969.8624
 98  7 10 16 24 59.9990000  0  8G 4G 5G30G 6G 8G 9G10G24
  10908090.88945   8499807.27745  23578637.7454   23578643.3234
     -2628.1414      -2047.9024
  -4444921.54247  -3439818.87447  20195152.3474   20195156.7414
       -36.0004        -28.0524
 -13313716.57347 -10280142.70047  20805578.3624   20805582.1594
      2317.1254       1805.5524
 -10366540.83045   -218492.33745  23128386.1124   23128392.6404
      2946.9694       2296.3394
   4712460.12145   3672039.11645  22604177.7764   22604183.4254
     -1969.2814      -1534.5054
  11063720.86044   8563769.16643  24315652.1124   24315660.9874
     -2508.9534      -1955.0284
 -15124777.75346 -11659881.84846  21755544.5504   21755550.3624
      2877.1414       2241.9284
   2118615.09547   1650048.47246  20832080.2454   20832085.3904
     -1249.9374       -973.9774
 98  7 10 16 25 14.9990000  0  8G 4G 5G30G 6G 8G 9G10G24
  10947522.70045   8530533.34145  23586142.0974   23586147.6284
     -2629.5004      -2048.9614
  -4444310.14747  -3439342.46747  20195268.8004   20195273.2654
       -45.5624        -35.5034
 -13348413.82547 -10307179.50647  20798975.6674   20798979.6284
      2309.1414       1799.3304
 -10410735.68345   -252929.85545  23119975.5584   23119980.9014
      2945.5784       2295.2564
   4742043.97545   3695091.41845  22609807.3624   22609813.2924
     -1975.3284      -1539.2174
  11101353.67943   8593093.35543  24322813.1754   24322821.5114
     -2508.7974      -1954.9074
 -15167878.63446 -11693466.92646  21747342.7924   21747348.8154
      2869.5634       2236.0234
   2137401.94647   1664687.57446  20835655.4254   20835660.5224
     -1255.1254       -978.0194
 98  7 10 16 25 29.9990000  0  8G 4G 5G30G 6G 8G 9G10G24
  10986975.41045   8561275.68845  23593648.5734   23593654.4094
     -2630.8594      -2050.0204
  -4443551.85147  -3438751.58647  20195413.0034   20195417.4804
       -55.6094        -43.3324
 -13382989.76047 -10334121.78047  20792395.9954   20792400.0034
      2300.9224       1792.9264
 -10454905.93645   -287348.20745  23111570.5114   23111576.4404
      2943.7194       2293.8074
   4771720.80245   3718216.18645  22615454.8624   22615460.7574
     -1981.6094      -1544.1114
  11138985.54743   8622416.82443  24329974.4094   24329983.4374
     -2508.8444      -1954.9434
 -15210862.45246 -11726960.78546  21739162.9334   21739168.8744
      2861.5634       2229.7894
   2156271.29847   1679390.96346  20839246.0424   20839251.0344
     -1260.8444       -982.4764
 98  7 10 16 25 44.9990000  0  8G 4G 5G30G 6G 8G 9G10G24
  11026449.81545   8592034.94245  23601160.7764   23601166.9874
     -2632.3754      -2051.2014
  -4442640.49247  -3438041.44547  20195586.4644   20195590.9644
       -65.8754        -51.3314
 -13417441.10447 -10360966.97547  20785839.9804   20785843.9524
      2292.5784       1786.4254
 -10499047.29745   -321744.04245  23103171.0264   23103176.6054
      2941.7814       2292.2974
   4801492.68245   3741415.00645  22621120.2694   22621126.3274
     -1987.9534      -1549.0544
  11176620.22143   8651742.48042  24337135.6054   24337143.3664
     -2509.0784      -1955.1264
 -15253723.14546 -11760358.71546  21731006.9094   21731012.7574
      2853.1724       2223.2514
   2175227.31547   1694161.88246  20842853.2694   20842858.3664
     -1266.6094       -986.9684
 98  7 10 16 25 59.9990000  0  8G 4G 5G30G 6G 8G 9G10G24
  11065942.69445   8622808.57345  23608676.2764   23608681.8434
     -2633.5624      -2052.1274
  -4441579.33447  -3437214.57647  20195788.3474   20195792.8004
       -75.7974        -59.0624
 -13451770.96447 -10387717.50547  20779307.4724   20779311.4334
      2284.5004       1780.1304
 -10543161.03645   -356118.33945  23094776.1054   23094782.3044
      2939.8284       2290.7754
   4831356.08245   3764685.13545  22626803.1674   22626809.1554
     -1994.0164      -1553.7784
  11214254.55843   8681067.86942  24344297.8314   24344304.9014
     -2509.0474      -1955.1014
 -15296460.27546 -11793660.35246  21722874.4174   21722880.1124
      2844.8594       2216.7744
   2194266.68747   1708997.75046  20846476.0034   20846481.3004
     -1272.1874       -991.3154
 98  7 10 16 26 14.9990000  0  8G 4G 5G30G 6G 8G 9G10G24
  11105458.17645   8653599.83445  23616195.6984   23616200.8784
     -2635.1094      -2053.3324
  -4440367.23447  -3436270.08947  20196018.9484   20196023.4374
       -85.7034        -66.7824
 -13485976.82847 -10414371.41747  20772798.2374   20772802.0814
      2276.3444       1773.7744
 -10587243.00245   -390467.89745  23086387.6754   23086393.9684
      2937.8284       2289.2174
   4861312.16045   3788027.49645  22632503.6834   22632509.7304
     -2000.0474      -1558.4784
  11251890.89043   8710394.77842  24351459.5974   24351466.6204
     -2509.0004      -1955.0654
 -15339067.85546 -11826861.04146  21714766.5974   21714772.2104
      2836.2664       2210.0774
   2213392.77547   1723901.19046  20850115.8554   20850121.1164
     -1277.9374       -995.7954
 98  7 10 16 26 29.9990000  0  8G 4G 5G30G 6G 8G 9G10G24
  11144997.44145   8684409.63545  23623719.6514   23623724.8784
     -2636.5314      -2054.4404
  -4439007.05547  -3435210.21947  20196277.6204   20196282.0624
       -95.3124        -74.2694
 -13520059.16647 -10440929.07647  20766312.6594   20766316.4914
      2268.2034       1767.4314
 -10631293.57945   -424792.99845  23078005.0974   23078010.8744
      2935.8914       2287.7074
   4891359.21645   3811440.72045  22638221.7224   22638227.9094
     -2006.0004      -1563.1174
  11289527.00143   8739721.55043  24358621.0034   24358626.6634
     -2508.8444      -1954.9434
 -15381546.64546 -11859961.37146  21706683.0814   21706688.8584
      2827.8284       2203.5024
   2232609.03047   1738874.88746  20853772.5114   20853777.7494
     -1284.0004      -1000.5194
 98  7 10 16 26 44.9990000  0  8G 4G 5G30G 6G 8G 9G10G24
  11184557.01945   8715235.25045  23631247.6904   23631253.4914
     -2638.2034      -2055.7434
  -4437506.32647  -3434040.82847  20196563.3624   20196567.8154
      -104.8284        -81.6844
 -13554019.94747 -10467392.01547  20759850.0424   20759853.9214
      2259.8134       1760.8934
 -10675317.87745   -459097.61445  23069627.4484   23069633.2494
      2933.9064       2286.1614
   4921493.53445   3834921.97145  22643956.1284   22643962.0934
     -2012.0004      -1567.7924
  11327159.31543   8769045.38043  24365782.8474   24365790.7024
     -2508.8444      -1954.9434
 -15423901.14046 -11892964.84846  21698623.2694   21698628.9874
      2819.3444       2196.8914
   2251915.83647   1753919.14846  20857446.2844   20857451.2414
     -1290.3284      -1005.4504
 98  7 10 16 26 59.9990000  0  8G 4G 5G30G 6G 8G 9G10G24
  11224139.77145   8746078.95145  23638780.3474   23638785.4094
     -2639.0944      -2056.4374
  -4435867.58047  -3432763.89547  20196875.1754   20196879.5344
      -113.2814        -88.2714
 -13587858.78147 -10493759.92347  20753410.7304   20753414.6904
      2252.3284       1755.0614
 -10719314.10445   -493380.34545  23061255.3394   23061261.3624
      2932.6254       2285.1624
   4951715.63545   3858471.58645  22649706.8864   22649713.2374
     -2017.2814      -1571.9074
  11364789.44643   8798367.46243  24372943.8474   24372950.8474
     -2508.1874      -1954.4324
 -15466131.39246 -11925871.52246  21690586.9874   21690592.7304
      2811.7814       2190.9984
   2271315.32447   1769035.62946  20861138.0114   20861143.3554
     -1295.9064      -1009.7974
 98  7 10 16 27 14.9990000  0  8G 4G 5G30G 6G 8G 9G10G24
  11263741.63545   8776937.49545  23646315.9254   23646321.7494
     -2641.0474      -2057.9594
  -4434096.80447  -3431384.07747  20197212.3234   20197216.7414
      -122.7664        -95.6624
 -13621576.59747 -10520033.54147  20746994.4564   20746998.3474
      2243.4384       1748.1334
 -10763286.02445   -527644.14445  23052887.3704   23052893.0074
      2930.4224       2283.4464
   4982021.64845   3882086.61245  22655474.1904   22655480.2264
     -2023.3594      -1576.6444
  11402416.54443   8827687.19343  24380104.9804   24380113.5504
     -2508.5944      -1954.7484
 -15508244.36546 -11958686.79646  21682573.2454   21682578.6834
      2803.4064       2184.4724
   2290805.13947   1784222.49246  20864846.9174   20864852.1324
     -1302.6414      -1015.0454
 98  7 10 16 27 29.9990000  0  8G 4G 5G30G 6G 8G 9G10G24
  11303367.90045   8807815.07144  23653856.5974   23653861.4374
     -2642.5474      -2059.1274
  -4432189.29547  -3429897.71447  20197575.2614   20197579.5854
      -131.6874       -102.6144
 -13655163.58547 -10546205.20847  20740603.0194   20740607.0854
      2234.7344       1741.3514
 -10807230.05645   -561886.22745  23044525.6124   23044530.6634
      2928.6884       2282.0944
   5012411.90945   3905767.28845  22661257.1514   22661263.6904
     -2028.7504      -1580.8444
  11440043.43244   8857006.77743  24387264.7064   24387271.6594
     -2508.3914      -1954.5904
 -15550237.20246 -11991408.47146  21674582.3474   21674588.0654
      2795.5004       2178.3124
   2310389.37647   1799482.93546  20868573.5264   20868578.9174
     -1308.6724      -1019.7444
 98  7 10 16 27 44.9990000  0  8G 4G 5G30G 6G 8G 9G10G24
  11343021.76545   8838714.16944  23661402.5814   23661407.3394
     -2644.4224      -2060.5884
  -4430141.62947  -3428302.13847  20197964.7844   20197969.3194
      -141.0004       -109.8704
 -13688615.34947 -10572271.50847  20734237.3784   20734241.2224
      2225.8134       1734.3994
 -10851144.17245   -596105.01945  23036168.8864   23036174.2884
      2926.8754       2280.6824
   5042887.29945   3929514.27845  22667056.3474   22667062.3474
     -2034.3754      -1585.2274
  11477672.50544   8886328.10043  24394425.0504   24394432.9404
     -2508.5784      -1954.7364
 -15592106.52646 -12024033.89546  21666614.7924   21666620.8864
      2787.3444       2171.9564
   2330067.92147   1814816.85646  20872318.3084   20872323.7334
     -1314.7974      -1024.5174
 98  7 10 16 27 59.9990000  0  8G 4G 5G30G 6G 8G 9G10G24
  11382706.14145   8869637.02444  23668953.8784   23668959.1054
     -2646.5624      -2062.2564
  -4427955.46147  -3426598.63747  20198380.7224   20198385.3274
      -150.2814       -117.1024
 -13721934.78547 -10598234.69947  20727896.9404   20727900.7374
      2217.0004       1727.5324
 -10895032.41445   -630303.61545  23027816.8234   23027821.9564
      2925.0784       2279.2824
   5073447.44546   3953327.32945  22672872.1054   22672878.3744
     -2040.1094      -1589.6964
  11515304.55044   8915651.68743  24401586.9484   24401593.7924
     -2508.7664      -1954.8824
 -15633852.24646 -12056563.00246  21658670.9334   21658676.6634
      2779.0164       2165.4674
   2349837.92647   1830222.05046  20876080.4404   20876085.8434
     -1320.9844      -1029.3384
 98  7 10 16 28 14.9990000  0  8G 4G 5G30G 6G 8G 9G10G24
  11422417.12445   8900580.61843  23676510.7764   23676515.6754
     -2648.0164      -2063.3894
  -4425633.53447  -3424789.35647  20198822.7844   20198827.2024
      -159.1254       -123.9944
 -13755125.78447 -10624097.80347  20721581.1204   20721585.1284
      2208.6564       1721.0314
 -10938897.58345   -664484.24145  23019469.6984   23019475.3124
      2923.8754       2278.3444
   5104089.41245   3977204.13245  22678702.9724   22678708.9954
     -2045.2344      -1593.6894
  11552934.37544   8944973.55943  24408747.0504   24408754.6364
     -2508.3124      -1954.5294
 -15675478.17646 -12088998.77046  21650749.5734   21650755.2334
      2771.2974       2159.4524
   2369697.15947   1845696.76946  20879859.4404   20879864.6674
     -1326.6874      -1033.7824
 98  7 10 16 28 29.9990000  0  8G 4G 5G30G 6G 8G 9G10G24
  11462148.01345   8931539.73844  23684071.5974   23684077.3514
     -2649.4534      -2064.5094
  -4423179.22847  -3422876.91547  20199289.8394   20199294.2924
      -168.2034       -131.0674
 -13788191.64347 -10649863.39747  20715288.7064   20715292.6904
      2200.0164       1714.2984
 -10982747.14745   -698652.69245  23011125.7224   23011131.5114
      2922.6414       2277.3824
   5134808.00245   4001140.63045  22684548.7844   22684555.0424
     -2050.6564      -1597.9144
  11590556.33144   8974289.31343  24415906.6364   24415914.6084
     -2508.0004      -1954.2864
 -15716989.69146 -12121345.38446  21642850.1204   21642855.9914
      2763.5314       2153.4014
   2389640.38047   1861236.93746  20883654.5424   20883659.9804
     -1332.5004      -1038.3124
 98  7 10 16 28 44.9990000  0  8G 4G 5G30G 6G 8G 9G10G24
  11501899.16745   8962514.62844  23691635.8944   23691641.1554
     -2650.7504      -2065.5194
  -4420586.76147  -3420856.82147  20199782.9484   20199787.4954
      -177.4844       -138.3004
 -13821126.11747 -10675526.61547  20709021.4874   20709025.5304
      2191.2344       1707.4554
 -11026577.43146   -732806.13445  23002784.8394   23002789.9834
      2921.4224       2276.4334
   5165608.04745   4025140.62045  22690409.6444   22690415.4684
     -2056.0624      -1602.1274
  11628174.18444   9003601.85043  24423064.6514   24423074.8394
     -2507.7344      -1954.0794
 -15758384.60046 -12153601.13446  21634973.0814   21634978.9524
      2755.6884       2147.2894
   2409670.81247   1876845.06446  20887466.4954   20887471.7104
     -1338.1874      -1042.7444
 98  7 10 16 28 59.9990000  0  8G 4G 5G30G 6G 8G 9G10G24
  11541670.48645   8993505.23743  23699204.3864   23699210.9254
     -2651.8754      -2066.3964
  -4417853.83647  -3418727.27847  20200303.2304   20200307.6364
      -186.7034       -145.4834
 -13853930.45647 -10701088.42447  20702778.8314   20702782.6054
      2182.9384       1700.9904
 -11070390.38145   -766946.06845  22994447.6514   22994453.0544
      2920.5164       2275.7264
   5196488.69845   4049203.41745  22696286.1904   22696292.1444
     -2061.1414      -1606.0844
  11665787.17545   9032910.62943  24430222.5894   24430230.4094
     -2507.1254      -1953.6044
 -15799660.51946 -12185764.17346  21627118.2144   21627123.8864
      2747.9844       2141.2874
   2429784.47147   1892518.03746  20891293.7924   20891298.8784
     -1343.3754      -1046.7864
 98  7 10 16 29 14.9990000  0  8G 4G 5G30G 6G 8G 9G10G24
  11581460.75745   9024510.61644  23706776.2694   23706781.4134
     -2652.9844      -2067.2614
  -4414978.69047  -3416486.91147  20200850.3314   20200854.8664
      -196.2034       -152.8864
 -13886607.43647 -10726550.99747  20696560.5814   20696564.4834
      2174.4534       1694.3794
 -11114187.72645   -801073.83445  22986113.4014   22986118.9564
      2919.6724       2275.0694
   5227449.52445   4073328.68245  22702178.0814   22702184.1284
     -2066.4224      -1610.1994
  11703393.48445   9062214.18143  24437378.4804   24437386.7104
     -2506.5164      -1953.1294
 -15840818.54146 -12217835.34446  21619286.1984   21619292.0934
      2740.2974       2135.2964
   2449977.72347   1908253.03246  20895136.4174   20895141.4564
     -1348.5164      -1050.7914
 98  7 10 16 29 29.9990000  0  8G 4G 5G30G 6G 8G 9G10G24
  11621267.44245   9055528.78644  23714351.2304   23714357.1714
     -2654.5314      -2068.4664
  -4411960.65847  -3414135.21247  20201424.7304   20201429.1474
      -206.1254       -160.6174
 -13919158.09747 -10751915.14247  20690366.6834   20690370.5384
      2165.7344       1687.5854
 -11157974.14245   -835193.09545  22977780.8154   22977786.6164
      2918.5634       2274.2054
   5258488.01945   4097514.47045  22708084.5034   22708090.8194
     -2072.0784      -1614.6064
  11740987.65445   9091508.26943  24444532.5894   24444541.2884
     -2505.9694      -1952.7034
 -15881861.32646 -12249816.71746  21611476.0734   21611481.8624
      2732.0784       2128.8924
   2470246.49547   1924046.87546  20898993.3004   20898998.4214
     -1353.8754      -1054.9684
 98  7 10 16 29 44.9990000  0  8G 4G 5G30G 6G 8G 9G10G24
  11661092.76945   9086561.46944  23721929.6204   23721934.7654
     -2655.5944      -2069.2944
  -4408800.44147  -3411672.71147  20202026.1054   20202030.6054
      -215.2814       -167.7524
 -13951584.24547 -10777182.25847  20684196.0114   20684199.7374
      2157.7504       1681.3644
 -11201747.80645   -869302.41545  22969451.1594   22969456.9014
      2917.8594       2273.6574
   5289608.09245   4121763.83545  22714006.0194   22714012.5464
     -2077.3594      -1618.7224
  11778569.47245   9120792.72544  24451685.0654   24451692.6284
     -2505.0624      -1951.9974
 -15922784.27346 -12281704.71346  21603688.5974   21603694.4094
      2724.2344       2122.7804
   2490589.27747   1939898.38746  20902864.6444   20902869.6594
     -1358.5944      -1058.6444
 98  7 10 16 29 59.9990000  0  8G 4G 5G30G 6G 8G 9G10G24
  11700935.36645   9117607.65544  23729511.6284   23729516.9374
     -2656.7664      -2070.2074
  -4405501.60547  -3409102.19647  20202653.9254   20202658.3904
      -224.5164       -174.9474
 -13983890.21947 -10802355.73447  20678048.4484   20678052.0814
      2149.6724       1675.0694
 -11245510.37245   -903403.08245  22961123.3004   22961129.2184
      2917.1414       2273.0974
   5320809.48145   4146076.53745  22719943.9404   22719950.2454
     -2082.8444      -1622.9954
  11816139.88945   9150068.32843  24458833.7144   24458840.6204
     -2504.2974      -1951.4004
 -15963589.18946 -12313500.73146  21595923.7224   21595929.7224
      2716.4534       2116.7174
   2511004.47847   1955806.32846  20906749.6124   20906754.8744
     -1363.4224      -1062.4074
 98  7 10 16 30 14.9990000  0  8G 4G 5G30G 6G 8G 9G10G24
  11740795.68645   9148667.61244  23737096.6904   23737101.5774
     -2657.8594      -2071.0594
  -4402064.38647  -3406423.84747  20203307.7374   20203312.1084
      -233.7504       -182.1434
 -14016072.81847 -10827433.07547  20671924.2454   20671928.0424
      2141.3444       1668.5804
 -11289260.49145   -937494.06145  22952797.7454   22952803.4874
      2916.2974       2272.4394
   5352093.49445   4170453.61545  22725896.7304   22725903.0584
     -2088.2974      -1627.2444
  11853697.72845   9179334.11243  24465980.5974   24465988.1714
     -2503.4064      -1950.7064
 -16004276.44146 -12345205.06246  21588181.0504   21588186.9094
      2708.6094       2110.6054
   2531494.21347   1971772.35146  20910648.6904   20910653.9644
     -1368.4534      -1066.3274
 98  7 10 16 30 29.9990000  0  8G 4G 5G30G 6G 8G 9G10G24
  11780674.00545   9179741.60344  23744685.6904   23744691.1514
     -2659.3754      -2072.2404
  -4398487.10447  -3403636.36547  20203988.5194   20203992.9374
      -243.2974       -189.5824
 -14048126.80047 -10852410.19347  20665824.7374   20665828.3824
      2132.3914       1661.6034
 -11332998.15445   -971575.33445  22944474.5114   22944479.9724
      2915.3134       2271.6724
   5383459.75845   4194894.80545  22731865.8154   22731871.7104
     -2093.9844      -1631.6764
  11891245.17944   9208591.82143  24473126.0584   24473134.8154
     -2502.9844      -1950.3774
 -16044844.35546 -12376816.40646  21580461.3314   21580467.1084
      2700.3134       2104.1404
   2552060.10647   1987797.71546  20914562.2844   20914567.6404
     -1373.7814      -1070.4794
 98  7 10 16 30 44.9990000  0  8G 4G 5G30G 6G 8G 9G10G24
  11820576.80745   9210834.68145  23752278.8394   23752283.9724
     -2661.0004      -2073.5064
  -4394766.30947  -3400737.04947  20204696.3864   20204701.0624
      -252.7664       -196.9604
 -14080045.27147 -10877281.72147  20659750.6904   20659754.4294
      2123.4534       1654.6394
 -11376719.94245  -1005644.22645  22936154.8084   22936160.1754
      2914.2814       2270.8694
   5414911.83945   4219402.86845  22737850.9954   22737857.1244
     -2099.5164      -1635.9864
  11928786.94344   9237845.07743  24480269.9334   24480278.5384
     -2502.5944      -1950.0734
 -16085287.36246 -12408330.42246  21572765.4254   21572771.3904
      2692.0634       2097.7114
   2572706.44347   2003885.76346  20918491.0194   20918496.3514
     -1379.0004      -1074.5454
 98  7 10 16 30 59.9990000  0  8G 4G 5G30G 6G 8G 9G10G24
  11860502.64345   9241945.68345  23759876.0654   23759882.6514
     -2662.3444      -2074.5544
  -4390905.37147  -3397728.54347  20205431.3004   20205435.8124
      -261.9224       -204.0954
 -14111833.26047 -10902051.57347  20653701.7844   20653705.4874
      2115.0944       1648.1254
 -11420428.99645  -1039703.18845  22927837.2224   22927843.1754
      2913.6564       2270.3814
   5446443.32945   4243972.79545  22743851.0584   22743856.9874
     -2104.5474      -1639.9074
  11966320.25043   9267091.75943  24487411.7304   24487420.6054
     -2501.7814      -1949.4404
 -16125607.41346 -12439748.62446  21565092.7064   21565098.5424
      2684.0314       2091.4534
   2593428.25547   2020032.62546  20922434.2374   20922439.4874
     -1383.7974      -1078.2834
 98  7 10 16 31 14.9990000  0  8G 4G 5G30G 6G 8G 9G10G24
  11900450.54345   9273073.90044  23767477.9644   23767483.5544
     -2663.9064      -2075.7714
  -4386905.62347  -3394611.86047  20206192.2534   20206196.8004
      -271.2504       -211.3644
 -14143494.26647 -10926722.47747  20647676.9724   20647680.7224
      2106.4384       1641.3804
 -11464125.69145  -1073752.54045  22919522.1834   22919528.3824
      2912.6884       2269.6274
   5478051.64045   4268602.59945  22749866.2064   22749872.5224
     -2109.7194      -1643.9374
  12003844.07443   9296331.02443  24494551.4874   24494560.0584
     -2501.3124      -1949.0754
 -16165805.06746 -12471071.45046  21557443.1514   21557448.8234
      2675.7664       2085.0124
   2614223.68947   2036236.85246  20926391.5194   20926396.7104
     -1388.8444      -1082.2164
 98  7 10 16 31 29.9990000  0  8G 4G 5G30G 6G 8G 9G10G24
  11940421.21245   9304219.83944  23775084.2844   23775089.7804
     -2665.5784      -2077.0744
  -4382766.62447  -3391386.67647  20206979.9644   20206984.5344
      -280.6874       -218.7184
 -14175023.23247 -10951290.49347  20641676.9644   20641680.9604
      2097.3594       1634.3064
 -11507808.19845  -1107790.82445  22911209.4094   22911214.8354
      2911.5944       2268.7744
   5509736.16345   4293291.78145  22755895.4484   22755901.4374
     -2114.9374      -1648.0034
  12041361.71843   9325565.44142  24501691.2454   24501698.9134
     -2501.1414      -1948.9414
 -16205878.13946 -12502297.20146  21549817.5894   21549823.3554
      2667.2194       2078.3524
   2635096.00647   2052500.98946  20930363.4404   20930368.7024
     -1394.1874      -1086.3804
 98  7 10 16 31 44.9990000  0  8G 4G 5G30G 6G 8G 9G10G24
  11980416.75245   9335385.17844  23782695.4954   23782701.6014
     -2667.0004      -2078.1824
  -4378487.02147  -3388051.93447  20207794.3704   20207799.0694
      -289.7814       -225.8044
 -14206416.67647 -10975752.90847  20635703.1674   20635706.9524
      2088.5474       1627.4394
 -11551474.81745  -1141816.73945  22902899.6834   22902905.4954
      2910.7194       2268.0934
   5541498.51945   4318041.60445  22761940.2454   22761946.3154
     -2119.9224      -1651.8874
  12078876.68743   9354797.82742  24508830.9804   24508838.5304
     -2500.7664      -1948.6494
 -16245822.05546 -12533422.31146  21542216.5114   21542222.3474
      2658.7664       2071.7654
   2656047.85947   2068827.10446  20934350.3704   20934355.5504
     -1399.2664      -1090.3374
 98  7 10 16 31 59.9990000  0  8G 4G 5G30G 6G 8G 9G10G24
  12020432.99145   9366566.62645  23790310.2454   23790316.0464
     -2668.6254      -2079.4484
  -4374071.28647  -3384611.10647  20208634.6984   20208639.2574
      -299.1874       -233.1334
 -14237677.21447 -11000111.75747  20629754.3554   20629758.1054
      2079.3914       1620.3044
 -11595128.21845  -1175832.35745  22894593.2144   22894599.2964
      2909.5944       2267.2164
   5573333.22945   4342847.81345  22767997.6834   22768004.1284
     -2124.8124      -1655.6984
  12116386.32743   9384026.08642  24515969.2374   24515976.0344
     -2500.6414      -1948.5514
 -16285639.98046 -12564449.24846  21534639.4564   21534645.2334
      2650.1564       2065.0574
   2677074.98947   2085211.87646  20938351.8864   20938357.1474
     -1404.4844      -1094.4034
 98  7 10 16 32 14.9990000  0  8G 4G 5G30G 6G 8G 9G10G24
  12060476.72245   9397769.49444  23797930.1444   23797935.7334
     -2670.5624      -2080.9584
  -4369509.25247  -3381056.28847  20209502.9254   20209507.4834
      -309.1254       -240.8774
 -14268796.36647 -11024360.43947  20623832.7374   20623836.2764
      2069.7664       1612.8044
 -11638761.48645  -1209832.28245  22886289.7064   22886295.6244
      2908.0634       2266.0234
   5605245.10745   4367714.17345  22774070.5344   22774076.9914
     -2130.1564      -1659.8624
  12153895.65044   9413254.06543  24523106.7844   24523115.7654
     -2500.6564      -1948.5634
 -16325325.51746 -12595373.02746  21527087.5734   21527093.1054
      2641.1884       2058.0684
   2698184.36847   2101660.74246  20942368.6984   20942374.1594
     -1410.1724      -1098.8354
 98  7 10 16 32 29.9990000  0  8G 4G 5G30G 6G 8G 9G10G24
  12100542.14645   9428989.28844  23805554.6594   23805559.9564
     -2671.7034      -2081.8474
  -4364804.82147  -3377390.50247  20210398.0814   20210402.5344
      -318.3754       -248.0844
 -14299777.54247 -11048501.60447  20617937.0814   20617940.7024
      2060.8754       1605.8774
 -11682376.42345  -1243817.91345  22877989.7694   22877995.8044
      2907.0474       2265.2314
   5637229.87745   4392637.29445  22780156.8234   22780162.9404
     -2134.7034      -1663.4054
  12191398.72844   9442477.22642  24530243.9644   24530251.5384
     -2499.9534      -1948.0154
 -16364881.01746 -12626195.47346  21519560.1834   21519566.0894
      2632.7034       2051.4574
   2719373.59147   2118171.81846  20946400.9404   20946406.1084
     -1415.1874      -1102.7444
 98  7 10 16 32 44.9990000  0  8G 4G 5G30G 6G 8G 9G10G24
  12140629.57445   9460226.20544  23813183.0814   23813188.7064
     -2673.1724      -2082.9914
  -4359955.39147  -3373611.73847  20211320.8314   20211325.4724
      -328.1094       -255.6704
 -14330620.68047 -11072535.20947  20612067.6904   20612071.2764
      2051.7034       1598.7304
 -11725968.97346  -1277786.10145  22869694.9254   22869700.3974
      2905.3444       2263.9044
   5669289.11145   4417618.47745  22786257.6984   22786263.7804
     -2139.7504      -1667.3384
  12228897.17043   9471696.70042  24537379.2764   24537388.3514
     -2499.6564      -1947.7844
 -16404304.22046 -12656914.83446  21512058.4174   21512064.3584
      2623.8754       2044.5784
   2740641.95747   2134744.56646  20950448.0584   20950453.1674
     -1420.4224      -1106.8224
 98  7 10 16 32 59.9990000  0  8G 4G 5G30G 6G 8G 9G10G24
  12180735.83745   9491477.79644  23820814.4334   23820820.4094
     -2674.3594      -2083.9164
  -4354961.14947  -3369720.13347  20212271.2304   20212275.7764
      -337.8914       -263.2914
 -14361330.77047 -11096465.13847  20606223.9644   20606227.6084
      2042.8914       1591.8634
 -11769535.78246  -1311734.24445  22861404.1674   22861409.6404
      2903.4694       2262.4434
   5701421.34645   4442656.51945  22792372.3864   22792378.3624
     -2144.7034      -1671.1974
  12266388.84243   9500910.93343  24544512.7144   24544520.1944
     -2499.2974      -1947.5044
 -16443599.21246 -12687534.29046  21504580.7694   21504586.5584
      2615.3284       2037.9184
   2761985.29247   2151375.72946  20954509.6284   20954514.7374
     -1425.4374      -1110.7314
 98  7 10 16 33 14.9990000  0  8G 4G 5G30G 6G 8G 9G10G24
  12220861.33245   9522744.39244  23828450.2614   23828456.1444
     -2675.5474      -2084.8424
  -4349817.20647  -3365711.87347  20213250.0894   20213254.5894
      -347.8284       -271.0354
 -14391905.78847 -11120289.81947  20600405.5344   20600409.2844
      2033.8914       1584.8504
 -11813071.32546  -1345658.01445  22853119.6754   22853125.3474
      2901.3914       2260.8244
   5733633.83545   4467757.11545  22798502.2534   22798508.7224
     -2150.1414      -1675.4344
  12303876.07443   9530121.70042  24551647.1514   24551654.7024
     -2498.8914      -1947.1874
 -16482763.12446 -12718051.59946  21497128.1904   21497133.8154
      2606.7034       2031.1974
   2783407.70247   2168068.50946  20958586.1124   20958591.3864
     -1430.7194      -1114.8464
 98  7 10 16 33 29.9990000  0  8G 4G 5G30G 6G 8G 9G10G24
  12261003.45045   9554023.89244  23836089.0344   23836094.9524
     -2676.8284      -2085.8404
  -4344526.03047  -3361588.89047  20214256.9564   20214261.6324
      -357.8284       -278.8274
 -14422345.15747 -11144008.79347  20594613.1984   20594616.8194
      2024.5314       1577.5574
 -11856577.29745  -1379558.74545  22844840.8004   22844846.0974
      2899.2504       2259.1564
   5765926.47245   4492920.11945  22804647.2694   22804653.6794
     -2155.6564      -1679.7324
  12341355.95843   9559326.78343  24558780.1444   24558787.2614
     -2498.5624      -1946.9324
 -16521800.20546 -12748470.08946  21489699.6444   21489704.9874
      2598.1094       2024.5014
   2804907.34847   2184821.47346  20962677.2844   20962682.5934
     -1436.0784      -1119.0224
 98  7 10 16 33 44.9990000  0  8G 4G 5G30G 6G 8G 9G10G24
  12301164.48745   9585318.21643  23843731.4014   23843736.9804
     -2677.8594      -2086.6444
  -4339084.53647  -3357348.77747  20215292.5194   20215297.0654
      -367.6414       -286.4734
 -14452644.45247 -11167618.62247  20588847.4954   20588851.1284
      2015.5164       1570.5324
 -11900050.07845  -1413433.60745  22836567.9484   22836573.6674
      2897.1724       2257.5374
   5798302.60945   4518148.20045  22810808.4174   22810814.9914
     -2161.0474      -1683.9334
  12378830.62943   9588527.73842  24565910.9254   24565918.6164
     -2497.9534      -1946.4574
 -16560708.56246 -12778788.26746  21482295.7064   21482301.0154
      2589.7664       2017.9994
   2826487.60147   2201637.24846  20966783.9874   20966789.1084
     -1441.1724      -1122.9914
 98  7 10 16 33 59.9990000  0  8G 4G 5G30G 6G 8G 9G10G24
  12341340.76145   9616624.36643  23851377.2844   23851383.2144
     -2678.8914      -2087.4474
  -4333496.22447  -3352994.25547  20216356.0114   20216360.7454
      -377.3754       -294.0584
 -14482809.05247 -11191123.49547  20583107.1444   20583110.9294
      2006.4844       1563.4944
 -11943490.31045  -1447283.12045  22828301.7694   22828307.5114
      2894.8754       2255.7474
   5830759.30045   4543439.06445  22816984.8084   22816990.6904
     -2166.4224      -1688.1214
  12416295.43842   9617721.09342  24573040.3624   24573047.5264
     -2497.3284      -1945.9704
 -16599490.53046 -12809007.96446  21474915.5504   21474920.8354
      2581.2194       2011.3394
   2848143.65547   2218512.08646  20970905.1594   20970910.3624
     -1446.2664      -1126.9604
 98  7 10 16 34 14.9990000  0  8G 4G 5G30G 6G 8G 9G10G24
  12381532.86945   9647942.87243  23859025.4094   23859029.9444
     -2679.8284      -2088.1784
  -4327761.57447  -3348525.70747  20217447.3084   20217451.9374
      -387.0314       -301.5834
 -14512837.52047 -11214522.28947  20577392.9094   20577396.7414
      1997.5314       1556.5184
 -11986895.25846  -1481105.12045  22820042.0034   22820047.6874
      2892.6884       2254.0424
   5863297.03945   4568793.09545  22823176.4804   22823182.8194
     -2171.7194      -1692.2484
  12453753.42442   9646909.04442  24580167.9484   24580174.6164
     -2496.9064      -1945.6414
 -16638143.40746 -12839127.06446  21467560.1754   21467565.7414
      2572.7194       2004.7164
   2869878.18647   2235448.07646  20975040.8234   20975045.8974
     -1451.5314      -1131.0634
 98  7 10 16 34 29.9990000  0  8G 4G 5G30G 6G 8G 9G10G24
  12421735.64745   9679269.66043  23866675.5504   23866681.6084
     -2680.5314      -2088.7264
  -4321884.85247  -3343946.45447  20218565.4174   20218570.0464
      -396.5164       -308.9734
 -14542733.05147 -11237817.49647  20571703.9954   20571707.7694
      1988.5314       1549.5054
 -12030271.16645  -1514904.50345  22811787.7694   22811793.3004
      2890.7974       2252.5694
   5895912.97745   4594208.06245  22829383.0424   22829389.3704
     -2176.9844      -1696.3514
  12491203.82742   9676091.10141  24587294.6834   24587304.0154
     -2496.5164      -1945.3374
 -16676670.49746 -12869148.14746  21460228.5974   21460234.1984
      2564.2034       1998.0804
   2891691.24047   2252445.25646  20979191.7694   20979197.0194
     -1456.8284      -1135.1914
 98  7 10 16 34 44.9990000  0  8G 4G 5G30G 6G 8G 9G10G24
  12461952.62545   9710607.54744  23874328.6124   23874333.4054
     -2681.6414      -2089.5904
  -4315861.77547  -3339253.15947  20219711.6054   20219716.0344
      -406.5474       -316.7904
 -14572489.57247 -11261004.38747  20566041.4334   20566045.2534
      1979.0784       1542.1394
 -12073615.62445  -1548679.37845  22803539.7694   22803545.3234
      2888.5944       2250.8524
   5928609.85245   4619686.07245  22835605.1514   22835611.5384
     -2182.5164      -1700.6624
  12528654.02343   9705272.98941  24594422.5194   24594428.8944
     -2496.7194      -1945.4954
 -16715065.38046 -12899066.22246  21452922.3784   21452927.9444
      2555.2034       1991.0674
   2913585.69047   2269505.86146  20983358.3394   20983363.6834
     -1462.3124      -1139.4644
 98  7 10 16 34 59.9990000  0  8G 4G 5G30G 6G 8G 9G10G24
  12502179.82245   9741953.38843  23881983.5114   23881988.6904
     -2682.1414      -2089.9804
  -4309693.80447  -3334446.96447  20220885.4874   20220890.1874
      -415.9844       -324.1444
 -14602111.14047 -11284086.12047  20560404.7374   20560408.3944
      1970.2974       1535.2964
 -12116934.45546  -1582434.27845  22795296.1594   22795301.7374
      2887.1414       2249.7204
   5961382.76745   4645223.35445  22841841.8474   22841848.5974
     -2187.3444      -1704.4244
  12566101.26543   9734452.62342  24601546.8554   24601554.7334
     -2496.3914      -1945.2394
 -16753331.45246 -12928883.91946  21445640.6514   21445646.4054
      2546.7504       1984.4814
   2935556.21647   2286625.74146  20987539.1364   20987544.4444
     -1467.2504      -1143.3124
 98  7 10 16 35 14.9990000  0  8G 4G 5G30G 6G 8G 9G10G24
  12542418.19545   9773307.93943  23889640.6834   23889646.2144
     -2683.0474      -2090.6864
  -4303381.48947  -3329528.28947  20222086.7144   20222091.3904
      -425.6414       -331.6684
 -14631596.05547 -11307061.36847  20554794.0034   20554797.7414
      1960.9694       1528.0284
 -12160229.88746  -1616170.93845  22787057.4254   22787063.1444
      2885.5784       2248.5024
   5994231.32045   4670819.56145  22848092.5344   22848098.8154
     -2192.4844      -1708.4294
  12603545.94243   9763630.22543  24608673.3394   24608684.3124
     -2496.2504      -1945.1304
 -16791465.60146 -12958598.82046  21438383.9954   21438389.5154
      2537.6884       1977.4194
   2957606.48847   2303807.76546  20991735.2454   20991740.8354
     -1472.8594      -1147.6834
 98  7 10 16 35 29.9990000  0  8G 4G 5G30G 6G 8G 9G10G24
  12582670.64745   9804673.46343  23897300.6364   23897305.3474
     -2683.8124      -2091.2824
  -4296927.88947  -3324499.52247  20223314.8554   20223319.4484
      -434.7034       -338.7304
 -14660941.23247 -11329927.73047  20549209.8554   20549213.7224
      1951.8134       1520.8934
 -12203503.66345  -1649890.74345  22778822.5194   22778828.3784
      2884.4064       2247.5894
   6027154.15045   4696473.65045  22854357.6594   22854363.9294
     -2197.0164      -1711.9604
  12640987.87343   9792805.68642  24615798.3084   24615806.7264
     -2495.8594      -1944.8254
 -16829462.42146 -12988206.71246  21431153.4404   21431159.0894
      2528.6724       1970.3944
   2979739.75547   2321054.45746  20995946.9484   20995952.5504
     -1478.0624      -1151.7374
 98  7 10 16 35 44.9990000  0  8G 4G 5G30G 6G 8G 9G10G24
  12622935.93545   9836048.96143  23904963.2374   23904969.1444
     -2684.5314      -2091.8434
  -4290338.59947  -3319365.01947  20224568.6754   20224573.3154
      -443.5314       -345.6094
 -14690147.28447 -11352685.68247  20543652.1364   20543655.8044
      1942.7344       1513.8194
 -12246758.89345  -1683596.07745  22770591.2694   22770596.9644
      2883.2504       2246.6884
   6060143.85245   4722179.84645  22860635.7614   22860642.5114
     -2201.2814      -1715.2844
  12678425.15443   9821977.53142  24622922.4954   24622930.2454
     -2495.3914      -1944.4604
 -16867321.78246 -13017707.48946  21423949.0504   21423954.8274
      2519.6094       1963.3324
   3001951.71047   2338362.46446  21000173.6834   21000179.0854
     -1483.1874      -1155.7314
 98  7 10 16 35 59.9990000  0  8G 4G 5G30G 6G 8G 9G10G24
  12663212.07245   9867432.97843  23912627.1514   23912634.1164
     -2685.5784      -2092.6584
  -4283618.32947  -3314128.45647  20225847.4564   20225852.0154
      -452.4534       -352.5614
 -14719220.73047 -11375340.30947  20538119.6674   20538123.4054
      1933.7504       1506.8184
 -12289997.94845  -1717288.81745  22762363.3864   22762369.3514
      2882.0004       2245.7144
   6093197.20745   4747935.64745  22866925.4254   22866931.8944
     -2205.7974      -1718.8034
  12715853.12644   9851142.13642  24630045.0424   24630054.0814
     -2495.0624      -1944.2054
 -16905046.15146 -13047103.08046  21416770.3004   21416775.9374
      2510.3284       1956.1004
   3024239.16847   2355729.30546  21004415.0034   21004420.3944
     -1488.3754      -1159.7734
 98  7 10 16 36 14.9990000  0  8G 4G 5G30G 6G 8G 9G10G24
  12703503.68245   9898829.00143  23920294.4724   23920300.0974
     -2686.4224      -2093.3164
  -4276762.97247  -3308786.63447  20227152.1284   20227156.6874
      -461.4224       -359.5504
 -14748159.06447 -11397889.65347  20532612.8154   20532616.6014
      1924.8914       1499.9154
 -12333219.25546  -1750967.72545  22754138.8864   22754144.7104
      2881.0474       2244.9724
   6126318.06045   4773744.04845  22873228.2144   22873234.4254
     -2210.0944      -1722.1514
  12753276.69644   9880303.33843  24637165.6124   24637175.0034
     -2494.5944      -1943.8394
 -16942631.34047 -13076390.21346  21409618.0504   21409623.5464
      2501.2814       1949.0504
   3046603.31147   2373155.89946  21008670.7844   21008676.2694
     -1493.2974      -1163.6084
 98  7 10 16 36 29.9990000  0  8G 4G 5G30G 6G 8G 9G10G24
  12743810.90345   9930237.17444  23927964.8944   23927969.5934
     -2687.8754      -2094.4484
  -4269768.53947  -3303336.43847  20228483.0734   20228487.7844
      -471.1564       -367.1354
 -14776961.59247 -11420333.17347  20527131.8314   20527135.4524
      1915.5164       1492.6104
 -12376423.21146  -1784633.14945  22745917.1594   22745922.7374
      2879.4844       2243.7544
   6159505.80445   4799604.56345  22879543.3944   22879549.6984
     -2214.8914      -1725.8894
  12790696.35844   9909461.44942  24644286.2144   24644293.0734
     -2494.6254      -1943.8644
 -16980079.16047 -13105570.31446  21402491.7614   21402497.4564
      2491.8284       1941.6844
   3069042.97647   2390641.34846  21012941.0034   21012946.3704
     -1498.5784      -1167.7234
 98  7 10 16 36 44.9990000  0  8G 4G 5G30G 6G 8G 9G10G24
  12784135.66545   9961659.06043  23935638.5654   23935643.8864
     -2688.8444      -2095.2034
  -4262632.25947  -3297775.71047  20229841.0974   20229845.7264
      -480.4224       -374.3554
 -14805629.05947 -11442671.44847  20521676.5504   20521680.1594
      1906.7974       1485.8164
 -12419607.20246  -1818282.97145  22737699.4174   22737705.1364
      2878.2664       2242.8044
   6192760.78645   4825517.45945  22885872.0814   22885878.4914
     -2219.1254      -1729.1884
  12828109.14044   9938614.20142  24651406.5194   24651415.4644
     -2493.7664      -1943.1944
 -17017389.63347 -13134643.38446  21395391.9334   21395397.5814
      2482.8594       1934.6964
   3091554.07947   2408182.45946  21017224.3474   21017229.8194
     -1502.9064      -1171.0964
 98  7 10 16 36 59.9990000  0  8G 4G 5G30G 6G 8G 9G10G24
  12824480.05745   9993096.23144  23943315.6754   23943321.8864
     -2690.3594      -2096.3844
  -4255352.08847  -3292102.86647  20231226.6124   20231231.1474
      -490.1564       -381.9404
 -14834163.20947 -11464905.84247  20516246.5894   20516250.2224
      1897.8284       1478.8274
 -12462765.73246  -1851912.96545  22729486.6904   22729492.1284
      2876.2974       2241.2704
   6226083.62745   4851483.25945  22892213.1984   22892219.3624
     -2223.8594      -1732.8774
  12865511.29643   9967758.73842  24658524.0654   24658532.3904
     -2493.0944      -1942.6704
 -17054562.29747 -13163609.07746  21388318.1674   21388323.9094
      2473.5784       1927.4634
   3114133.47347   2425776.78646  21021521.4564   21021526.8944
     -1507.6564      -1174.7974
 98  7 10 16 37 14.9990000  0  8G 4G 5G30G 6G 8G 9G10G24
  12864843.57945  10024548.30943  23950996.7534   23951002.0384
     -2691.3284      -2097.1394
  -4247932.41047  -3286321.30947  20232638.4724   20232642.9484
      -499.0004       -388.8314
 -14862567.37547 -11487038.95347  20510841.4954   20510845.1054
      1889.4384       1472.2894
 -12505899.66446  -1885523.78345  22721278.4724   22721284.0264
      2874.9694       2240.2354
   6259471.95045   4877500.07045  22898566.8864   22898573.3194
     -2227.8284      -1735.9704
  12902897.02444   9996890.39542  24665638.6904   24665646.1014
     -2491.5314      -1941.4534
 -17091601.42746 -13192470.71046  21381269.9334   21381275.6874
      2465.1094       1920.8644
   3136779.51847   2443423.04746  21025830.6514   21025836.2304
     -1511.6724      -1177.9264
 98  7 10 16 37 29.9990000  0  8G 4G 5G30G 6G 8G 9G10G24
  12905230.41945  10056018.55144  23958682.1674   23958688.6474
     -2693.5784      -2098.8924
  -4240372.06647  -3280430.14447  20234076.9484   20234081.3784
      -509.0474       -396.6604
 -14890836.19547 -11509066.59847  20505462.2924   20505465.9604
      1879.7814       1464.7654
 -12549005.41646  -1919112.63845  22713075.7694   22713081.1714
      2872.4384       2238.2634
   6292927.27945   4903569.09045  22904933.0504   22904939.6124
     -2232.9374      -1739.9514
  12940266.36744  10026009.32043  24672748.9484   24672759.0194
     -2491.0784      -1941.1004
 -17128506.99946 -13221228.27846  21374246.8084   21374252.5974
      2455.6724       1913.5114
   3159492.81147   2461121.70846  21030152.9094   21030158.4174
     -1516.6724      -1181.8224
 98  7 10 16 37 44.9990000  0  8G 4G 5G30G 6G 8G 9G10G24
  12945643.07445  10087508.91044  23966372.5504   23966376.4644
     -2694.9224      -2099.9394
  -4232666.83047  -3274426.07447  20235543.4724   20235548.2304
      -518.5004       -404.0264
 -14918967.55447 -11530987.12647  20500108.8944   20500112.3624
      1870.9224       1457.8614
 -12592080.27145  -1952677.43545  22704878.7844   22704884.8784
      2870.7504       2236.9484
   6326452.74445   4929692.77945  22911313.0654   22911319.9094
     -2237.3124      -1743.3604
  12977622.21044  10055117.73142  24679858.1514   24679866.3004
     -2489.8754      -1940.1624
 -17165279.62146 -13249882.23846  21367249.1124   21367254.8194
      2447.2194       1906.9244
   3182271.42547   2478871.27446  21034487.4804   21034492.9404
     -1520.6724      -1184.9394
 98  7 10 16 37 59.9990000  0  8G 4G 5G30G 6G 8G 9G10G24
  12986080.30745  10119018.43544  23974067.3004   23974072.3744
     -2696.5004      -2101.1694
  -4224814.06447  -3268307.04847  20237037.9334   20237042.5154
      -528.3444       -411.6964
 -14946963.46147 -11552802.11347  20494781.4174   20494784.9804
      1862.0784       1450.9704
 -12635125.92745  -1986219.47345  22696687.2614   22696693.1674
      2868.8914       2235.4994
   6360049.03445   4955871.63345  22917706.1204   22917712.5074
     -2242.0004      -1747.0134
  13014964.56344  10084215.62142  24686964.4564   24686970.4094
     -2488.9534      -1939.4444
 -17201922.81246 -13278435.34746  21360276.3234   21360282.1594
      2438.7504       1900.3254
   3205114.31047   2496670.91346  21038834.4334   21038840.1874
     -1524.8754      -1188.2144
 98  7 10 16 38 14.9990000  0  8G 4G 5G30G 6G 8G 9G10G24
  13026541.19145  10150546.35643  23981766.8554   23981771.9874
     -2698.0624      -2102.3864
  -4216812.22847  -3262071.86347  20238560.4404   20238564.9874
      -538.4064       -419.5374
 -14974824.71147 -11574512.17147  20489479.7694   20489483.4134
      1852.8444       1443.7744
 -12678144.05646  -2019740.07845  22688501.4094   22688507.3624
      2867.0004       2234.0264
   6393715.73145   4982105.36945  22924112.9254   22924119.1944
     -2246.7194      -1750.6904
  13052295.68944  10113304.78042  24694067.0114   24694076.1084
     -2488.4224      -1939.0304
 -17238437.83846 -13306888.58746  21353327.5194   21353333.2144
      2430.0164       1893.5194
   3228019.61647   2514519.19746  21043193.0654   21043198.5264
     -1529.0474      -1191.4654
 98  7 10 16 38 29.9990000  0  8G 4G 5G30G 6G 8G 9G10G24
  13067017.85145  10182086.58743  23989469.2924   23989475.1284
     -2699.0474      -2103.1534
  -4208665.21547  -3255723.55347  20240110.7534   20240115.2764
      -547.9844       -427.0014
 -15002551.51447 -11596117.46147  20484203.4564   20484207.1014
      1843.7974       1436.7254
 -12721138.95646  -2053242.56445  22680319.6124   22680325.1444
      2865.4224       2232.7964
   6427446.11945   5008388.72245  22930531.0584   22930537.3394
     -2250.9064      -1753.9534
  13089612.86944  10142383.08543  24701168.2454   24701177.1204
     -2487.3754      -1938.2144
 -17274826.68646 -13335243.51146  21346402.9254   21346408.6444
      2421.5784       1886.9444
   3250983.12247   2532412.82846  21047562.9174   21047568.2964
     -1532.9844      -1194.5334
 98  7 10 16 38 44.9990000  0  8G 4G 5G30G 6G 8G 9G10G24
  13107516.41545  10213643.87943  23997175.9644   23997180.5224
     -2700.7664      -2104.4934
  -4200371.47447  -3249260.91147  20241688.8944   20241693.6754
      -557.8444       -434.6834
 -15030134.23047 -11617610.48047  20478954.6284   20478958.3664
      1833.8914       1429.0064
 -12764103.08046  -2086721.08445  22672143.6204   22672149.3744
      2863.2034       2231.0674
   6461246.97045   5034726.98145  22936963.2304   22936969.1944
     -2255.8754      -1757.8254
  13126919.04344  10171452.75143  24708268.7304   24708276.2804
     -2486.7194      -1937.7034
 -17311081.54746 -13363494.02046  21339503.6514   21339509.4054
      2412.4224       1879.8094
   3274013.66147   2550358.69946  21051945.6594   21051951.0624
     -1537.7814      -1198.2714
 98  7 10 16 38 59.9990000  0  8G 4G 5G30G 6G 8G 9G10G24
  13148036.06645  10245217.59443  24004886.3234   24004890.5774
     -2701.7664      -2105.2724
  -4191933.57347  -3242685.93547  20243294.6674   20243299.3084
      -567.0944       -441.8914
 -15057571.28247 -11638989.99147  20473733.4954   20473737.1634
      1824.3754       1421.5914
 -12807039.79146  -2120178.22245  22663972.7924   22663978.7694
      2861.7194       2229.9114
   6495117.61545   5061119.62945  22943408.7304   22943415.5034
     -2260.1564      -1761.1614
  13164210.05844  10200510.65243  24715364.9564   24715372.6944
     -2485.3284      -1936.6194
 -17347203.24946 -13391640.77246  21332630.2454   21332635.8004
      2403.8754       1873.1494
   3297112.92047   2568358.11846  21056341.3004   21056346.6794
     -1542.1414      -1201.6684
 98  7 10 16 39 14.9990000  0  7G 4G 5G30G 6G 8G10G24
  13188570.31245  10276802.70843  24012599.1904   24012604.5114
     -2702.8124      -2106.0884
  -4183358.11047  -3236003.77347  20244926.7224   20244931.3744
      -576.3754       -449.1234
 -15084863.97647 -11660257.01647  20468539.9094   20468543.3904
      1814.5004       1413.8964
 -12849954.48646  -2153618.20945  22655806.5734   22655812.3624
      2860.2344       2228.7544
   6529052.84345   5087562.58645  22949866.6904   22949873.2064
     -2264.5944      -1764.6194
 -17383197.03646 -13419687.85246  21325780.7064   21325786.3084
      2395.1884       1866.3804
   3320279.54147   2586410.02346  21060749.5734   21060754.9874
     -1546.8284      -1205.3214
 98  7 10 16 39 29.9990000  0  7G 4G 5G30G 6G 8G10G24
  13229122.93645  10308402.10843  24020316.8704   24020321.8514
     -2704.2504      -2107.2084
  -4174639.35447  -3229209.95047  20246585.7694   20246590.3744
      -586.2664       -456.8304
 -15112003.03647 -11681404.32947  20463375.6124   20463379.2574
      1803.9224       1405.6534
 -12892844.36946  -2187038.86445  22647645.1284   22647650.6834
      2858.2664       2227.2204
   6563057.88945   5114059.97445  22956337.9094   22956344.0504
     -2269.5944      -1768.5154
 -17419055.47546 -13447629.46646  21318957.2304   21318962.8784
      2385.7664       1859.0384
   3343520.81347   2604520.10046  21065172.3704   21065177.7144
     -1552.2034      -1209.5094
 98  7 10 16 39 44.9990000  0  7G 4G 5G30G 6G 8G10G24
  13269691.87445  10340014.23543  24028036.5114   24028041.2334
     -2705.1564      -2107.9144
  -4165775.88147  -3222303.36047  20248272.4954   20248277.0544
      -595.7664       -464.2334
 -15138989.14547 -11702432.46047  20458240.1984   20458243.9374
      1794.0004       1397.9224
 -12935708.79946  -2220439.69145  22639488.1594   22639492.9764
      2856.7344       2226.0274
   6597135.18945   5140613.63745  22962822.5734   22962828.5974
     -2274.2664      -1772.1554
 -17454775.46346 -13475463.19546  21312159.7614   21312165.0694
      2376.5634       1851.8674
   3366840.51447   2622691.28646  21069610.0194   21069615.4334
     -1557.3914      -1213.5514
 98  7 10 16 39 59.9990000  0  7G 4G 5G30G 6G 8G10G24
  13310271.46345  10371634.70943  24035759.4174   24035765.4404
     -2705.7034      -2108.3404
  -4156772.30847  -3215287.60047  20249985.6514   20249990.3514
      -604.8754       -471.3314
 -15165827.61047 -11723345.54147  20453133.0504   20453136.7304
      1784.2814       1390.3494
 -12978551.19446  -2253823.35745  22631336.0344   22631341.7534
      2855.3444       2224.9434
   6631280.09845   5167219.99745  22969319.9254   22969326.4874
     -2278.5784      -1775.5154
 -17490355.46446 -13503187.83746  21305389.1204   21305394.5464
      2367.2344       1844.5984
   3390239.59447   2640924.32846  21074062.5734   21074068.0584
     -1562.7194      -1217.7034
 98  7 10 16 40 14.9990000  0  7G 4G 5G30G 6G 8G10G24
  13350860.95345  10403262.80843  24043482.9334   24043488.0544
     -2706.2194      -2108.7424
  -4147631.68547  -3208165.05147  20251725.2144   20251729.8904
      -613.8594       -478.3324
 -15192518.81147 -11744143.87047  20448053.7224   20448057.5544
      1774.4844       1382.7154
 -13021368.94246  -2287187.79745  22623187.9404   22623193.5774
      2853.6884       2223.6534
   6665491.61545   5193878.26145  22975830.1124   22975836.5224
     -2282.9534      -1778.9254
 -17525793.75546 -13530802.05846  21298645.2534   21298650.8084
      2357.8284       1837.2694
   3413719.64647   2659220.47046  21078530.6124   21078536.0504
     -1567.9844      -1221.8064
 98  7 10 16 40 29.9990000  0  7G 4G 5G30G 6G 8G10G24
  13391459.63445  10434898.13543  24051208.4404   24051214.3004
     -2706.8284      -2109.2174
  -4138353.96547  -3200935.67047  20253490.5654   20253495.3234
      -623.0784       -485.5154
 -15219058.68347 -11764824.28247  20443003.3944   20443007.2374
      1764.3134       1374.7894
 -13064159.29346  -2320530.91145  22615045.0264   22615050.8864
      2851.7664       2222.1554
   6699771.93945   5220590.14045  22982353.3944   22982359.9334
     -2287.6564      -1782.5894
 -17561086.86446 -13558303.15346  21291929.2534   21291935.2884
      2348.0784       1829.6714
   3437281.88447   2677580.64746  21083014.5974   21083020.0224
     -1573.5784      -1226.1654
 98  7 10 16 40 44.9990000  0  7G 4G 5G30G 6G 8G10G24
  13432068.15845  10466541.09344  24058936.2844   24058941.4174
     -2707.6414      -2109.8504
  -4128937.58247  -3193598.24047  20255282.7844   20255287.4014
      -632.4064       -492.7844
 -15245447.33447 -11785386.85947  20437981.8624   20437985.6364
      1754.2504       1366.9484
 -13106920.36646  -2353851.20045  22606907.7454   22606914.0154
      2849.7344       2220.5724
   6734122.50045   5247356.75345  22988890.5264   22988896.4094
     -2292.4064      -1786.2914
 -17596236.40446 -13585692.37046  21285240.5584   21285246.4054
      2338.6254       1822.3054
   3460928.59247   2696006.64746  21087514.4014   21087519.5464
     -1579.2814      -1230.6094
 98  7 10 16 40 59.9990000  0  7G 4G 5G30G 6G 8G10G24
  13472684.95145  10498190.51743  24066665.1834   24066671.5344
     -2708.1414      -2110.2394
  -4119383.37447  -3186153.41847  20257100.6594   20257105.3004
      -641.7504       -500.0654
 -15271689.96247 -11805835.65447  20432987.9874   20432991.7614
      1744.6254       1359.4484
 -13149654.84946  -2387150.75645  22598775.6124   22598781.4374
      2848.0314       2219.2454
   6768539.95845   5274175.48145  22995439.6364   22995446.0114
     -2296.7034      -1789.6394
 -17631249.69546 -13612975.42046  21278577.7304   21278583.4254
      2329.6884       1815.3414
   3484656.56347   2714495.97646  21092029.7614   21092035.1874
     -1584.5624      -1234.7244
 98  7 10 16 41 14.9990000  0  7G 4G 5G30G 6G 8G10G24
  13513313.41744  10529849.02143  24074396.5114   24074402.6404
     -2708.7814      -2110.7394
  -4109682.88247  -3178594.60147  20258946.6054   20258951.2454
      -651.3754       -507.5654
 -15297784.92447 -11826169.38447  20428022.5584   20428026.2144
      1734.9534       1351.9124
 -13192357.81346  -2420425.76745  22590649.7304   22590655.5544
      2845.8914       2217.5774
   6803025.59445   5301047.33845  23002002.4014   23002008.0154
     -2301.1874      -1793.1334
 -17666123.34046 -13640149.65946  21271941.4954   21271947.2964
      2320.3284       1808.0484
   3508467.90947   2733050.25946  21096560.7844   21096566.1284
     -1590.0624      -1239.0104
 98  7 10 16 41 29.9990000  0  7G 4G 5G30G 6G 8G10G24
  13553949.51545  10561513.49343  24082129.4174   24082135.3354
     -2709.4224      -2111.2384
  -4099841.47947  -3170925.99247  20260819.4094   20260824.0264
      -660.8594       -514.9554
 -15323739.93547 -11846394.06147  20423083.4094   20423087.1124
      1725.7034       1344.7044
 -13235033.08046  -2453679.20045  22582528.6284   22582534.3944
      2844.1254       2216.2014
   6837576.03845   5327969.70845  23008577.1594   23008583.6054
     -2305.5314      -1796.5184
 -17700858.30446 -13667215.83646  21265331.6284   21265337.4404
      2310.9534       1800.7434
   3532357.62147   2751665.61246  21101106.9334   21101112.3584
     -1595.2814      -1243.0764
 98  7 10 16 41 44.9990000  0  7G 4G 5G30G 6G 8G10G24
  13594597.86044  10593187.50243  24089864.1674   24089871.2964
     -2710.6414      -2112.1874
  -4089856.26047  -3163145.31147  20262719.5974   20262724.3554
      -670.7344       -522.6504
 -15349555.06647 -11866509.73947  20418170.9094   20418174.5544
      1716.0634       1337.1924
 -13277679.92746  -2486910.47345  22574413.0734   22574418.7804
      2841.8914       2214.4604
   6872194.04945   5354944.71045  23015164.7454   23015171.4374
     -2310.4844      -1800.3774
 -17735450.24246 -13694170.56146  21258748.9644   21258754.8354
      2301.0634       1793.0364
   3556327.67847   2770343.57246  21105668.2534   21105673.5734
     -1600.9534      -1247.4964
 98  7 10 16 41 59.9990000  0  7G 4G 5G30G 6G 8G10G24
  13635262.41745  10624874.11443  24097603.2764   24097608.6324
     -2711.5944      -2112.9304
  -4079726.30247  -3155251.85247  20264647.2694   20264651.7694
      -680.2034       -530.0284
 -15375227.91347 -11886514.55047  20413285.6204   20413289.2534
      1706.6724       1329.8744
 -13320296.48746  -2520118.16445  22566303.5504   22566309.1514
      2840.0944       2213.0604
   6906882.40145   5381974.50045  23021765.8474   23021772.1634
     -2314.9224      -1803.8354
 -17769896.83346 -13721012.03146  21252193.9014   21252199.6084
      2291.5634       1785.6334
   3580377.61347   2789083.77446  21110244.6834   21110250.2374
     -1605.9064      -1251.3564
 98  7 10 16 42 14.9990000  0  7G 4G 5G30G 6G 8G10G24
  13675945.38545  10656575.09943  24105344.2614   24105348.8554
     -2712.8914      -2113.9414
  -4069449.96347  -3147244.32947  20266602.6904   20266607.1554
      -690.0784       -537.7234
 -15400755.08447 -11906405.84147  20408427.6204   20408431.2064
      1696.9064       1322.2654
 -13362882.08146  -2553301.71245  22558199.7064   22558205.5894
      2837.9384       2211.3804
   6941641.91745   5409059.77445  23028380.1984   23028386.2224
     -2319.7194      -1807.5734
 -17804198.61146 -13747740.66346  21245666.4404   21245672.0774
      2282.0164       1778.1944
   3604502.54347   2807882.41746  21114835.5654   21114840.8744
     -1610.7194      -1255.1064
 98  7 10 16 42 29.9990000  0  8G 4G 5G30G 6G 8G17G10G24
  13716646.28745  10688290.05143  24113090.0814   24113095.7414
     -2714.1724      -2114.9394
  -4059024.67847  -3139120.75347  20268586.6054   20268591.1984
      -700.2344       -545.6374
 -15426136.99947 -11926183.95247  20403597.7694   20403601.4954
      1687.0784       1314.6064
 -13405437.93846  -2586462.08645  22550101.7454   22550107.5344
      2835.9384       2209.8214
   6976471.11145   5436199.34745  23035008.3394   23035014.6554
     -2324.4374      -1811.2504
    -19055.72353                  24821882.4954
      3811.1414
 -17838360.00246 -13774359.89646  21239165.8394   21239171.3124
      2272.5474       1770.8164
   3628695.57747   2826734.12146  21119439.3864   21119444.7304
     -1615.3444      -1258.7094
 98  7 10 16 42 44.9990000  0  8G 4G 5G30G 6G 8G17G10G24
  13757364.55545  10720018.55943  24120838.1054   24120843.3434
     -2715.2664      -2115.7914
  -4048448.23247  -3130879.37447  20270599.3084   20270604.0774
      -710.2974       -553.4784
 -15451374.27647 -11945849.35747  20398795.2304   20398799.0034
      1677.5784       1307.2044
 -13447966.95946  -2619601.55245  22542008.7924   22542014.3004
      2834.2344       2208.4944
   7011368.53045   5463392.08845  23041649.1754   23041655.7964
     -2328.8284      -1814.6714
    -76202.72843                  24811007.7534
      3808.1254
 -17872381.42946 -13800870.07446  21232691.6984   21232697.1834
      2263.3284       1763.6324
   3652957.00747   2845639.12446  21124056.2534   21124061.6444
     -1619.8124      -1262.1924
 98  7 10 16 42 59.9990000  0  8G 4G 5G30G 6G 8G17G10G24
  13798106.08845  10751765.19343  24128591.0504   24128595.4914
     -2716.6414      -2116.8634
  -4037716.03347  -3122516.63347  20272641.4954   20272646.2534
      -720.3444       -561.3074
 -15476464.00447 -11965399.79047  20394020.8624   20394024.5074
      1668.0314       1299.7654
 -13490465.21646  -2652717.04745  22533921.0584   22533926.4484
      2832.5164       2207.1554
   7046336.29145   5490639.62645  23048303.0194   23048308.9954
     -2333.2344      -1818.1054
   -133298.94543                  24800141.9804
      3805.0004
 -17906258.42147 -13827267.70146  21226245.0584   21226250.5774
      2253.7814       1756.1934
   3677290.70647   2864600.44146  21128686.9094   21128692.4524
     -1624.4064      -1265.7714
 98  7 10 16 43 14.9990000  0  8G 4G 5G30G 6G 8G17G10G24
  13838868.21445  10783527.83443  24136348.0974   24136354.2964
     -2718.3444      -2118.1904
  -4026833.16447  -3114036.49147  20274712.5264   20274717.1904
      -730.6724       -569.3554
 -15501410.55447 -11984838.65247  20389273.5734   20389277.1474
      1658.1884       1292.0944
 -13532938.89246  -2685813.38545  22525839.0264   22525844.4644
      2830.6564       2205.7064
   7081370.91645   5517939.30445  23054969.9724   23054976.4994
     -2338.0164      -1821.8304
   -190348.26543                  24789285.3554
      3801.5944
 -17939987.67847 -13853550.20546  21219826.7304   21219832.5074
      2243.4224       1748.1214
   3701693.31147   2883615.44346  21133330.2454   21133335.5424
     -1629.3124      -1269.5944
 98  7 10 16 43 29.9990000  0  8G 4G 5G30G 6G 8G17G10G24
  13879646.96245  10815303.48343  24144108.1204   24144113.3824
     -2718.9694      -2118.6774
  -4015806.54447  -3105444.33647  20276810.8234   20276815.4764
      -739.7194       -576.4044
 -15526218.61147 -12004169.59847  20384552.9484   20384556.5464
      1649.3284       1285.1914
 -13575393.40646  -2718894.79745  22517760.4804   22517765.8824
      2829.7504       2205.0004
   7116469.20845   5545288.53645  23061649.1204   23061655.8824
     -2341.9844      -1824.9234
   -247355.70243                  24778438.9014
      3799.2814
 -17973568.29347 -13879716.88846  21213436.4014   21213441.9334
      2233.8594       1740.6704
   3726161.05347   2902681.21946  21137986.5734   21137991.9054
     -1633.2194      -1272.6384
 98  7 10 16 43 44.9990000  0  8G 4G 5G30G 6G 8G17G10G24
  13920440.49545  10847090.63443  24151870.9564   24151877.5194
     -2719.8444      -2119.3594
  -4004637.19447  -3096740.96147  20278936.2764   20278940.9644
      -749.2194       -583.8074
 -15550884.58047 -12023389.83147  20379859.1834   20379862.4404
      1639.7194       1277.7034
 -13617827.04646  -2751959.95245  22509685.1674   22509691.3194
      2828.3134       2203.8804
   7151632.90845   5572688.76245  23068340.9334   23068348.3434
     -2346.1724      -1828.1864
   -304321.40343    -11830.92752  24767598.1364   24767609.4374
      3796.4534       2958.2754
 -18007001.77747 -13905768.93346  21207074.2534   21207079.6794
      2224.2664       1733.1944
   3750692.85547   2921796.90046  21142654.7694   21142660.0074
     -1637.4064      -1275.9014
 98  7 10 16 43 59.9990000  0  8G 4G 5G30G 6G 8G17G10G24
  13961247.10345  10878887.97443  24159635.6674   24159640.2964
     -2720.8914      -2120.1754
  -3993324.51947  -3087925.89847  20281088.8554   20281093.7884
      -759.0474       -591.4654
 -15575403.67947 -12042495.61647  20375193.3084   20375196.8004
      1629.6254       1269.8384
 -13660235.77346  -2785005.69345  22501615.1284   22501621.0114
      2826.2504       2202.2734
   7186859.89945   5600138.30845  23075043.8864   23075051.2614
     -2350.5784      -1831.6194
   -361243.32343    -56185.58942  24756766.4334   24756778.0384
      3793.2034       2955.7434
 -18040290.64047 -13931708.28346  21200739.6204   21200745.0344
      2214.3754       1725.4874
   3775289.73847   2940963.29346  21147335.4094   21147340.5544
     -1642.0314      -1279.5054
 98  7 10 16 44 14.9990000  0  8G 4G 5G30G 6G 8G17G10G24
  14002066.13645  10910694.97443  24167403.4094   24167409.7964
     -2721.4694      -2120.6254
  -3981865.67647  -3078996.94947  20283269.7534   20283274.5694
      -768.6254       -598.9294
 -15599774.82247 -12061486.11147  20370555.6204   20370559.3584
      1620.0474       1262.3744
 -13702614.47646  -2818028.02545  22493550.7694   22493556.6874
      2824.4064       2200.8364
   7222148.45645   5627635.84045  23081759.5894   23081766.7414
     -2354.3594      -1834.5664
   -418117.37043   -100502.97042  24745943.1904   24745953.1904
      3790.2194       2953.4174
 -18073433.91947 -13957534.19446  21194432.7374   21194438.2104
      2204.9384       1718.1334
   3799952.73847   2960181.20646  21152028.3394   21152033.9294
     -1646.2194      -1282.7684
 98  7 10 16 44 29.9990000  0  8G 4G 5G30G 6G 8G17G10G24
  14042892.13945  10942507.45843  24175172.9644   24175178.7304
     -2722.3594      -2121.3194
  -3970263.52647  -3069956.32347  20285477.2694   20285482.0974
      -778.6414       -606.7334
 -15624003.18847 -12080365.35247  20365944.9014   20365948.7694
      1610.0314       1254.5704
 -13744964.18346  -2851027.76345  22485492.0034   22485497.9094
      2821.8754       2198.8644
   7257493.28545   5655177.19445  23088485.3624   23088492.5264
     -2358.5784      -1837.8534
   -474945.40743   -144784.53042  24735129.5584   24735139.5114
      3786.5314       2950.5444
 -18106436.48047 -13983250.45546  21188152.5654   21188158.1904
      2195.0474       1710.4264
   3824680.30947   2979449.43346  21156734.1284   21156739.6244
     -1651.2034      -1286.6524
 98  7 10 16 44 44.9990000  0  8G 4G 5G30G 6G 8G17G10G24
  14083727.88445  10974327.42243  24182942.8394   24182947.5504
     -2722.5314      -2121.4534
  -3958516.38447  -3060802.72347  20287712.8624   20287717.5854
      -787.7504       -613.8314
 -15648084.71647 -12099130.16847  20361362.5264   20361366.3584
      1600.6724       1247.2774
 -13787280.32246  -2884001.34645  22477439.1284   22477444.7884
      2820.1094       2197.4884
   7292897.63145   5682764.92145  23095222.6834   23095229.1754
     -2362.1724      -1840.6534
   -531719.81643   -189024.22641  24724325.4014   24724335.9294
      3783.2504       2947.9874
 -18139292.96047 -14008852.88846  21181900.1204   21181905.6514
      2185.6724       1703.1214
   3849482.44847   2998775.76646  21161453.7374   21161459.0694
     -1655.8754      -1290.2924
 98  7 10 16 44 59.9990000  0  8G 4G 5G30G 6G 8G17G10G24
  14124570.12245  11006152.56143  24190715.2924   24190720.8944
     -2722.9694      -2121.7944
  -3946628.43547  -3051539.40347  20289974.9804   20289979.5154
      -797.1564       -621.1614
 -15672022.16647 -12117782.72047  20356807.2924   20356811.0304
      1591.0784       1239.8014
 -13829565.03246  -2916950.45245  22469393.0974   22469398.5584
      2817.9844       2195.8324
   7328359.53445   5710397.50345  23101970.8554   23101977.3354
     -2365.9374      -1843.5884
   -588442.49742   -233223.69442  24713531.8624   24713541.0424
      3779.9694       2945.4304
 -18172005.09547 -14034342.84246  21175675.2694   21175680.6244
      2176.0634       1695.6334
   3874356.72747   3018158.31946  21166187.4404   21166192.7024
     -1660.5624      -1293.9454
 98  7 10 16 45 14.9990000  0  8G 4G 5G30G 6G 8G17G10G24
  14165415.19045  11037979.85043  24198488.3394   24198494.5264
     -2723.0314      -2121.8434
  -3934602.87847  -3042168.85647  20292263.4644   20292268.1404
      -806.2814       -628.2714
 -15695816.92247 -12136324.08247  20352279.6204   20352283.2884
      1581.5474       1232.3744
 -13871819.97846  -2949876.35045  22461351.9724   22461357.6674
      2816.0004       2194.2864
   7363876.32445   5738072.87545  23108729.6514   23108735.7454
     -2369.6094      -1846.4494
   -645119.20742   -277387.30942  24702745.3554   24702754.3474
      3776.9694       2943.0934
 -18204573.98647 -14059721.17646  21169477.6284   21169482.9954
      2166.4844       1688.1704
   3899299.44647   3037594.19346  21170933.7064   21170938.9334
     -1665.0944      -1297.4764
 98  7 10 16 45 29.9990000  0  8G 4G 5G30G 6G 8G17G10G24
  14206259.89645  11069806.84443  24206260.2534   24206266.0654
     -2722.9224      -2121.7574
  -3922440.72947  -3032691.87047  20294577.9954   20294582.6834
      -815.2664       -635.2724
 -15719468.08247 -12154753.55147  20347778.6984   20347782.3434
      1572.0004       1224.9354
 -13914043.93346  -2982778.11445  22453316.9014   22453322.6794
      2813.8754       2192.6304
   7399447.63245   5765790.72145  23115498.6754   23115505.9684
     -2373.1724      -1849.2254
   -701752.07343   -321516.75941  24691968.4404   24691972.3664
      3774.1724       2940.9134
 -18237002.74547 -14084990.31546  21163306.3704   21163311.6324
      2157.4534       1681.1324
   3924308.66047   3057081.87846  21175692.8554   21175698.0464
     -1669.3594      -1300.8004
 98  7 10 16 45 44.9990000  0  8G 4G 5G30G 6G 8G17G10G24
  14247108.29845  11101636.76742  24214033.2144   24214040.2374
     -2723.4844      -2122.1964
  -3910138.60347  -3023105.81647  20296918.8394   20296923.5034
      -825.0004       -642.8574
 -15742969.10047 -12173066.02847  20343306.5654   20343310.1284
      1561.5164       1216.7654
 -13956228.40246  -3015649.09445  22445289.5114   22445295.3124
      2810.8134       2190.2444
   7435077.15245   5793553.92545  23122279.1594   23122285.2534
     -2377.2974      -1852.4394
   -758338.44243   -365609.93741  24681200.4484   24681205.3004
      3770.8444       2938.3204
 -18269291.63347 -14110150.46846  21157161.8314   21157167.2924
      2147.8284       1673.6324
   3949386.29747   3076622.89246  21180464.8624   21180470.4404
     -1674.2504      -1304.6104
 98  7 10 16 45 59.9990000  0  8G 4G 5G30G 6G 8G17G10G24
  14287963.08844  11133471.64142  24221807.5974   24221813.9604
     -2724.1564      -2122.7194
  -3897694.10747  -3013408.81847  20299286.9954   20299291.8124
      -834.5474       -650.2964
 -15766317.65247 -12191259.69747  20338863.5194   20338867.0584
      1551.3594       1208.8514
 -13998372.67646  -3048488.75445  22437269.5264   22437275.3744
      2808.1724       2188.1864
   7470762.14145   5821360.34845  23129069.3784   23129075.9054
     -2380.9844      -1855.3124
   -814880.12543   -409668.33442  24670441.6124   24670450.5814
      3767.8284       2935.9704
 -18301439.22047 -14135200.51146  21151044.7064   21151050.2024
      2138.1414       1666.0844
   3974533.19847   3096217.87146  21185250.0424   21185255.4214
     -1679.0004      -1308.3124
 98  7 10 16 46 14.9990000  0  8G 4G 5G30G 6G 8G17G10G24
  14328825.17244  11165312.15142  24229583.5504   24229589.9604
     -2724.2814      -2122.8174
  -3885110.06947  -3003603.08847  20301681.6514   20301686.5264
      -843.4844       -657.2614
 -15789520.44147 -12209339.78447  20334448.2144   20334451.7884
      1542.1724       1201.6924
 -14040482.64846  -3081301.68045  22429256.7064   22429262.5654
      2806.3754       2186.7864
   7506498.52645   5849206.81545  23135869.8554   23135875.7024
     -2384.0944      -1857.7354
   -871381.77443   -453695.59242  24659689.0504   24659695.8704
      3765.5314       2934.1804
 -18333444.23847 -14160139.46346  21144954.2924   21144959.8824
      2129.0314       1658.9854
   3999747.01247   3115864.99246  21190048.3394   21190053.6834
     -1682.9844      -1311.4164
 98  7 10 16 46 29.9990000  0  8G 4G 5G30G 6G 8G17G10G24
  14369694.07544  11197158.08342  24237359.9954   24237366.9834
     -2724.8594      -2123.2674
  -3872387.99147  -2993689.79847  20304102.6754   20304107.5264
      -852.7194       -664.4564
 -15812580.09947 -12227308.34547  20330060.0344   20330063.6554
      1532.4844       1194.1444
 -14082563.35946  -3114091.82445  22421248.5894   22421254.4134
      2804.4694       2185.3004
   7542287.15045   5877094.00145  23142680.4724   23142686.4484
     -2387.6874      -1860.5364
   -927844.98542   -497692.77242  24648945.2374   24648953.1164
      3762.9844       2932.1964
 -18365307.79047 -14184968.18546  21138890.6364   21138896.1904
      2119.5164       1651.5714
   4025024.92047   3135562.05346  21194858.3004   21194863.8434
     -1687.3444      -1314.8134
 98  7 10 16 46 44.9990000  0  8G 4G 5G30G 6G 8G17G10G24
  14410574.56444  11229012.92742  24245139.9644   24245145.2724
     -2725.8594      -2124.0464
  -3859524.67747  -2983666.45247  20306550.6204   20306555.3434
      -862.2974       -671.9204
 -15835490.66547 -12245160.73047  20325700.4404   20325703.9444
      1522.3594       1186.2544
 -14124613.46846  -3146858.10445  22413246.8474   22413252.5304
      2802.3284       2183.6324
   7578132.80745   5905025.61645  23149501.4954   23149508.1404
     -2391.6254      -1863.6044
   -984267.96042   -541658.67742  24638207.6124   24638217.6594
      3760.1414       2929.9804
 -18397025.12247 -14209682.96346  21132855.0814   21132860.6124
      2109.5164       1643.7784
   4050371.30047   3155312.47346  21199681.6124   21199687.2264
     -1692.0944      -1318.5154
 98  7 10 16 46 59.9990000  0  8G 4G 5G30G 6G 8G17G10G24
  14451466.77044  11260876.95142  24252921.8474   24252928.6794
     -2726.5624      -2124.5944
  -3846522.00447  -2973534.51147  20309024.8004   20309029.6514
      -871.5004       -679.0914
 -15858255.02047 -12262899.18147  20321368.3864   20321372.0194
      1512.7664       1178.7784
 -14166637.84546  -3179604.34245  22405249.8394   22405255.8864
      2800.8594       2182.4884
   7614032.13545   5932999.05045  23156332.9484   23156340.4404
     -2394.9694      -1866.2094
  -1040654.71243   -585596.28942  24627479.3474   24627487.9874
      3758.0474       2928.3484
 -18428596.86947 -14234284.30646  21126847.2844   21126852.9804
      2099.9384       1636.3154
   4075781.57147   3175112.66946  21204517.2064   21204522.8084
     -1695.9844      -1321.5464
 98  7 10 16 47 14.9990000  0  8G 4G 5G30G 6G 8G17G10G24
  14492374.44943  11292753.09642  24260706.2924   24260713.1514
     -2727.7194      -2125.4954
  -3833377.04147  -2963291.70047  20311526.2304   20311531.0464
      -880.9694       -686.4694
 -15880870.33747 -12280521.50147  20317064.8704   20317068.4684
      1502.6884       1170.9254
 -14208636.83446  -3212330.79645  22397257.6444   22397263.2574
      2799.1414       2181.1494
   7649984.94344   5961014.13744  23163174.3704   23163182.0734
     -2398.6564      -1869.0834
  -1097006.36843   -629506.66542  24616754.3704   24616766.1054
      3755.5944       2926.4374
 -18460020.00847 -14258769.84846  21120867.5424   21120873.2374
      2089.8754       1628.4744
   4101254.62147   3194961.78746  21209364.4874   21209370.0074
     -1700.3914      -1324.9804
 98  7 10 16 47 29.9990000  0  8G 4G 5G30G 6G 8G17G10G24
  14533302.82543  11324645.26342  24268494.2144   24268500.5654
     -2729.5624      -2126.9324
  -3820091.44147  -2952939.29947  20314054.3394   20314059.1324
      -890.6254       -693.9944
 -15903332.42647 -12298024.42047  20312790.5584   20312794.2144
      1492.0784       1162.6584
 -14250609.21946  -3245036.52545  22389270.4724   22389275.6984
      2797.0164       2179.4934
   7685993.39145   5989072.59145  23170026.5814   23170032.9684
     -2402.6254      -1872.1754
  -1153319.24143   -673386.69842  24606038.5264   24606046.3354
      3752.6254       2924.1234
 -18491290.59747 -14283136.51846  21114917.0034   21114922.5224
      2079.4224       1620.3294
   4126796.16347   3214864.27946  21214224.8784   21214230.0464
     -1705.2814      -1328.7914
 98  7 10 16 47 44.9990000  0  8G 4G 5G30G 6G 8G17G10G24
  14574256.94844  11356557.53942  24276287.9094   24276293.4764
     -2730.9844      -2128.0404
  -3806663.83047  -2942476.24247  20316609.6124   20316614.6054
      -899.7814       -701.1284
 -15925637.98347 -12315405.37147  20308545.8314   20308549.5344
      1481.9384       1154.7564
 -14292552.00846  -3277719.19445  22381289.0504   22381293.9134
      2795.3284       2178.1784
   7722057.40644   6017174.35644  23176888.9644   23176896.2574
     -2405.9374      -1874.7564
  -1209588.94943   -717233.14742  24595330.5654   24595340.8004
      3749.9384       2922.0294
 -18522407.51347 -14307383.44946  21108995.8154   21109001.1474
      2069.3914       1612.5124
   4152407.98347   3234821.53246  21219098.5344   21219103.6554
     -1709.7034      -1332.2364
 98  7 10 16 47 59.9990000  0  8G 4G 5G30G 6G 8G17G10G24
  14615230.68343  11388485.07742  24284084.0814   24284092.5464
     -2732.0004      -2128.8314
  -3793098.25447  -2931905.68347  20319190.9174   20319195.9334
      -908.8124       -708.1664
 -15947791.54747 -12332667.88047  20304330.0894   20304333.7574
      1472.0634       1147.0624
 -14334471.98946  -3310384.08845  22373312.0114   22373317.7654
      2794.1724       2177.2774
   7758170.58945   6045314.40844  23183762.2614   23183769.6714
     -2408.9694      -1877.1194
  -1265817.74743   -761047.78142  24584630.2764   24584639.9484
      3747.3754       2920.0324
 -18553372.65947 -14331512.11346  21103103.2064   21103108.5974
      2059.4224       1604.7444
   4178086.67247   3254830.88946  21223985.1284   21223990.2494
     -1713.9844      -1335.5724
 98  7 10 16 48 14.9990000  0  8G 4G 5G30G 6G 8G17G10G24
  14656226.62643  11420429.93342  24291886.6284   24291893.0384
     -2733.9534      -2130.3534
  -3779390.39247  -2921224.25047  20321799.7224   20321804.5384
      -918.8284       -715.9704
 -15969790.77647 -12349810.13347  20300143.9334   20300147.5074
      1461.2504       1138.6364
 -14376367.49346  -3343029.90745  22365339.1984   22365344.6594
      2791.9384       2175.5364
   7794337.19345   6073496.10445  23190644.4014   23190651.7654
     -2413.1874      -1880.4064
  -1321998.96243   -804825.26342  24573939.2304   24573948.7494
      3743.5164       2917.0254
 -18584181.35447 -14355518.87546  21097240.3944   21097245.7374
      2048.5314       1596.2584
   4203837.46547   3274896.43646  21228885.4334   21228890.7764
     -1719.3444      -1339.7484
 98  7 10 16 48 29.9990000  0  8G 4G 5G30G 6G 8G17G10G24
  14697238.30744  11452387.02142  24299691.0424   24299697.3474
     -2734.5004      -2130.7794
  -3765542.40547  -2910433.62947  20324434.9334   20324439.5734
      -927.8124       -722.9714
 -15991637.52847 -12366833.57247  20295986.5974   20295990.0654
      1451.3444       1130.9174
 -14418239.05246  -3375657.05945  22357371.4404   22357376.7964
      2790.7034       2174.5744
   7830558.04845   6101720.07445  23197536.6364   23197543.3624
     -2416.4844      -1882.9754
  -1378131.06443   -848564.45442  24563257.7144   24563265.8274
      3740.5784       2914.7364
 -18614839.01147 -14379407.94246  21091406.6124   21091411.9914
      2038.8754       1588.7344
   4229657.46147   3295015.90446  21233798.5734   21233803.8474
     -1723.5944      -1343.0604
 98  7 10 16 48 44.9990000  0  8G 4G 5G30G 6G 8G17G10G24
  14738262.27245  11484353.76542  24307497.3234   24307501.9644
     -2735.5004      -2131.5584
  -3751556.10947  -2899535.22847  20327096.1204   20327101.0074
      -937.2034       -730.2884
 -16013330.99247 -12383737.56647  20291858.5264   20291861.8784
      1441.0004       1122.8574
 -14460088.04246  -3408266.64645  22349407.8624   22349413.6874
      2788.9384       2173.1984
   7866831.17645   6129984.76744  23204439.7534   23204446.6834
     -2420.0944      -1885.7874
  -1434216.15643   -892267.05142  24552584.9564   24552594.7334
      3737.3134       2912.1924
 -18645347.54147 -14403180.80746  21085601.0194   21085606.4094
      2028.7814       1580.8694
   4255545.12447   3315188.09846  21238725.2844   21238730.4524
     -1728.2664      -1346.7004
 98  7 10 16 48 59.9990000  0  8G 4G 5G30G 6G 8G17G10G24
  14779298.91244  11516330.32143  24315306.0654   24315311.0224
     -2736.2664      -2132.1554
  -3737432.36347  -2888529.72647  20329783.8554   20329788.6944
      -946.2504       -737.3384
 -16034873.69047 -12400524.08047  20287759.1124   20287762.6054
      1431.0634       1115.1144
 -14501911.55546  -3440856.36445  22341449.1834   22341454.7844
      2787.2664       2171.8954
   7903157.06245   6158290.58644  23211352.1124   23211358.8044
     -2423.6254      -1888.5394
  -1490254.18943   -935932.94342  24541921.5424   24541934.1204
      3734.2034       2909.7694
 -18675707.86547 -14426838.18646  21079823.5194   21079828.7334
      2018.9844       1573.2354
   4281499.73447   3335412.46146  21243664.0654   21243669.2924
     -1732.6094      -1350.0854
 98  7 10 16 49 14.9990000  0  8G 4G 5G30G 6G 8G17G10G24
  14820345.49745  11548314.66243  24323117.5344   24323122.8194
     -2736.7814      -2132.5574
  -3723172.40047  -2877418.08647  20332497.5194   20332502.3234
      -955.3124       -744.3994
 -16056265.65047 -12417193.13847  20283688.1444   20283691.8124
      1420.9224       1107.2124
 -14543709.12546  -3473425.87345  22333495.2144   22333500.6284
      2785.4534       2170.4834
   7939536.31745   6186637.99644  23218275.0584   23218282.6204
     -2427.1564      -1891.2914
  -1546245.76843   -979562.71042  24531266.1674   24531275.8864
      3731.1254       2907.3704
 -18705921.03847 -14450380.90646  21074074.3314   21074079.4874
      2009.2194       1565.6254
   4307518.59047   3355686.88646  21248615.4724   21248621.0154
     -1736.8594      -1353.3974
 98  7 10 16 49 29.9990000  0  8G 4G 5G30G 6G 8G17G10G24
  14861397.59245  11580303.26843  24330928.8004   24330935.3624
     -2736.8594      -2132.6184
  -3708777.07147  -2866200.97047  20335236.8084   20335241.5774
      -964.1414       -751.2784
 -16077505.59847 -12433743.74047  20279646.3314   20279649.8944
      1411.0164       1099.4934
 -14585476.96846  -3505972.21645  22325546.8234   22325552.2264
      2783.5004       2168.9614
   7975969.10345   6215027.09944  23225208.1514   23225215.1054
     -2430.6094      -1893.9814
  -1602190.21743  -1023155.69942  24520620.9954   24520630.4914
      3728.0634       2904.9844
 -18735988.51547 -14473810.09446  21068352.6594   21068358.0854
      1999.7344       1558.2354
   4333602.41347   3376011.92946  21253578.4724   21253584.0154
     -1740.9694      -1356.5994
 98  7 10 16 49 44.9990000  0  8G 4G 5G30G 6G 8G17G10G24
  14902449.60745  11612291.82943  24338741.5424   24338747.3664
     -2736.6874      -2132.4844
  -3694245.62347  -2854877.78247  20338002.1904   20338007.0774
      -973.4374       -758.5234
 -16098596.20147 -12450177.96947  20275633.1364   20275636.7334
      1401.1094       1091.7744
 -14627212.88946  -3538493.67745  22317605.0344   22317610.7414
      2781.2814       2167.2324
   8012453.87445   6243456.74244  23232150.3864   23232158.1944
     -2434.0624      -1896.6724
  -1658087.18043  -1066711.69442  24509983.4644   24509992.2334
      3724.8754       2902.5004
 -18765913.31747 -14497128.10546  21062658.0194   21062663.2574
      1990.2664       1550.8564
   4359746.80147   3396384.16746  21258554.1904   21258559.7454
     -1744.9534      -1359.7044
 98  7 10 16 49 59.9990000  0  8G 4G 5G30G 6G 8G17G10G24
  14943496.53345  11644276.40943  24346552.4874   24346558.6634
     -2736.4844      -2132.3254
  -3679574.61347  -2843445.84647  20340793.9724   20340798.6834
      -983.0004       -765.9744
 -16119540.93847 -12466498.54147  20271647.2844   20271650.8124
      1391.2664       1084.1034
 -14668916.44946  -3570989.92845  22309668.9404   22309674.5894
      2778.9384       2165.4064
   8048991.43745   6271927.47344  23239103.7924   23239110.6014
     -2437.9224      -1899.6794
  -1713938.28343  -1110231.94843  24499355.3624   24499365.5154
      3721.6564       2899.9924
 -18795697.37047 -14520336.44046  21056990.2614   21056995.5464
      1980.6254       1543.3444
   4385950.37747   3416802.52446  21263540.6054   21263546.1714
     -1749.1414      -1362.9674
 98  7 10 16 50 14.9990000  0  8G 4G 5G30G 6G 8G17G10G24
  14984539.40045  11676257.84443  24354363.1514   24354368.6474
     -2736.0624      -2131.9974
  -3664761.98847  -2831903.56047  20343612.9404   20343617.9094
      -992.1414       -773.0974
 -16140340.19247 -12482705.74447  20267689.3084   20267692.7654
      1381.8754       1076.7864
 -14710586.08346  -3603459.74945  22301739.4094   22301745.0464
      2776.8594       2163.7874
   8085586.92145   6300443.36444  23246067.7454   23246074.9804
     -2441.5784      -1902.5284
  -1769742.33943  -1153715.53543  24488737.3234   24488747.0544
      3718.7504       2897.7274
 -18825338.55947 -14543433.45246  21051349.6204   21051354.9524
      1971.4224       1536.1734
   4412215.38047   3437268.75346  21268538.3784   21268543.8154
     -1752.9534      -1365.9374
 98  7 10 16 50 29.9990000  0  8G 4G 5G30G 6G 8G17G10G24
  15025579.07645  11708236.80243  24362172.2304   24362177.5154
     -2735.7974      -2131.7904
  -3649810.11947  -2820252.76847  20346458.0814   20346462.9914
     -1001.3914       -780.3044
 -16160996.21147 -12498801.34147  20263758.8784   20263762.3474
      1372.2974       1069.3224
 -14752221.93246  -3635903.24345  22293816.5114   22293821.9604
      2774.6724       2162.0824
   8122239.03745   6329003.38244  23253042.4334   23253049.6324
     -2445.2814      -1905.4144
  -1825499.45343  -1197162.55743  24478125.8704   24478136.3744
      3715.5944       2895.2684
 -18854840.27747 -14566421.78846  21045735.5584   21045740.9254
      1962.1884       1528.9774
   4438538.29847   3457780.10346  21273547.9014   21273553.3864
     -1756.7194      -1368.8724
